<?xml version="1.0" encoding="utf-8"?>
<gpx xmlns:xsi="http://www.w3.org/2001/XMLSchema-instance" xmlns:xsd="http://www.w3.org/2001/XMLSchema" version="1.1" creator="Shapelink.com" xmlns="http://www.topografix.com/GPX/1/1" xmlns:gpxtpx="http://www.garmin.com/xmlschemas/TrackPointExtension/v1">
  <metadata>
    <name>Cykling - CX 12.78 km, 2020-06-08</name>
    <desc></desc>
    <author><name>Alexander Engvall</name></author> 
    <time>2020-06-08T13:44:26Z</time>
  </metadata>
  <trk>
    <name>Cykling - CX 12.78 km, 2020-06-08</name>
    <trkseg>
      <trkpt lat="59.219495281754" lon="17.906861831216">
        <ele>46.4</ele>
        <time>2020-06-08T13:44:26Z</time>
      </trkpt>
      <trkpt lat="59.219455886824" lon="17.906856550619">
        <ele>46.4</ele>
        <time>2020-06-08T13:44:27Z</time>
      </trkpt>
      <trkpt lat="59.219415234609" lon="17.906859568103">
        <ele>46.2</ele>
        <time>2020-06-08T13:44:28Z</time>
      </trkpt>
      <trkpt lat="59.219375001489" lon="17.906876415722">
        <ele>46.2</ele>
        <time>2020-06-08T13:44:29Z</time>
      </trkpt>
      <trkpt lat="59.219335774197" lon="17.906914721005">
        <ele>46.2</ele>
        <time>2020-06-08T13:44:30Z</time>
      </trkpt>
      <trkpt lat="59.219294954344" lon="17.90696962245">
        <ele>46.2</ele>
        <time>2020-06-08T13:44:31Z</time>
      </trkpt>
      <trkpt lat="59.219254469767" lon="17.907028211931">
        <ele>46</ele>
        <time>2020-06-08T13:44:32Z</time>
      </trkpt>
      <trkpt lat="59.219214739561" lon="17.907087052869">
        <ele>45.8</ele>
        <time>2020-06-08T13:44:33Z</time>
      </trkpt>
      <trkpt lat="59.219175931364" lon="17.907145390893">
        <ele>45.6</ele>
        <time>2020-06-08T13:44:34Z</time>
      </trkpt>
      <trkpt lat="59.219138631909" lon="17.907193502999">
        <ele>45.4</ele>
        <time>2020-06-08T13:44:35Z</time>
      </trkpt>
      <trkpt lat="59.219102254463" lon="17.907217475233">
        <ele>45.2</ele>
        <time>2020-06-08T13:44:36Z</time>
      </trkpt>
      <trkpt lat="59.219065960836" lon="17.907230802454">
        <ele>45</ele>
        <time>2020-06-08T13:44:37Z</time>
      </trkpt>
      <trkpt lat="59.219031427408" lon="17.907259133276">
        <ele>45</ele>
        <time>2020-06-08T13:44:38Z</time>
      </trkpt>
      <trkpt lat="59.218997396894" lon="17.907284530433">
        <ele>44.8</ele>
        <time>2020-06-08T13:44:39Z</time>
      </trkpt>
      <trkpt lat="59.218964456027" lon="17.907269526832">
        <ele>44.8</ele>
        <time>2020-06-08T13:44:40Z</time>
      </trkpt>
      <trkpt lat="59.218939980879" lon="17.907217391414">
        <ele>44.8</ele>
        <time>2020-06-08T13:44:41Z</time>
      </trkpt>
      <trkpt lat="59.218915505731" lon="17.907146145264">
        <ele>44.8</ele>
        <time>2020-06-08T13:44:42Z</time>
      </trkpt>
      <trkpt lat="59.218884995615" lon="17.907065762843">
        <ele>44.8</ele>
        <time>2020-06-08T13:44:43Z</time>
      </trkpt>
      <trkpt lat="59.218854150223" lon="17.906984542232">
        <ele>44.6</ele>
        <time>2020-06-08T13:44:44Z</time>
      </trkpt>
      <trkpt lat="59.218821041718" lon="17.906900136499">
        <ele>44.6</ele>
        <time>2020-06-08T13:44:45Z</time>
      </trkpt>
      <trkpt lat="59.218785921557" lon="17.90681288092">
        <ele>44.6</ele>
        <time>2020-06-08T13:44:46Z</time>
      </trkpt>
      <trkpt lat="59.218750969034" lon="17.9067223564">
        <ele>44.6</ele>
        <time>2020-06-08T13:44:47Z</time>
      </trkpt>
      <trkpt lat="59.218716351787" lon="17.906629987862">
        <ele>44.6</ele>
        <time>2020-06-08T13:44:48Z</time>
      </trkpt>
      <trkpt lat="59.21868005816" lon="17.906539547161">
        <ele>44.4</ele>
        <time>2020-06-08T13:44:49Z</time>
      </trkpt>
      <trkpt lat="59.218644351266" lon="17.906453213591">
        <ele>44.4</ele>
        <time>2020-06-08T13:44:50Z</time>
      </trkpt>
      <trkpt lat="59.218613673512" lon="17.906366796202">
        <ele>44.4</ele>
        <time>2020-06-08T13:44:51Z</time>
      </trkpt>
      <trkpt lat="59.218584588319" lon="17.906279205347">
        <ele>44.4</ele>
        <time>2020-06-08T13:44:52Z</time>
      </trkpt>
      <trkpt lat="59.218554413479" lon="17.906194715795">
        <ele>44.2</ele>
        <time>2020-06-08T13:44:53Z</time>
      </trkpt>
      <trkpt lat="59.21852415482" lon="17.906109807148">
        <ele>44</ele>
        <time>2020-06-08T13:44:54Z</time>
      </trkpt>
      <trkpt lat="59.218491800686" lon="17.906020875189">
        <ele>44</ele>
        <time>2020-06-08T13:44:55Z</time>
      </trkpt>
      <trkpt lat="59.218456931982" lon="17.905933871067">
        <ele>43.8</ele>
        <time>2020-06-08T13:44:56Z</time>
      </trkpt>
      <trkpt lat="59.218421644183" lon="17.905847034583">
        <ele>43.8</ele>
        <time>2020-06-08T13:44:57Z</time>
      </trkpt>
      <trkpt lat="59.218386524022" lon="17.905755671873">
        <ele>43.6</ele>
        <time>2020-06-08T13:44:58Z</time>
      </trkpt>
      <trkpt lat="59.218351152404" lon="17.905662632783">
        <ele>43.2</ele>
        <time>2020-06-08T13:44:59Z</time>
      </trkpt>
      <trkpt lat="59.218314439682" lon="17.905569928969">
        <ele>43.2</ele>
        <time>2020-06-08T13:45:00Z</time>
      </trkpt>
      <trkpt lat="59.218277978417" lon="17.905475464956">
        <ele>43</ele>
        <time>2020-06-08T13:45:01Z</time>
      </trkpt>
      <trkpt lat="59.218242103885" lon="17.905379911296">
        <ele>42.8</ele>
        <time>2020-06-08T13:45:02Z</time>
      </trkpt>
      <trkpt lat="59.218205810258" lon="17.905283938541">
        <ele>42.8</ele>
        <time>2020-06-08T13:45:03Z</time>
      </trkpt>
      <trkpt lat="59.218170187183" lon="17.905189390709">
        <ele>42.8</ele>
        <time>2020-06-08T13:45:04Z</time>
      </trkpt>
      <trkpt lat="59.218134564108" lon="17.905092579764">
        <ele>42.6</ele>
        <time>2020-06-08T13:45:05Z</time>
      </trkpt>
      <trkpt lat="59.218099527766" lon="17.904996690828">
        <ele>42.6</ele>
        <time>2020-06-08T13:45:06Z</time>
      </trkpt>
      <trkpt lat="59.218062479768" lon="17.904902897367">
        <ele>42.6</ele>
        <time>2020-06-08T13:45:07Z</time>
      </trkpt>
      <trkpt lat="59.218025347951" lon="17.904806002603">
        <ele>42.6</ele>
        <time>2020-06-08T13:45:08Z</time>
      </trkpt>
      <trkpt lat="59.217987797039" lon="17.904708269649">
        <ele>42.6</ele>
        <time>2020-06-08T13:45:09Z</time>
      </trkpt>
      <trkpt lat="59.217949910851" lon="17.904610369057">
        <ele>42.4</ele>
        <time>2020-06-08T13:45:10Z</time>
      </trkpt>
      <trkpt lat="59.217913198129" lon="17.90451204937">
        <ele>42.4</ele>
        <time>2020-06-08T13:45:11Z</time>
      </trkpt>
      <trkpt lat="59.217876653045" lon="17.904414232597">
        <ele>42.4</ele>
        <time>2020-06-08T13:45:12Z</time>
      </trkpt>
      <trkpt lat="59.217839521228" lon="17.904317086376">
        <ele>42.4</ele>
        <time>2020-06-08T13:45:13Z</time>
      </trkpt>
      <trkpt lat="59.217802054135" lon="17.904218096137">
        <ele>42.2</ele>
        <time>2020-06-08T13:45:14Z</time>
      </trkpt>
      <trkpt lat="59.217763413576" lon="17.904119022079">
        <ele>42.2</ele>
        <time>2020-06-08T13:45:15Z</time>
      </trkpt>
      <trkpt lat="59.217724270103" lon="17.904019445107">
        <ele>42.2</ele>
        <time>2020-06-08T13:45:16Z</time>
      </trkpt>
      <trkpt lat="59.217684958992" lon="17.90391861085">
        <ele>42.2</ele>
        <time>2020-06-08T13:45:17Z</time>
      </trkpt>
      <trkpt lat="59.217646150795" lon="17.90381886624">
        <ele>42.2</ele>
        <time>2020-06-08T13:45:18Z</time>
      </trkpt>
      <trkpt lat="59.217608683702" lon="17.903721468562">
        <ele>42.2</ele>
        <time>2020-06-08T13:45:19Z</time>
      </trkpt>
      <trkpt lat="59.217572892989" lon="17.903626669273">
        <ele>42.2</ele>
        <time>2020-06-08T13:45:20Z</time>
      </trkpt>
      <trkpt lat="59.217538191923" lon="17.903534384554">
        <ele>42.2</ele>
        <time>2020-06-08T13:45:21Z</time>
      </trkpt>
      <trkpt lat="59.2175032394" lon="17.903445117319">
        <ele>42.2</ele>
        <time>2020-06-08T13:45:22Z</time>
      </trkpt>
      <trkpt lat="59.217469376524" lon="17.903357777921">
        <ele>42.4</ele>
        <time>2020-06-08T13:45:23Z</time>
      </trkpt>
      <trkpt lat="59.217435010734" lon="17.903275970577">
        <ele>42.4</ele>
        <time>2020-06-08T13:45:24Z</time>
      </trkpt>
      <trkpt lat="59.217394777614" lon="17.903207490454">
        <ele>42.2</ele>
        <time>2020-06-08T13:45:25Z</time>
      </trkpt>
      <trkpt lat="59.217348425707" lon="17.90315082881">
        <ele>42.4</ele>
        <time>2020-06-08T13:45:26Z</time>
      </trkpt>
      <trkpt lat="59.217303331085" lon="17.903089976216">
        <ele>42.4</ele>
        <time>2020-06-08T13:45:27Z</time>
      </trkpt>
      <trkpt lat="59.21726267887" lon="17.90301252746">
        <ele>42.6</ele>
        <time>2020-06-08T13:45:28Z</time>
      </trkpt>
      <trkpt lat="59.217227893985" lon="17.902923176406">
        <ele>42.6</ele>
        <time>2020-06-08T13:45:29Z</time>
      </trkpt>
      <trkpt lat="59.217196713317" lon="17.902830724049">
        <ele>42.6</ele>
        <time>2020-06-08T13:45:30Z</time>
      </trkpt>
      <trkpt lat="59.217162431346" lon="17.902742043547">
        <ele>42.6</ele>
        <time>2020-06-08T13:45:31Z</time>
      </trkpt>
      <trkpt lat="59.217122784959" lon="17.902654452692">
        <ele>42.6</ele>
        <time>2020-06-08T13:45:32Z</time>
      </trkpt>
      <trkpt lat="59.217085234047" lon="17.902560910688">
        <ele>42.6</ele>
        <time>2020-06-08T13:45:33Z</time>
      </trkpt>
      <trkpt lat="59.21705145499" lon="17.90245764568">
        <ele>42.4</ele>
        <time>2020-06-08T13:45:34Z</time>
      </trkpt>
      <trkpt lat="59.217019017037" lon="17.90234951917">
        <ele>42.4</ele>
        <time>2020-06-08T13:45:35Z</time>
      </trkpt>
      <trkpt lat="59.21698523798" lon="17.902241979393">
        <ele>42.4</ele>
        <time>2020-06-08T13:45:36Z</time>
      </trkpt>
      <trkpt lat="59.216948776715" lon="17.902137289462">
        <ele>42.4</ele>
        <time>2020-06-08T13:45:37Z</time>
      </trkpt>
      <trkpt lat="59.216910555251" lon="17.902031509884">
        <ele>42.4</ele>
        <time>2020-06-08T13:45:38Z</time>
      </trkpt>
      <trkpt lat="59.216873842529" lon="17.901922629003">
        <ele>42.4</ele>
        <time>2020-06-08T13:45:39Z</time>
      </trkpt>
      <trkpt lat="59.216838051816" lon="17.901811065914">
        <ele>42.4</ele>
        <time>2020-06-08T13:45:40Z</time>
      </trkpt>
      <trkpt lat="59.216801339094" lon="17.901699335187">
        <ele>42.4</ele>
        <time>2020-06-08T13:45:41Z</time>
      </trkpt>
      <trkpt lat="59.216765464562" lon="17.901589029383">
        <ele>42.4</ele>
        <time>2020-06-08T13:45:42Z</time>
      </trkpt>
      <trkpt lat="59.216732691333" lon="17.90148450709">
        <ele>42.4</ele>
        <time>2020-06-08T13:45:43Z</time>
      </trkpt>
      <trkpt lat="59.216701594484" lon="17.901390797448">
        <ele>42.4</ele>
        <time>2020-06-08T13:45:44Z</time>
      </trkpt>
      <trkpt lat="59.216671252006" lon="17.901310917941">
        <ele>42.4</ele>
        <time>2020-06-08T13:45:45Z</time>
      </trkpt>
      <trkpt lat="59.216649878161" lon="17.901228523864">
        <ele>42.4</ele>
        <time>2020-06-08T13:45:46Z</time>
      </trkpt>
      <trkpt lat="59.21664996198" lon="17.90113414367">
        <ele>42.4</ele>
        <time>2020-06-08T13:45:47Z</time>
      </trkpt>
      <trkpt lat="59.216671252006" lon="17.901040853123">
        <ele>42.4</ele>
        <time>2020-06-08T13:45:48Z</time>
      </trkpt>
      <trkpt lat="59.216703689959" lon="17.900954100458">
        <ele>42.4</ele>
        <time>2020-06-08T13:45:49Z</time>
      </trkpt>
      <trkpt lat="59.216741995242" lon="17.900876484064">
        <ele>42.2</ele>
        <time>2020-06-08T13:45:50Z</time>
      </trkpt>
      <trkpt lat="59.216784575294" lon="17.900807752484">
        <ele>42.2</ele>
        <time>2020-06-08T13:45:51Z</time>
      </trkpt>
      <trkpt lat="59.216829921373" lon="17.900743882406">
        <ele>42.2</ele>
        <time>2020-06-08T13:45:52Z</time>
      </trkpt>
      <trkpt lat="59.216875351271" lon="17.90068068288">
        <ele>42.2</ele>
        <time>2020-06-08T13:45:53Z</time>
      </trkpt>
      <trkpt lat="59.216920864988" lon="17.90061446587">
        <ele>42.2</ele>
        <time>2020-06-08T13:45:54Z</time>
      </trkpt>
      <trkpt lat="59.216966630162" lon="17.90054908705">
        <ele>42.2</ele>
        <time>2020-06-08T13:45:55Z</time>
      </trkpt>
      <trkpt lat="59.217014658449" lon="17.900488066818">
        <ele>42.2</ele>
        <time>2020-06-08T13:45:56Z</time>
      </trkpt>
      <trkpt lat="59.217065285125" lon="17.900435009391">
        <ele>42.4</ele>
        <time>2020-06-08T13:45:57Z</time>
      </trkpt>
      <trkpt lat="59.217117001448" lon="17.900388573665">
        <ele>42.4</ele>
        <time>2020-06-08T13:45:58Z</time>
      </trkpt>
      <trkpt lat="59.217169891237" lon="17.900347250898">
        <ele>42.2</ele>
        <time>2020-06-08T13:45:59Z</time>
      </trkpt>
      <trkpt lat="59.217223786854" lon="17.900307772149">
        <ele>42.6</ele>
        <time>2020-06-08T13:46:00Z</time>
      </trkpt>
      <trkpt lat="59.2172769281" lon="17.900267036115">
        <ele>42.4</ele>
        <time>2020-06-08T13:46:01Z</time>
      </trkpt>
      <trkpt lat="59.217329650251" lon="17.900225378072">
        <ele>42.4</ele>
        <time>2020-06-08T13:46:02Z</time>
      </trkpt>
      <trkpt lat="59.217382623859" lon="17.900186905151">
        <ele>42.4</ele>
        <time>2020-06-08T13:46:03Z</time>
      </trkpt>
      <trkpt lat="59.217436268019" lon="17.900151114438">
        <ele>42.4</ele>
        <time>2020-06-08T13:46:04Z</time>
      </trkpt>
      <trkpt lat="59.217490918007" lon="17.90011825739">
        <ele>42.6</ele>
        <time>2020-06-08T13:46:05Z</time>
      </trkpt>
      <trkpt lat="59.217546070909" lon="17.900088166369">
        <ele>42.6</ele>
        <time>2020-06-08T13:46:06Z</time>
      </trkpt>
      <trkpt lat="59.217601726725" lon="17.90005120219">
        <ele>42.6</ele>
        <time>2020-06-08T13:46:07Z</time>
      </trkpt>
      <trkpt lat="59.217656209075" lon="17.90000510174">
        <ele>42.8</ele>
        <time>2020-06-08T13:46:08Z</time>
      </trkpt>
      <trkpt lat="59.21771027233" lon="17.899956235263">
        <ele>42.8</ele>
        <time>2020-06-08T13:46:09Z</time>
      </trkpt>
      <trkpt lat="59.21776475468" lon="17.89991122446">
        <ele>42.8</ele>
        <time>2020-06-08T13:46:10Z</time>
      </trkpt>
      <trkpt lat="59.217820242858" lon="17.899871494254">
        <ele>43</ele>
        <time>2020-06-08T13:46:11Z</time>
      </trkpt>
      <trkpt lat="59.217876736864" lon="17.899831428772">
        <ele>43</ele>
        <time>2020-06-08T13:46:12Z</time>
      </trkpt>
      <trkpt lat="59.217934655793" lon="17.899791782385">
        <ele>43</ele>
        <time>2020-06-08T13:46:13Z</time>
      </trkpt>
      <trkpt lat="59.217993748188" lon="17.899751381627">
        <ele>43.2</ele>
        <time>2020-06-08T13:46:14Z</time>
      </trkpt>
      <trkpt lat="59.218053511135" lon="17.899709053032">
        <ele>43.2</ele>
        <time>2020-06-08T13:46:15Z</time>
      </trkpt>
      <trkpt lat="59.218115285738" lon="17.899668736093">
        <ele>43.2</ele>
        <time>2020-06-08T13:46:16Z</time>
      </trkpt>
      <trkpt lat="59.218177479436" lon="17.899629844077">
        <ele>43.2</ele>
        <time>2020-06-08T13:46:17Z</time>
      </trkpt>
      <trkpt lat="59.2182408466" lon="17.899593215174">
        <ele>43.2</ele>
        <time>2020-06-08T13:46:18Z</time>
      </trkpt>
      <trkpt lat="59.218305303411" lon="17.899559687574">
        <ele>43.2</ele>
        <time>2020-06-08T13:46:19Z</time>
      </trkpt>
      <trkpt lat="59.218371185145" lon="17.899532865494">
        <ele>43.2</ele>
        <time>2020-06-08T13:46:20Z</time>
      </trkpt>
      <trkpt lat="59.218438743259" lon="17.899516353151">
        <ele>43.2</ele>
        <time>2020-06-08T13:46:21Z</time>
      </trkpt>
      <trkpt lat="59.218504289717" lon="17.899498499704">
        <ele>43.2</ele>
        <time>2020-06-08T13:46:22Z</time>
      </trkpt>
      <trkpt lat="59.218570003813" lon="17.899494727849">
        <ele>43.2</ele>
        <time>2020-06-08T13:46:23Z</time>
      </trkpt>
      <trkpt lat="59.218635717909" lon="17.899501768645">
        <ele>43.2</ele>
        <time>2020-06-08T13:46:24Z</time>
      </trkpt>
      <trkpt lat="59.218699168892" lon="17.899518364807">
        <ele>43.2</ele>
        <time>2020-06-08T13:46:25Z</time>
      </trkpt>
      <trkpt lat="59.218758345106" lon="17.899546276534">
        <ele>43.2</ele>
        <time>2020-06-08T13:46:26Z</time>
      </trkpt>
      <trkpt lat="59.218817269863" lon="17.899586258197">
        <ele>43.2</ele>
        <time>2020-06-08T13:46:27Z</time>
      </trkpt>
      <trkpt lat="59.21887535643" lon="17.899622803281">
        <ele>43.2</ele>
        <time>2020-06-08T13:46:28Z</time>
      </trkpt>
      <trkpt lat="59.218932437169" lon="17.899648619533">
        <ele>43.2</ele>
        <time>2020-06-08T13:46:29Z</time>
      </trkpt>
      <trkpt lat="59.218990104641" lon="17.899659599822">
        <ele>43.2</ele>
        <time>2020-06-08T13:46:30Z</time>
      </trkpt>
      <trkpt lat="59.219046011914" lon="17.899640321452">
        <ele>43.2</ele>
        <time>2020-06-08T13:46:31Z</time>
      </trkpt>
      <trkpt lat="59.219092866735" lon="17.899584581817">
        <ele>43.2</ele>
        <time>2020-06-08T13:46:32Z</time>
      </trkpt>
      <trkpt lat="59.219132932217" lon="17.899509647631">
        <ele>43.2</ele>
        <time>2020-06-08T13:46:33Z</time>
      </trkpt>
      <trkpt lat="59.219166878912" lon="17.899415183618">
        <ele>43.2</ele>
        <time>2020-06-08T13:46:34Z</time>
      </trkpt>
      <trkpt lat="59.219196550838" lon="17.899307308565">
        <ele>43.4</ele>
        <time>2020-06-08T13:46:35Z</time>
      </trkpt>
      <trkpt lat="59.219225216936" lon="17.899191638345">
        <ele>43.4</ele>
        <time>2020-06-08T13:46:36Z</time>
      </trkpt>
      <trkpt lat="59.219254805043" lon="17.899072699184">
        <ele>43.4</ele>
        <time>2020-06-08T13:46:37Z</time>
      </trkpt>
      <trkpt lat="59.219284979883" lon="17.898950407263">
        <ele>43.4</ele>
        <time>2020-06-08T13:46:38Z</time>
      </trkpt>
      <trkpt lat="59.219314903266" lon="17.898825349315">
        <ele>43.4</ele>
        <time>2020-06-08T13:46:39Z</time>
      </trkpt>
      <trkpt lat="59.219345916296" lon="17.898698531168">
        <ele>43.4</ele>
        <time>2020-06-08T13:46:40Z</time>
      </trkpt>
      <trkpt lat="59.219379360077" lon="17.898572802668">
        <ele>43.4</ele>
        <time>2020-06-08T13:46:41Z</time>
      </trkpt>
      <trkpt lat="59.219415737523" lon="17.898448247634">
        <ele>43.4</ele>
        <time>2020-06-08T13:46:42Z</time>
      </trkpt>
      <trkpt lat="59.219452282607" lon="17.898323273505">
        <ele>43.4</ele>
        <time>2020-06-08T13:46:43Z</time>
      </trkpt>
      <trkpt lat="59.219489330605" lon="17.898197293548">
        <ele>43.2</ele>
        <time>2020-06-08T13:46:44Z</time>
      </trkpt>
      <trkpt lat="59.219526546241" lon="17.898069134297">
        <ele>43.2</ele>
        <time>2020-06-08T13:46:45Z</time>
      </trkpt>
      <trkpt lat="59.219563426601" lon="17.897939214847">
        <ele>43.4</ele>
        <time>2020-06-08T13:46:46Z</time>
      </trkpt>
      <trkpt lat="59.219598798219" lon="17.897808792483">
        <ele>43.2</ele>
        <time>2020-06-08T13:46:47Z</time>
      </trkpt>
      <trkpt lat="59.219632996371" lon="17.897677280472">
        <ele>43.2</ele>
        <time>2020-06-08T13:46:48Z</time>
      </trkpt>
      <trkpt lat="59.219666021057" lon="17.897545265547">
        <ele>43</ele>
        <time>2020-06-08T13:46:49Z</time>
      </trkpt>
      <trkpt lat="59.219700470666" lon="17.89741593283">
        <ele>43</ele>
        <time>2020-06-08T13:46:50Z</time>
      </trkpt>
      <trkpt lat="59.219737770121" lon="17.897289533778">
        <ele>43</ele>
        <time>2020-06-08T13:46:51Z</time>
      </trkpt>
      <trkpt lat="59.219776159223" lon="17.897164056735">
        <ele>43</ele>
        <time>2020-06-08T13:46:52Z</time>
      </trkpt>
      <trkpt lat="59.219813039583" lon="17.897039753158">
        <ele>43</ele>
        <time>2020-06-08T13:46:53Z</time>
      </trkpt>
      <trkpt lat="59.2198501714" lon="17.896916623047">
        <ele>43</ele>
        <time>2020-06-08T13:46:54Z</time>
      </trkpt>
      <trkpt lat="59.219886884122" lon="17.896793073841">
        <ele>43</ele>
        <time>2020-06-08T13:46:55Z</time>
      </trkpt>
      <trkpt lat="59.219920830817" lon="17.896668015893">
        <ele>43</ele>
        <time>2020-06-08T13:46:56Z</time>
      </trkpt>
      <trkpt lat="59.219952682037" lon="17.896540359556">
        <ele>43</ele>
        <time>2020-06-08T13:46:57Z</time>
      </trkpt>
      <trkpt lat="59.219983695067" lon="17.896410691563">
        <ele>43</ele>
        <time>2020-06-08T13:46:58Z</time>
      </trkpt>
      <trkpt lat="59.220014205183" lon="17.896280772113">
        <ele>43</ele>
        <time>2020-06-08T13:46:59Z</time>
      </trkpt>
      <trkpt lat="59.220043709471" lon="17.896148338093">
        <ele>43</ele>
        <time>2020-06-08T13:47:00Z</time>
      </trkpt>
      <trkpt lat="59.220072543207" lon="17.896014395331">
        <ele>43</ele>
        <time>2020-06-08T13:47:01Z</time>
      </trkpt>
      <trkpt lat="59.220099700563" lon="17.895878105637">
        <ele>43.2</ele>
        <time>2020-06-08T13:47:02Z</time>
      </trkpt>
      <trkpt lat="59.220126019729" lon="17.895740810115">
        <ele>43.2</ele>
        <time>2020-06-08T13:47:03Z</time>
      </trkpt>
      <trkpt lat="59.220152087438" lon="17.895602257308">
        <ele>43.2</ele>
        <time>2020-06-08T13:47:04Z</time>
      </trkpt>
      <trkpt lat="59.220181507907" lon="17.895467224899">
        <ele>43.2</ele>
        <time>2020-06-08T13:47:05Z</time>
      </trkpt>
      <trkpt lat="59.220221657208" lon="17.89534392715">
        <ele>43.2</ele>
        <time>2020-06-08T13:47:06Z</time>
      </trkpt>
      <trkpt lat="59.220276055739" lon="17.895246780929">
        <ele>43.2</ele>
        <time>2020-06-08T13:47:07Z</time>
      </trkpt>
      <trkpt lat="59.220342691844" lon="17.895182827032">
        <ele>43.2</ele>
        <time>2020-06-08T13:47:08Z</time>
      </trkpt>
      <trkpt lat="59.220413602718" lon="17.895135972211">
        <ele>43.2</ele>
        <time>2020-06-08T13:47:09Z</time>
      </trkpt>
      <trkpt lat="59.220483926859" lon="17.895084255888">
        <ele>43.2</ele>
        <time>2020-06-08T13:47:10Z</time>
      </trkpt>
      <trkpt lat="59.220552826077" lon="17.895020553448">
        <ele>43.2</ele>
        <time>2020-06-08T13:47:11Z</time>
      </trkpt>
      <trkpt lat="59.220621473838" lon="17.894950732221">
        <ele>43.2</ele>
        <time>2020-06-08T13:47:12Z</time>
      </trkpt>
      <trkpt lat="59.220689786323" lon="17.894876468587">
        <ele>43</ele>
        <time>2020-06-08T13:47:13Z</time>
      </trkpt>
      <trkpt lat="59.220759523731" lon="17.894805557713">
        <ele>43.2</ele>
        <time>2020-06-08T13:47:14Z</time>
      </trkpt>
      <trkpt lat="59.220829596415" lon="17.894737161409">
        <ele>43.2</ele>
        <time>2020-06-08T13:47:15Z</time>
      </trkpt>
      <trkpt lat="59.220896819253" lon="17.894667340182">
        <ele>43</ele>
        <time>2020-06-08T13:47:16Z</time>
      </trkpt>
      <trkpt lat="59.220961192245" lon="17.894598273326">
        <ele>43</ele>
        <time>2020-06-08T13:47:17Z</time>
      </trkpt>
      <trkpt lat="59.221023218305" lon="17.894528787375">
        <ele>43</ele>
        <time>2020-06-08T13:47:18Z</time>
      </trkpt>
      <trkpt lat="59.221081053415" lon="17.894452763542">
        <ele>43</ele>
        <time>2020-06-08T13:47:19Z</time>
      </trkpt>
      <trkpt lat="59.221133607928" lon="17.894363747764">
        <ele>43</ele>
        <time>2020-06-08T13:47:20Z</time>
      </trkpt>
      <trkpt lat="59.22117954074" lon="17.894264841344">
        <ele>43</ele>
        <time>2020-06-08T13:47:21Z</time>
      </trkpt>
      <trkpt lat="59.221217929842" lon="17.89415537373">
        <ele>43</ele>
        <time>2020-06-08T13:47:22Z</time>
      </trkpt>
      <trkpt lat="59.221248859053" lon="17.89404305627">
        <ele>43</ele>
        <time>2020-06-08T13:47:23Z</time>
      </trkpt>
      <trkpt lat="59.221277441332" lon="17.893933756294">
        <ele>43</ele>
        <time>2020-06-08T13:47:24Z</time>
      </trkpt>
      <trkpt lat="59.221307280896" lon="17.893827473802">
        <ele>43.2</ele>
        <time>2020-06-08T13:47:25Z</time>
      </trkpt>
      <trkpt lat="59.221338210107" lon="17.89372370588">
        <ele>43.2</ele>
        <time>2020-06-08T13:47:26Z</time>
      </trkpt>
      <trkpt lat="59.221367965852" lon="17.893619351225">
        <ele>43.4</ele>
        <time>2020-06-08T13:47:27Z</time>
      </trkpt>
      <trkpt lat="59.22139914652" lon="17.89351667295">
        <ele>43.6</ele>
        <time>2020-06-08T13:47:28Z</time>
      </trkpt>
      <trkpt lat="59.221435272509" lon="17.893421286928">
        <ele>43.6</ele>
        <time>2020-06-08T13:47:29Z</time>
      </trkpt>
      <trkpt lat="59.221475840905" lon="17.89333394753">
        <ele>43.8</ele>
        <time>2020-06-08T13:47:30Z</time>
      </trkpt>
      <trkpt lat="59.221519426785" lon="17.893256498774">
        <ele>44</ele>
        <time>2020-06-08T13:47:31Z</time>
      </trkpt>
      <trkpt lat="59.221565778692" lon="17.893191203773">
        <ele>44</ele>
        <time>2020-06-08T13:47:32Z</time>
      </trkpt>
      <trkpt lat="59.221613890798" lon="17.893137475794">
        <ele>44</ele>
        <time>2020-06-08T13:47:33Z</time>
      </trkpt>
      <trkpt lat="59.221662673456" lon="17.89309087243">
        <ele>44.2</ele>
        <time>2020-06-08T13:47:34Z</time>
      </trkpt>
      <trkpt lat="59.221712378123" lon="17.893046867455">
        <ele>44.4</ele>
        <time>2020-06-08T13:47:35Z</time>
      </trkpt>
      <trkpt lat="59.221763423894" lon="17.893009735638">
        <ele>44.6</ele>
        <time>2020-06-08T13:47:36Z</time>
      </trkpt>
      <trkpt lat="59.221815475493" lon="17.892973693468">
        <ele>44.6</ele>
        <time>2020-06-08T13:47:37Z</time>
      </trkpt>
      <trkpt lat="59.221868113825" lon="17.892933879443">
        <ele>44.8</ele>
        <time>2020-06-08T13:47:38Z</time>
      </trkpt>
      <trkpt lat="59.221920249243" lon="17.89289138321">
        <ele>44.8</ele>
        <time>2020-06-08T13:47:39Z</time>
      </trkpt>
      <trkpt lat="59.221971378833" lon="17.892847210597">
        <ele>45</ele>
        <time>2020-06-08T13:47:40Z</time>
      </trkpt>
      <trkpt lat="59.222021251138" lon="17.892797003016">
        <ele>45.2</ele>
        <time>2020-06-08T13:47:41Z</time>
      </trkpt>
      <trkpt lat="59.222066597217" lon="17.892732294748">
        <ele>45.4</ele>
        <time>2020-06-08T13:47:42Z</time>
      </trkpt>
      <trkpt lat="59.22210574069" lon="17.89265249906">
        <ele>45.8</ele>
        <time>2020-06-08T13:47:43Z</time>
      </trkpt>
      <trkpt lat="59.222141028489" lon="17.892568177146">
        <ele>46</ele>
        <time>2020-06-08T13:47:44Z</time>
      </trkpt>
      <trkpt lat="59.22217531046" lon="17.89248067011">
        <ele>46.2</ele>
        <time>2020-06-08T13:47:45Z</time>
      </trkpt>
      <trkpt lat="59.222212945191" lon="17.892394420359">
        <ele>46.4</ele>
        <time>2020-06-08T13:47:46Z</time>
      </trkpt>
      <trkpt lat="59.222251418112" lon="17.892309846988">
        <ele>46.4</ele>
        <time>2020-06-08T13:47:47Z</time>
      </trkpt>
      <trkpt lat="59.222292070327" lon="17.892225357436">
        <ele>46.6</ele>
        <time>2020-06-08T13:47:48Z</time>
      </trkpt>
      <trkpt lat="59.222329621239" lon="17.892135000554">
        <ele>46.6</ele>
        <time>2020-06-08T13:47:49Z</time>
      </trkpt>
      <trkpt lat="59.222366585418" lon="17.892044140758">
        <ele>46.6</ele>
        <time>2020-06-08T13:47:50Z</time>
      </trkpt>
      <trkpt lat="59.222405980348" lon="17.891953867695">
        <ele>46.6</ele>
        <time>2020-06-08T13:47:51Z</time>
      </trkpt>
      <trkpt lat="59.222441519604" lon="17.891861918252">
        <ele>46.8</ele>
        <time>2020-06-08T13:47:52Z</time>
      </trkpt>
      <trkpt lat="59.222478316145" lon="17.891768795343">
        <ele>47</ele>
        <time>2020-06-08T13:47:53Z</time>
      </trkpt>
      <trkpt lat="59.222513855401" lon="17.891677097357">
        <ele>47.2</ele>
        <time>2020-06-08T13:47:54Z</time>
      </trkpt>
      <trkpt lat="59.222550065209" lon="17.891585399371">
        <ele>47.2</ele>
        <time>2020-06-08T13:47:55Z</time>
      </trkpt>
      <trkpt lat="59.222583006076" lon="17.891489761892">
        <ele>47.4</ele>
        <time>2020-06-08T13:47:56Z</time>
      </trkpt>
      <trkpt lat="59.222613935287" lon="17.8913918613">
        <ele>47.4</ele>
        <time>2020-06-08T13:47:57Z</time>
      </trkpt>
      <trkpt lat="59.222642936661" lon="17.891293038699">
        <ele>47.4</ele>
        <time>2020-06-08T13:47:58Z</time>
      </trkpt>
      <trkpt lat="59.222668585275" lon="17.891193629365">
        <ele>47.4</ele>
        <time>2020-06-08T13:47:59Z</time>
      </trkpt>
      <trkpt lat="59.222690881129" lon="17.891094136212">
        <ele>47.4</ele>
        <time>2020-06-08T13:48:00Z</time>
      </trkpt>
      <trkpt lat="59.222712003517" lon="17.890992463765">
        <ele>47.4</ele>
        <time>2020-06-08T13:48:01Z</time>
      </trkpt>
      <trkpt lat="59.222733209724" lon="17.890889953128">
        <ele>47.6</ele>
        <time>2020-06-08T13:48:02Z</time>
      </trkpt>
      <trkpt lat="59.222754751207" lon="17.890788280681">
        <ele>47.6</ele>
        <time>2020-06-08T13:48:03Z</time>
      </trkpt>
      <trkpt lat="59.222774532491" lon="17.890684848035">
        <ele>47.6</ele>
        <time>2020-06-08T13:48:04Z</time>
      </trkpt>
      <trkpt lat="59.222790374282" lon="17.890576050973">
        <ele>47.6</ele>
        <time>2020-06-08T13:48:05Z</time>
      </trkpt>
      <trkpt lat="59.222803450046" lon="17.890464571703">
        <ele>47.6</ele>
        <time>2020-06-08T13:48:06Z</time>
      </trkpt>
      <trkpt lat="59.222816190534" lon="17.890352002786">
        <ele>47.8</ele>
        <time>2020-06-08T13:48:07Z</time>
      </trkpt>
      <trkpt lat="59.22282993685" lon="17.890239601507">
        <ele>47.8</ele>
        <time>2020-06-08T13:48:08Z</time>
      </trkpt>
      <trkpt lat="59.2228425097" lon="17.890128038418">
        <ele>48</ele>
        <time>2020-06-08T13:48:09Z</time>
      </trkpt>
      <trkpt lat="59.222853741446" lon="17.890019660451">
        <ele>48</ele>
        <time>2020-06-08T13:48:10Z</time>
      </trkpt>
      <trkpt lat="59.222862207165" lon="17.889910192837">
        <ele>48</ele>
        <time>2020-06-08T13:48:11Z</time>
      </trkpt>
      <trkpt lat="59.222869667056" lon="17.88980013849">
        <ele>48</ele>
        <time>2020-06-08T13:48:12Z</time>
      </trkpt>
      <trkpt lat="59.222878132775" lon="17.889690419419">
        <ele>48</ele>
        <time>2020-06-08T13:48:13Z</time>
      </trkpt>
      <trkpt lat="59.222884335381" lon="17.889578688692">
        <ele>48</ele>
        <time>2020-06-08T13:48:14Z</time>
      </trkpt>
      <trkpt lat="59.222886430856" lon="17.889467460879">
        <ele>48</ele>
        <time>2020-06-08T13:48:15Z</time>
      </trkpt>
      <trkpt lat="59.222887436684" lon="17.8893550596">
        <ele>48</ele>
        <time>2020-06-08T13:48:16Z</time>
      </trkpt>
      <trkpt lat="59.222889364521" lon="17.889242239226">
        <ele>48</ele>
        <time>2020-06-08T13:48:17Z</time>
      </trkpt>
      <trkpt lat="59.222891795272" lon="17.889133861259">
        <ele>48</ele>
        <time>2020-06-08T13:48:18Z</time>
      </trkpt>
      <trkpt lat="59.222892382005" lon="17.889029758061">
        <ele>48.2</ele>
        <time>2020-06-08T13:48:19Z</time>
      </trkpt>
      <trkpt lat="59.222893052557" lon="17.888927917976">
        <ele>48.2</ele>
        <time>2020-06-08T13:48:20Z</time>
      </trkpt>
      <trkpt lat="59.222895148032" lon="17.888828424823">
        <ele>48.2</ele>
        <time>2020-06-08T13:48:21Z</time>
      </trkpt>
      <trkpt lat="59.222896405317" lon="17.888731194783">
        <ele>48.2</ele>
        <time>2020-06-08T13:48:22Z</time>
      </trkpt>
      <trkpt lat="59.222896489136" lon="17.888635641123">
        <ele>48.2</ele>
        <time>2020-06-08T13:48:23Z</time>
      </trkpt>
      <trkpt lat="59.222896070041" lon="17.88854285349">
        <ele>48.4</ele>
        <time>2020-06-08T13:48:24Z</time>
      </trkpt>
      <trkpt lat="59.222894645118" lon="17.888448808572">
        <ele>48.4</ele>
        <time>2020-06-08T13:48:25Z</time>
      </trkpt>
      <trkpt lat="59.222892298186" lon="17.888351829989">
        <ele>48.4</ele>
        <time>2020-06-08T13:48:26Z</time>
      </trkpt>
      <trkpt lat="59.222891459996" lon="17.888257114519">
        <ele>48.6</ele>
        <time>2020-06-08T13:48:27Z</time>
      </trkpt>
      <trkpt lat="59.222890118892" lon="17.888157202271">
        <ele>48.8</ele>
        <time>2020-06-08T13:48:28Z</time>
      </trkpt>
      <trkpt lat="59.222887939598" lon="17.888055781281">
        <ele>49</ele>
        <time>2020-06-08T13:48:29Z</time>
      </trkpt>
      <trkpt lat="59.222885508847" lon="17.887954108834">
        <ele>49.2</ele>
        <time>2020-06-08T13:48:30Z</time>
      </trkpt>
      <trkpt lat="59.22288358101" lon="17.887852436387">
        <ele>49.6</ele>
        <time>2020-06-08T13:48:31Z</time>
      </trkpt>
      <trkpt lat="59.222880563526" lon="17.887753194691">
        <ele>49.6</ele>
        <time>2020-06-08T13:48:32Z</time>
      </trkpt>
      <trkpt lat="59.222874528558" lon="17.887652611891">
        <ele>49.8</ele>
        <time>2020-06-08T13:48:33Z</time>
      </trkpt>
      <trkpt lat="59.22286597902" lon="17.88754959834">
        <ele>50</ele>
        <time>2020-06-08T13:48:34Z</time>
      </trkpt>
      <trkpt lat="59.222857848577" lon="17.887444321676">
        <ele>50.2</ele>
        <time>2020-06-08T13:48:35Z</time>
      </trkpt>
      <trkpt lat="59.22285172979" lon="17.887335356976">
        <ele>50.4</ele>
        <time>2020-06-08T13:48:36Z</time>
      </trkpt>
      <trkpt lat="59.222847035926" lon="17.887222871878">
        <ele>50.4</ele>
        <time>2020-06-08T13:48:37Z</time>
      </trkpt>
      <trkpt lat="59.222841587691" lon="17.887108458943">
        <ele>50.4</ele>
        <time>2020-06-08T13:48:38Z</time>
      </trkpt>
      <trkpt lat="59.222834379257" lon="17.886992369628">
        <ele>50.4</ele>
        <time>2020-06-08T13:48:39Z</time>
      </trkpt>
      <trkpt lat="59.222825494443" lon="17.886877872874">
        <ele>50.4</ele>
        <time>2020-06-08T13:48:40Z</time>
      </trkpt>
      <trkpt lat="59.222813508326" lon="17.886761867378">
        <ele>50.4</ele>
        <time>2020-06-08T13:48:41Z</time>
      </trkpt>
      <trkpt lat="59.222801103114" lon="17.88664519133">
        <ele>50.4</ele>
        <time>2020-06-08T13:48:42Z</time>
      </trkpt>
      <trkpt lat="59.222790039006" lon="17.886525413979">
        <ele>50.4</ele>
        <time>2020-06-08T13:48:43Z</time>
      </trkpt>
      <trkpt lat="59.222781573287" lon="17.886403122058">
        <ele>50.4</ele>
        <time>2020-06-08T13:48:44Z</time>
      </trkpt>
      <trkpt lat="59.222774867767" lon="17.886279321395">
        <ele>50.4</ele>
        <time>2020-06-08T13:48:45Z</time>
      </trkpt>
      <trkpt lat="59.222768916618" lon="17.886150575411">
        <ele>50.2</ele>
        <time>2020-06-08T13:48:46Z</time>
      </trkpt>
      <trkpt lat="59.222763887478" lon="17.886014788631">
        <ele>49.8</ele>
        <time>2020-06-08T13:48:47Z</time>
      </trkpt>
      <trkpt lat="59.222760702356" lon="17.885873637435">
        <ele>49.6</ele>
        <time>2020-06-08T13:48:48Z</time>
      </trkpt>
      <trkpt lat="59.222756259949" lon="17.885725361624">
        <ele>49.2</ele>
        <time>2020-06-08T13:48:49Z</time>
      </trkpt>
      <trkpt lat="59.2227503088" lon="17.885574235967">
        <ele>48.6</ele>
        <time>2020-06-08T13:48:50Z</time>
      </trkpt>
      <trkpt lat="59.22274360328" lon="17.885421936844">
        <ele>48.4</ele>
        <time>2020-06-08T13:48:51Z</time>
      </trkpt>
      <trkpt lat="59.222736394846" lon="17.885271565558">
        <ele>48.2</ele>
        <time>2020-06-08T13:48:52Z</time>
      </trkpt>
      <trkpt lat="59.222731952439" lon="17.885126474869">
        <ele>48.2</ele>
        <time>2020-06-08T13:48:53Z</time>
      </trkpt>
      <trkpt lat="59.222728767317" lon="17.884993286478">
        <ele>47.8</ele>
        <time>2020-06-08T13:48:54Z</time>
      </trkpt>
      <trkpt lat="59.222726504204" lon="17.884875269326">
        <ele>47.6</ele>
        <time>2020-06-08T13:48:55Z</time>
      </trkpt>
      <trkpt lat="59.222727510032" lon="17.884767729549">
        <ele>46.8</ele>
        <time>2020-06-08T13:48:56Z</time>
      </trkpt>
      <trkpt lat="59.222729437869" lon="17.884681228341">
        <ele>46</ele>
        <time>2020-06-08T13:48:57Z</time>
      </trkpt>
      <trkpt lat="59.222734634647" lon="17.884604114861">
        <ele>45.6</ele>
        <time>2020-06-08T13:48:58Z</time>
      </trkpt>
      <trkpt lat="59.2227503088" lon="17.884535886195">
        <ele>45</ele>
        <time>2020-06-08T13:48:59Z</time>
      </trkpt>
      <trkpt lat="59.222781489468" lon="17.884475033601">
        <ele>44.4</ele>
        <time>2020-06-08T13:49:00Z</time>
      </trkpt>
      <trkpt lat="59.222821890226" lon="17.88441225317">
        <ele>44.2</ele>
        <time>2020-06-08T13:49:01Z</time>
      </trkpt>
      <trkpt lat="59.222869834694" lon="17.884340504106">
        <ele>44</ele>
        <time>2020-06-08T13:49:02Z</time>
      </trkpt>
      <trkpt lat="59.222925239053" lon="17.884275292924">
        <ele>43.8</ele>
        <time>2020-06-08T13:49:03Z</time>
      </trkpt>
      <trkpt lat="59.222984750543" lon="17.884212009579">
        <ele>43.6</ele>
        <time>2020-06-08T13:49:04Z</time>
      </trkpt>
      <trkpt lat="59.223044178214" lon="17.884161885817">
        <ele>43.4</ele>
        <time>2020-06-08T13:49:05Z</time>
      </trkpt>
      <trkpt lat="59.223102516238" lon="17.884118635213">
        <ele>43.2</ele>
        <time>2020-06-08T13:49:06Z</time>
      </trkpt>
      <trkpt lat="59.223161273357" lon="17.884081922491">
        <ele>43.2</ele>
        <time>2020-06-08T13:49:07Z</time>
      </trkpt>
      <trkpt lat="59.223217767363" lon="17.884051244737">
        <ele>43</ele>
        <time>2020-06-08T13:49:08Z</time>
      </trkpt>
      <trkpt lat="59.22327417755" lon="17.884026015218">
        <ele>42.8</ele>
        <time>2020-06-08T13:49:09Z</time>
      </trkpt>
      <trkpt lat="59.223330839194" lon="17.883998690224">
        <ele>42.4</ele>
        <time>2020-06-08T13:49:10Z</time>
      </trkpt>
      <trkpt lat="59.223383477526" lon="17.883971616687">
        <ele>42</ele>
        <time>2020-06-08T13:49:11Z</time>
      </trkpt>
      <trkpt lat="59.223431505813" lon="17.883944040236">
        <ele>41.6</ele>
        <time>2020-06-08T13:49:12Z</time>
      </trkpt>
      <trkpt lat="59.223473750589" lon="17.883917804889">
        <ele>41.4</ele>
        <time>2020-06-08T13:49:13Z</time>
      </trkpt>
      <trkpt lat="59.223511720596" lon="17.883892156275">
        <ele>41.4</ele>
        <time>2020-06-08T13:49:14Z</time>
      </trkpt>
      <trkpt lat="59.223546002567" lon="17.883869357507">
        <ele>41.4</ele>
        <time>2020-06-08T13:49:15Z</time>
      </trkpt>
      <trkpt lat="59.223576596502" lon="17.883853850992">
        <ele>41.4</ele>
        <time>2020-06-08T13:49:16Z</time>
      </trkpt>
      <trkpt lat="59.223601155469" lon="17.883832644785">
        <ele>41.4</ele>
        <time>2020-06-08T13:49:17Z</time>
      </trkpt>
      <trkpt lat="59.223625043884" lon="17.883809678379">
        <ele>41.4</ele>
        <time>2020-06-08T13:49:18Z</time>
      </trkpt>
      <trkpt lat="59.223645160444" lon="17.883787298706">
        <ele>41.4</ele>
        <time>2020-06-08T13:49:19Z</time>
      </trkpt>
      <trkpt lat="59.22366225952" lon="17.883764499938">
        <ele>41.8</ele>
        <time>2020-06-08T13:49:20Z</time>
      </trkpt>
      <trkpt lat="59.223676341112" lon="17.883738851324">
        <ele>42.4</ele>
        <time>2020-06-08T13:49:21Z</time>
      </trkpt>
      <trkpt lat="59.223691931446" lon="17.883720075868">
        <ele>43</ele>
        <time>2020-06-08T13:49:22Z</time>
      </trkpt>
      <trkpt lat="59.223708527608" lon="17.883697193281">
        <ele>43.6</ele>
        <time>2020-06-08T13:49:23Z</time>
      </trkpt>
      <trkpt lat="59.223724453218" lon="17.883681686766">
        <ele>44.2</ele>
        <time>2020-06-08T13:49:24Z</time>
      </trkpt>
      <trkpt lat="59.223737864258" lon="17.883654697048">
        <ele>44.8</ele>
        <time>2020-06-08T13:49:25Z</time>
      </trkpt>
      <trkpt lat="59.223751778212" lon="17.883618654878">
        <ele>45.2</ele>
        <time>2020-06-08T13:49:26Z</time>
      </trkpt>
      <trkpt lat="59.223767368546" lon="17.883582025975">
        <ele>45.8</ele>
        <time>2020-06-08T13:49:27Z</time>
      </trkpt>
      <trkpt lat="59.22378212069" lon="17.883549839479">
        <ele>46.2</ele>
        <time>2020-06-08T13:49:28Z</time>
      </trkpt>
      <trkpt lat="59.223796034644" lon="17.883514384042">
        <ele>46.8</ele>
        <time>2020-06-08T13:49:29Z</time>
      </trkpt>
      <trkpt lat="59.223810535331" lon="17.883480856442">
        <ele>47.2</ele>
        <time>2020-06-08T13:49:30Z</time>
      </trkpt>
      <trkpt lat="59.223827550588" lon="17.883447999394">
        <ele>47.6</ele>
        <time>2020-06-08T13:49:31Z</time>
      </trkpt>
      <trkpt lat="59.223844649664" lon="17.883415812898">
        <ele>47.8</ele>
        <time>2020-06-08T13:49:32Z</time>
      </trkpt>
      <trkpt lat="59.223861245826" lon="17.883387817352">
        <ele>48.2</ele>
        <time>2020-06-08T13:49:33Z</time>
      </trkpt>
      <trkpt lat="59.22387851254" lon="17.883359235073">
        <ele>48.2</ele>
        <time>2020-06-08T13:49:34Z</time>
      </trkpt>
      <trkpt lat="59.223897036539" lon="17.883332999726">
        <ele>48.4</ele>
        <time>2020-06-08T13:49:35Z</time>
      </trkpt>
      <trkpt lat="59.223914303253" lon="17.883306848198">
        <ele>48.8</ele>
        <time>2020-06-08T13:49:36Z</time>
      </trkpt>
      <trkpt lat="59.223932491976" lon="17.883286061086">
        <ele>49</ele>
        <time>2020-06-08T13:49:37Z</time>
      </trkpt>
      <trkpt lat="59.223950429242" lon="17.883263010861">
        <ele>49.4</ele>
        <time>2020-06-08T13:49:38Z</time>
      </trkpt>
      <trkpt lat="59.223966187214" lon="17.883237529885">
        <ele>49.6</ele>
        <time>2020-06-08T13:49:39Z</time>
      </trkpt>
      <trkpt lat="59.223980687901" lon="17.88320777414">
        <ele>50</ele>
        <time>2020-06-08T13:49:40Z</time>
      </trkpt>
      <trkpt lat="59.223992087285" lon="17.883173911264">
        <ele>50.2</ele>
        <time>2020-06-08T13:49:41Z</time>
      </trkpt>
      <trkpt lat="59.224006252696" lon="17.883142730596">
        <ele>50.6</ele>
        <time>2020-06-08T13:49:42Z</time>
      </trkpt>
      <trkpt lat="59.224021507754" lon="17.88311138229">
        <ele>51</ele>
        <time>2020-06-08T13:49:43Z</time>
      </trkpt>
      <trkpt lat="59.224035924622" lon="17.883080117803">
        <ele>51.4</ele>
        <time>2020-06-08T13:49:44Z</time>
      </trkpt>
      <trkpt lat="59.224049251843" lon="17.883049775325">
        <ele>51.8</ele>
        <time>2020-06-08T13:49:45Z</time>
      </trkpt>
      <trkpt lat="59.224061070322" lon="17.88301666682">
        <ele>52.4</ele>
        <time>2020-06-08T13:49:46Z</time>
      </trkpt>
      <trkpt lat="59.224073894629" lon="17.882984480324">
        <ele>52.8</ele>
        <time>2020-06-08T13:49:47Z</time>
      </trkpt>
      <trkpt lat="59.224087054212" lon="17.882948941068">
        <ele>53</ele>
        <time>2020-06-08T13:49:48Z</time>
      </trkpt>
      <trkpt lat="59.22409811832" lon="17.882917089848">
        <ele>53.8</ele>
        <time>2020-06-08T13:49:49Z</time>
      </trkpt>
      <trkpt lat="59.224110188256" lon="17.882887334103">
        <ele>54</ele>
        <time>2020-06-08T13:49:50Z</time>
      </trkpt>
      <trkpt lat="59.224124018391" lon="17.882852716856">
        <ele>54.4</ele>
        <time>2020-06-08T13:49:51Z</time>
      </trkpt>
      <trkpt lat="59.224140949829" lon="17.882822122921">
        <ele>54.8</ele>
        <time>2020-06-08T13:49:52Z</time>
      </trkpt>
      <trkpt lat="59.224157881267" lon="17.882789852606">
        <ele>55.2</ele>
        <time>2020-06-08T13:49:53Z</time>
      </trkpt>
      <trkpt lat="59.224176824361" lon="17.882759174852">
        <ele>55.8</ele>
        <time>2020-06-08T13:49:54Z</time>
      </trkpt>
      <trkpt lat="59.224196102731" lon="17.882724725243">
        <ele>56.2</ele>
        <time>2020-06-08T13:49:55Z</time>
      </trkpt>
      <trkpt lat="59.224215213463" lon="17.882696562059">
        <ele>56.8</ele>
        <time>2020-06-08T13:49:56Z</time>
      </trkpt>
      <trkpt lat="59.224237509317" lon="17.882667393047">
        <ele>57.2</ele>
        <time>2020-06-08T13:49:57Z</time>
      </trkpt>
      <trkpt lat="59.224260475723" lon="17.882630009773">
        <ele>57.8</ele>
        <time>2020-06-08T13:49:58Z</time>
      </trkpt>
      <trkpt lat="59.224282855396" lon="17.882591453033">
        <ele>58</ele>
        <time>2020-06-08T13:49:59Z</time>
      </trkpt>
      <trkpt lat="59.224303642508" lon="17.882554740311">
        <ele>58.2</ele>
        <time>2020-06-08T13:50:00Z</time>
      </trkpt>
      <trkpt lat="59.224321328317" lon="17.882510567698">
        <ele>58.6</ele>
        <time>2020-06-08T13:50:01Z</time>
      </trkpt>
      <trkpt lat="59.224338343574" lon="17.882461533583">
        <ele>58.8</ele>
        <time>2020-06-08T13:50:02Z</time>
      </trkpt>
      <trkpt lat="59.224359130686" lon="17.882410571631">
        <ele>59.2</ele>
        <time>2020-06-08T13:50:03Z</time>
      </trkpt>
      <trkpt lat="59.224379414884" lon="17.88235533491">
        <ele>59.4</ele>
        <time>2020-06-08T13:50:04Z</time>
      </trkpt>
      <trkpt lat="59.224402046014" lon="17.882299008542">
        <ele>59.6</ele>
        <time>2020-06-08T13:50:05Z</time>
      </trkpt>
      <trkpt lat="59.224424760963" lon="17.88224385564">
        <ele>59.8</ele>
        <time>2020-06-08T13:50:06Z</time>
      </trkpt>
      <trkpt lat="59.22444261441" lon="17.882179734105">
        <ele>59.8</ele>
        <time>2020-06-08T13:50:07Z</time>
      </trkpt>
      <trkpt lat="59.224461725142" lon="17.882116618398">
        <ele>60</ele>
        <time>2020-06-08T13:50:08Z</time>
      </trkpt>
      <trkpt lat="59.224483937177" lon="17.882044785515">
        <ele>60</ele>
        <time>2020-06-08T13:50:09Z</time>
      </trkpt>
      <trkpt lat="59.224506903583" lon="17.881974712831">
        <ele>60</ele>
        <time>2020-06-08T13:50:10Z</time>
      </trkpt>
      <trkpt lat="59.224534396215" lon="17.88188930127">
        <ele>60</ele>
        <time>2020-06-08T13:50:11Z</time>
      </trkpt>
      <trkpt lat="59.224568929643" lon="17.881800872225">
        <ele>60</ele>
        <time>2020-06-08T13:50:12Z</time>
      </trkpt>
      <trkpt lat="59.224611174419" lon="17.881722166184">
        <ele>60</ele>
        <time>2020-06-08T13:50:13Z</time>
      </trkpt>
      <trkpt lat="59.224664567122" lon="17.881653602242">
        <ele>60</ele>
        <time>2020-06-08T13:50:14Z</time>
      </trkpt>
      <trkpt lat="59.224726090268" lon="17.881598616978">
        <ele>60</ele>
        <time>2020-06-08T13:50:15Z</time>
      </trkpt>
      <trkpt lat="59.224798426065" lon="17.881552516528">
        <ele>60</ele>
        <time>2020-06-08T13:50:16Z</time>
      </trkpt>
      <trkpt lat="59.224888950585" lon="17.881514211245">
        <ele>60</ele>
        <time>2020-06-08T13:50:17Z</time>
      </trkpt>
      <trkpt lat="59.224984168969" lon="17.881477247066">
        <ele>59.8</ele>
        <time>2020-06-08T13:50:18Z</time>
      </trkpt>
      <trkpt lat="59.22508215338" lon="17.881435253747">
        <ele>59.2</ele>
        <time>2020-06-08T13:50:19Z</time>
      </trkpt>
      <trkpt lat="59.22518441256" lon="17.881388818021">
        <ele>58.4</ele>
        <time>2020-06-08T13:50:20Z</time>
      </trkpt>
      <trkpt lat="59.225292706708" lon="17.881334838585">
        <ele>57.6</ele>
        <time>2020-06-08T13:50:21Z</time>
      </trkpt>
      <trkpt lat="59.225396139354" lon="17.881281697339">
        <ele>56.8</ele>
        <time>2020-06-08T13:50:22Z</time>
      </trkpt>
      <trkpt lat="59.225500158733" lon="17.881215480329">
        <ele>56</ele>
        <time>2020-06-08T13:50:23Z</time>
      </trkpt>
      <trkpt lat="59.225597137316" lon="17.881146413473">
        <ele>54.8</ele>
        <time>2020-06-08T13:50:24Z</time>
      </trkpt>
      <trkpt lat="59.22569067932" lon="17.881077346617">
        <ele>52.8</ele>
        <time>2020-06-08T13:50:25Z</time>
      </trkpt>
      <trkpt lat="59.225781958211" lon="17.881003921173">
        <ele>51</ele>
        <time>2020-06-08T13:50:26Z</time>
      </trkpt>
      <trkpt lat="59.225876673681" lon="17.880933429394">
        <ele>49.8</ele>
        <time>2020-06-08T13:50:27Z</time>
      </trkpt>
      <trkpt lat="59.225963677803" lon="17.880851119136">
        <ele>48.8</ele>
        <time>2020-06-08T13:50:28Z</time>
      </trkpt>
      <trkpt lat="59.226043138215" lon="17.880766042851">
        <ele>47.6</ele>
        <time>2020-06-08T13:50:29Z</time>
      </trkpt>
      <trkpt lat="59.226122263351" lon="17.880680966566">
        <ele>46.6</ele>
        <time>2020-06-08T13:50:30Z</time>
      </trkpt>
      <trkpt lat="59.226192419854" lon="17.880584323259">
        <ele>46.2</ele>
        <time>2020-06-08T13:50:31Z</time>
      </trkpt>
      <trkpt lat="59.226257882493" lon="17.880494469291">
        <ele>45.8</ele>
        <time>2020-06-08T13:50:32Z</time>
      </trkpt>
      <trkpt lat="59.226316891069" lon="17.88039816126">
        <ele>45.8</ele>
        <time>2020-06-08T13:50:33Z</time>
      </trkpt>
      <trkpt lat="59.226374977636" lon="17.880304954532">
        <ele>45.6</ele>
        <time>2020-06-08T13:50:34Z</time>
      </trkpt>
      <trkpt lat="59.226430465814" lon="17.880218453324">
        <ele>45.4</ele>
        <time>2020-06-08T13:50:35Z</time>
      </trkpt>
      <trkpt lat="59.226482182137" lon="17.880140920749">
        <ele>45.4</ele>
        <time>2020-06-08T13:50:36Z</time>
      </trkpt>
      <trkpt lat="59.226540184885" lon="17.88007126716">
        <ele>45.4</ele>
        <time>2020-06-08T13:50:37Z</time>
      </trkpt>
      <trkpt lat="59.226603635868" lon="17.880007480901">
        <ele>45.4</ele>
        <time>2020-06-08T13:50:38Z</time>
      </trkpt>
      <trkpt lat="59.226666835394" lon="17.879955345483">
        <ele>45.4</ele>
        <time>2020-06-08T13:50:39Z</time>
      </trkpt>
      <trkpt lat="59.226734309689" lon="17.879913435983">
        <ele>45.4</ele>
        <time>2020-06-08T13:50:40Z</time>
      </trkpt>
      <trkpt lat="59.226804717649" lon="17.879870520655">
        <ele>45.6</ele>
        <time>2020-06-08T13:50:41Z</time>
      </trkpt>
      <trkpt lat="59.226873784505" lon="17.879822576187">
        <ele>45.6</ele>
        <time>2020-06-08T13:50:42Z</time>
      </trkpt>
      <trkpt lat="59.226942348447" lon="17.879770021674">
        <ele>45.6</ele>
        <time>2020-06-08T13:50:43Z</time>
      </trkpt>
      <trkpt lat="59.227002279032" lon="17.879707073605">
        <ele>45.6</ele>
        <time>2020-06-08T13:50:44Z</time>
      </trkpt>
      <trkpt lat="59.227063466902" lon="17.879634151075">
        <ele>45.6</ele>
        <time>2020-06-08T13:50:45Z</time>
      </trkpt>
      <trkpt lat="59.227123481306" lon="17.879557540509">
        <ele>45.8</ele>
        <time>2020-06-08T13:50:46Z</time>
      </trkpt>
      <trkpt lat="59.22718517209" lon="17.879470117292">
        <ele>45.8</ele>
        <time>2020-06-08T13:50:47Z</time>
      </trkpt>
      <trkpt lat="59.227245437951" lon="17.879377664935">
        <ele>45.8</ele>
        <time>2020-06-08T13:50:48Z</time>
      </trkpt>
      <trkpt lat="59.227301177586" lon="17.879281356904">
        <ele>45.8</ele>
        <time>2020-06-08T13:50:49Z</time>
      </trkpt>
      <trkpt lat="59.227353564461" lon="17.87917691843">
        <ele>45.8</ele>
        <time>2020-06-08T13:50:50Z</time>
      </trkpt>
      <trkpt lat="59.227406873345" lon="17.879071557947">
        <ele>45.8</ele>
        <time>2020-06-08T13:50:51Z</time>
      </trkpt>
      <trkpt lat="59.22745926022" lon="17.878961000686">
        <ele>45.6</ele>
        <time>2020-06-08T13:50:52Z</time>
      </trkpt>
      <trkpt lat="59.227515083674" lon="17.878856897488">
        <ele>45.6</ele>
        <time>2020-06-08T13:50:53Z</time>
      </trkpt>
      <trkpt lat="59.227579372847" lon="17.878757907249">
        <ele>45.6</ele>
        <time>2020-06-08T13:50:54Z</time>
      </trkpt>
      <trkpt lat="59.227641734183" lon="17.878659419924">
        <ele>45.4</ele>
        <time>2020-06-08T13:50:55Z</time>
      </trkpt>
      <trkpt lat="59.227705939537" lon="17.878577025847">
        <ele>45.2</ele>
        <time>2020-06-08T13:50:56Z</time>
      </trkpt>
      <trkpt lat="59.227776515135" lon="17.878504103317">
        <ele>45</ele>
        <time>2020-06-08T13:50:57Z</time>
      </trkpt>
      <trkpt lat="59.227849605303" lon="17.878430677873">
        <ele>44.8</ele>
        <time>2020-06-08T13:50:58Z</time>
      </trkpt>
      <trkpt lat="59.227929149534" lon="17.878343925208">
        <ele>44.6</ele>
        <time>2020-06-08T13:50:59Z</time>
      </trkpt>
      <trkpt lat="59.228014477276" lon="17.878257675457">
        <ele>44.4</ele>
        <time>2020-06-08T13:51:00Z</time>
      </trkpt>
      <trkpt lat="59.228092680403" lon="17.878182322176">
        <ele>44</ele>
        <time>2020-06-08T13:51:01Z</time>
      </trkpt>
      <trkpt lat="59.228165183838" lon="17.87810738799">
        <ele>43.6</ele>
        <time>2020-06-08T13:51:02Z</time>
      </trkpt>
      <trkpt lat="59.228235507979" lon="17.878034381641">
        <ele>43.2</ele>
        <time>2020-06-08T13:51:03Z</time>
      </trkpt>
      <trkpt lat="59.22829409746" lon="17.877942599836">
        <ele>43</ele>
        <time>2020-06-08T13:51:04Z</time>
      </trkpt>
      <trkpt lat="59.228334833494" lon="17.877846291805">
        <ele>42.4</ele>
        <time>2020-06-08T13:51:05Z</time>
      </trkpt>
      <trkpt lat="59.22836199085" lon="17.877745373729">
        <ele>41.8</ele>
        <time>2020-06-08T13:51:06Z</time>
      </trkpt>
      <trkpt lat="59.228375485709" lon="17.877622327437">
        <ele>41</ele>
        <time>2020-06-08T13:51:07Z</time>
      </trkpt>
      <trkpt lat="59.228373054958" lon="17.877479751318">
        <ele>40</ele>
        <time>2020-06-08T13:51:08Z</time>
      </trkpt>
      <trkpt lat="59.22836450542" lon="17.877349748049">
        <ele>39</ele>
        <time>2020-06-08T13:51:09Z</time>
      </trkpt>
      <trkpt lat="59.228349250362" lon="17.877224438644">
        <ele>38.6</ele>
        <time>2020-06-08T13:51:10Z</time>
      </trkpt>
      <trkpt lat="59.228333240933" lon="17.877115054849">
        <ele>38.2</ele>
        <time>2020-06-08T13:51:11Z</time>
      </trkpt>
      <trkpt lat="59.228331564553" lon="17.877021680483">
        <ele>37.6</ele>
        <time>2020-06-08T13:51:12Z</time>
      </trkpt>
      <trkpt lat="59.228342796299" lon="17.8769414657">
        <ele>36.2</ele>
        <time>2020-06-08T13:51:13Z</time>
      </trkpt>
      <trkpt lat="59.228359811556" lon="17.876893269775">
        <ele>36.2</ele>
        <time>2020-06-08T13:51:14Z</time>
      </trkpt>
      <trkpt lat="59.228375737166" lon="17.876873320853">
        <ele>35.4</ele>
        <time>2020-06-08T13:51:15Z</time>
      </trkpt>
      <trkpt lat="59.228401972513" lon="17.876872063568">
        <ele>34.2</ele>
        <time>2020-06-08T13:51:16Z</time>
      </trkpt>
      <trkpt lat="59.228454862302" lon="17.876900142933">
        <ele>33.2</ele>
        <time>2020-06-08T13:51:17Z</time>
      </trkpt>
      <trkpt lat="59.228512781231" lon="17.876919588941">
        <ele>32.4</ele>
        <time>2020-06-08T13:51:18Z</time>
      </trkpt>
      <trkpt lat="59.228577154223" lon="17.876944231727">
        <ele>31.8</ele>
        <time>2020-06-08T13:51:19Z</time>
      </trkpt>
      <trkpt lat="59.228645131432" lon="17.876971808178">
        <ele>31.4</ele>
        <time>2020-06-08T13:51:20Z</time>
      </trkpt>
      <trkpt lat="59.228714952659" lon="17.877004832864">
        <ele>31.2</ele>
        <time>2020-06-08T13:51:21Z</time>
      </trkpt>
      <trkpt lat="59.228790725035" lon="17.877033163686">
        <ele>31</ele>
        <time>2020-06-08T13:51:22Z</time>
      </trkpt>
      <trkpt lat="59.228863563746" lon="17.877057806472">
        <ele>30.2</ele>
        <time>2020-06-08T13:51:23Z</time>
      </trkpt>
      <trkpt lat="59.228938246475" lon="17.877046658545">
        <ele>29.2</ele>
        <time>2020-06-08T13:51:24Z</time>
      </trkpt>
      <trkpt lat="59.22901410267" lon="17.877009694366">
        <ele>28.2</ele>
        <time>2020-06-08T13:51:25Z</time>
      </trkpt>
      <trkpt lat="59.229102280258" lon="17.876954206188">
        <ele>27</ele>
        <time>2020-06-08T13:51:26Z</time>
      </trkpt>
      <trkpt lat="59.229185261068" lon="17.876876170699">
        <ele>26</ele>
        <time>2020-06-08T13:51:27Z</time>
      </trkpt>
      <trkpt lat="59.229257848322" lon="17.87677718046">
        <ele>24.8</ele>
        <time>2020-06-08T13:51:28Z</time>
      </trkpt>
      <trkpt lat="59.229328843015" lon="17.876669305407">
        <ele>23.6</ele>
        <time>2020-06-08T13:51:29Z</time>
      </trkpt>
      <trkpt lat="59.229398077509" lon="17.876554389558">
        <ele>22.4</ele>
        <time>2020-06-08T13:51:30Z</time>
      </trkpt>
      <trkpt lat="59.229476951188" lon="17.876439641347">
        <ele>21.4</ele>
        <time>2020-06-08T13:51:31Z</time>
      </trkpt>
      <trkpt lat="59.229559429084" lon="17.876335957244">
        <ele>20.2</ele>
        <time>2020-06-08T13:51:32Z</time>
      </trkpt>
      <trkpt lat="59.229635872012" lon="17.876244678353">
        <ele>19.2</ele>
        <time>2020-06-08T13:51:33Z</time>
      </trkpt>
      <trkpt lat="59.229705860877" lon="17.876162200457">
        <ele>18</ele>
        <time>2020-06-08T13:51:34Z</time>
      </trkpt>
      <trkpt lat="59.229764450358" lon="17.876091289583">
        <ele>17</ele>
        <time>2020-06-08T13:51:35Z</time>
      </trkpt>
      <trkpt lat="59.229811137541" lon="17.876031778093">
        <ele>16.4</ele>
        <time>2020-06-08T13:51:36Z</time>
      </trkpt>
      <trkpt lat="59.229852376489" lon="17.875979139761">
        <ele>16.2</ele>
        <time>2020-06-08T13:51:37Z</time>
      </trkpt>
      <trkpt lat="59.229897052016" lon="17.875919879728">
        <ele>15.8</ele>
        <time>2020-06-08T13:51:38Z</time>
      </trkpt>
      <trkpt lat="59.229937452774" lon="17.875854668546">
        <ele>15.4</ele>
        <time>2020-06-08T13:51:39Z</time>
      </trkpt>
      <trkpt lat="59.229978775541" lon="17.875775794867">
        <ele>15</ele>
        <time>2020-06-08T13:51:40Z</time>
      </trkpt>
      <trkpt lat="59.23001406334" lon="17.875683258691">
        <ele>14.8</ele>
        <time>2020-06-08T13:51:41Z</time>
      </trkpt>
      <trkpt lat="59.230038203212" lon="17.875571108869">
        <ele>14.4</ele>
        <time>2020-06-08T13:51:42Z</time>
      </trkpt>
      <trkpt lat="59.230043232352" lon="17.87544026741">
        <ele>14.2</ele>
        <time>2020-06-08T13:51:43Z</time>
      </trkpt>
      <trkpt lat="59.230037616479" lon="17.875326608846">
        <ele>13.8</ele>
        <time>2020-06-08T13:51:44Z</time>
      </trkpt>
      <trkpt lat="59.230033090253" lon="17.875224349666">
        <ele>13.4</ele>
        <time>2020-06-08T13:51:45Z</time>
      </trkpt>
      <trkpt lat="59.230023702525" lon="17.875112702758">
        <ele>13</ele>
        <time>2020-06-08T13:51:46Z</time>
      </trkpt>
      <trkpt lat="59.230013308969" lon="17.875004827705">
        <ele>12.6</ele>
        <time>2020-06-08T13:51:47Z</time>
      </trkpt>
      <trkpt lat="59.230001406671" lon="17.874907765303">
        <ele>12.4</ele>
        <time>2020-06-08T13:51:48Z</time>
      </trkpt>
      <trkpt lat="59.229992857133" lon="17.874816318774">
        <ele>12.4</ele>
        <time>2020-06-08T13:51:49Z</time>
      </trkpt>
      <trkpt lat="59.229982631215" lon="17.87471858582">
        <ele>12.4</ele>
        <time>2020-06-08T13:51:50Z</time>
      </trkpt>
      <trkpt lat="59.229975255143" lon="17.874622026332">
        <ele>12.4</ele>
        <time>2020-06-08T13:51:51Z</time>
      </trkpt>
      <trkpt lat="59.229965951234" lon="17.874533764925">
        <ele>12.6</ele>
        <time>2020-06-08T13:51:52Z</time>
      </trkpt>
      <trkpt lat="59.229959497171" lon="17.874455058884">
        <ele>12.6</ele>
        <time>2020-06-08T13:51:53Z</time>
      </trkpt>
      <trkpt lat="59.229953294565" lon="17.874371658979">
        <ele>12.6</ele>
        <time>2020-06-08T13:51:54Z</time>
      </trkpt>
      <trkpt lat="59.229954132755" lon="17.87429529987">
        <ele>12.6</ele>
        <time>2020-06-08T13:51:55Z</time>
      </trkpt>
      <trkpt lat="59.229964358673" lon="17.874212654336">
        <ele>12.6</ele>
        <time>2020-06-08T13:51:56Z</time>
      </trkpt>
      <trkpt lat="59.229987744174" lon="17.874137468693">
        <ele>12.6</ele>
        <time>2020-06-08T13:51:57Z</time>
      </trkpt>
      <trkpt lat="59.230025881819" lon="17.87411760359">
        <ele>12.6</ele>
        <time>2020-06-08T13:51:58Z</time>
      </trkpt>
      <trkpt lat="59.230065528206" lon="17.874119196151">
        <ele>12.8</ele>
        <time>2020-06-08T13:51:59Z</time>
      </trkpt>
      <trkpt lat="59.230101402738" lon="17.87414107291">
        <ele>13.2</ele>
        <time>2020-06-08T13:52:00Z</time>
      </trkpt>
      <trkpt lat="59.2301347627" lon="17.874168146447">
        <ele>13.6</ele>
        <time>2020-06-08T13:52:01Z</time>
      </trkpt>
      <trkpt lat="59.23017248125" lon="17.874195974355">
        <ele>13.8</ele>
        <time>2020-06-08T13:52:02Z</time>
      </trkpt>
      <trkpt lat="59.230210618895" lon="17.874220784779">
        <ele>14</ele>
        <time>2020-06-08T13:52:03Z</time>
      </trkpt>
      <trkpt lat="59.230245236142" lon="17.874249786153">
        <ele>14.2</ele>
        <time>2020-06-08T13:52:04Z</time>
      </trkpt>
      <trkpt lat="59.230279937208" lon="17.874280463907">
        <ele>14.2</ele>
        <time>2020-06-08T13:52:05Z</time>
      </trkpt>
      <trkpt lat="59.230318996862" lon="17.874314159145">
        <ele>14.4</ele>
        <time>2020-06-08T13:52:06Z</time>
      </trkpt>
      <trkpt lat="59.230358140335" lon="17.874351039505">
        <ele>14.4</ele>
        <time>2020-06-08T13:52:07Z</time>
      </trkpt>
      <trkpt lat="59.230395188333" lon="17.874393451919">
        <ele>14.4</ele>
        <time>2020-06-08T13:52:08Z</time>
      </trkpt>
      <trkpt lat="59.230435924367" lon="17.874440055283">
        <ele>14.4</ele>
        <time>2020-06-08T13:52:09Z</time>
      </trkpt>
      <trkpt lat="59.23048093517" lon="17.874482467697">
        <ele>14.6</ele>
        <time>2020-06-08T13:52:10Z</time>
      </trkpt>
      <trkpt lat="59.230529298733" lon="17.874514486555">
        <ele>14.6</ele>
        <time>2020-06-08T13:52:11Z</time>
      </trkpt>
      <trkpt lat="59.230581769427" lon="17.874533597287">
        <ele>14.6</ele>
        <time>2020-06-08T13:52:12Z</time>
      </trkpt>
      <trkpt lat="59.230646393876" lon="17.874540470445">
        <ele>14.8</ele>
        <time>2020-06-08T13:52:13Z</time>
      </trkpt>
      <trkpt lat="59.23071646656" lon="17.874535944219">
        <ele>14.8</ele>
        <time>2020-06-08T13:52:14Z</time>
      </trkpt>
      <trkpt lat="59.230785617235" lon="17.874517168763">
        <ele>14.8</ele>
        <time>2020-06-08T13:52:15Z</time>
      </trkpt>
      <trkpt lat="59.230854600272" lon="17.874486826285">
        <ele>14.8</ele>
        <time>2020-06-08T13:52:16Z</time>
      </trkpt>
      <trkpt lat="59.230914447038" lon="17.874455226522">
        <ele>14.8</ele>
        <time>2020-06-08T13:52:17Z</time>
      </trkpt>
      <trkpt lat="59.230974964356" lon="17.874422369474">
        <ele>14.8</ele>
        <time>2020-06-08T13:52:18Z</time>
      </trkpt>
      <trkpt lat="59.23103833152" lon="17.87439001534">
        <ele>14.8</ele>
        <time>2020-06-08T13:52:19Z</time>
      </trkpt>
      <trkpt lat="59.231101614865" lon="17.874362438889">
        <ele>14.8</ele>
        <time>2020-06-08T13:52:20Z</time>
      </trkpt>
      <trkpt lat="59.2311657364" lon="17.874331509678">
        <ele>14.8</ele>
        <time>2020-06-08T13:52:21Z</time>
      </trkpt>
      <trkpt lat="59.231228097736" lon="17.874301753933">
        <ele>14.6</ele>
        <time>2020-06-08T13:52:22Z</time>
      </trkpt>
      <trkpt lat="59.231292386909" lon="17.874267723419">
        <ele>14.6</ele>
        <time>2020-06-08T13:52:23Z</time>
      </trkpt>
      <trkpt lat="59.231357011358" lon="17.874217264381">
        <ele>14.6</ele>
        <time>2020-06-08T13:52:24Z</time>
      </trkpt>
      <trkpt lat="59.231415181744" lon="17.874155573597">
        <ele>14.4</ele>
        <time>2020-06-08T13:52:25Z</time>
      </trkpt>
      <trkpt lat="59.231471591931" lon="17.874082734886">
        <ele>14.2</ele>
        <time>2020-06-08T13:52:26Z</time>
      </trkpt>
      <trkpt lat="59.231529594679" lon="17.874007716881">
        <ele>14.2</ele>
        <time>2020-06-08T13:52:27Z</time>
      </trkpt>
      <trkpt lat="59.231587178332" lon="17.873928424107">
        <ele>14.2</ele>
        <time>2020-06-08T13:52:28Z</time>
      </trkpt>
      <trkpt lat="59.231633949334" lon="17.873843180184">
        <ele>14.2</ele>
        <time>2020-06-08T13:52:29Z</time>
      </trkpt>
      <trkpt lat="59.231666303468" lon="17.873746536877">
        <ele>14.2</ele>
        <time>2020-06-08T13:52:30Z</time>
      </trkpt>
      <trkpt lat="59.231687844951" lon="17.873656934366">
        <ele>14.2</ele>
        <time>2020-06-08T13:52:31Z</time>
      </trkpt>
      <trkpt lat="59.231705111665" lon="17.873584347112">
        <ele>14.2</ele>
        <time>2020-06-08T13:52:32Z</time>
      </trkpt>
      <trkpt lat="59.231717349239" lon="17.873514022971">
        <ele>14.2</ele>
        <time>2020-06-08T13:52:33Z</time>
      </trkpt>
      <trkpt lat="59.231724138578" lon="17.873437077129">
        <ele>14.4</ele>
        <time>2020-06-08T13:52:34Z</time>
      </trkpt>
      <trkpt lat="59.231732688116" lon="17.87335904164">
        <ele>14.4</ele>
        <time>2020-06-08T13:52:35Z</time>
      </trkpt>
      <trkpt lat="59.231739561274" lon="17.873275893192">
        <ele>14.6</ele>
        <time>2020-06-08T13:52:36Z</time>
      </trkpt>
      <trkpt lat="59.231738974541" lon="17.873163491913">
        <ele>14.8</ele>
        <time>2020-06-08T13:52:37Z</time>
      </trkpt>
      <trkpt lat="59.231732101383" lon="17.873033991558">
        <ele>14.8</ele>
        <time>2020-06-08T13:52:38Z</time>
      </trkpt>
      <trkpt lat="59.231728580985" lon="17.87289468438">
        <ele>14.8</ele>
        <time>2020-06-08T13:52:39Z</time>
      </trkpt>
      <trkpt lat="59.231726736967" lon="17.872750934795">
        <ele>14.8</ele>
        <time>2020-06-08T13:52:40Z</time>
      </trkpt>
      <trkpt lat="59.231722546017" lon="17.872605425011">
        <ele>14.8</ele>
        <time>2020-06-08T13:52:41Z</time>
      </trkpt>
      <trkpt lat="59.23171642723" lon="17.872457233019">
        <ele>14.8</ele>
        <time>2020-06-08T13:52:42Z</time>
      </trkpt>
      <trkpt lat="59.231707123321" lon="17.872308873389">
        <ele>14.8</ele>
        <time>2020-06-08T13:52:43Z</time>
      </trkpt>
      <trkpt lat="59.231698489964" lon="17.872159256474">
        <ele>14.8</ele>
        <time>2020-06-08T13:52:44Z</time>
      </trkpt>
      <trkpt lat="59.231694466652" lon="17.872012489405">
        <ele>14.8</ele>
        <time>2020-06-08T13:52:45Z</time>
      </trkpt>
      <trkpt lat="59.231689186055" lon="17.871868153087">
        <ele>14.8</ele>
        <time>2020-06-08T13:52:46Z</time>
      </trkpt>
      <trkpt lat="59.231680552698" lon="17.8717279239">
        <ele>14.8</ele>
        <time>2020-06-08T13:52:47Z</time>
      </trkpt>
      <trkpt lat="59.231667225477" lon="17.87159297531">
        <ele>14.6</ele>
        <time>2020-06-08T13:52:48Z</time>
      </trkpt>
      <trkpt lat="59.23165607755" lon="17.871459619281">
        <ele>14</ele>
        <time>2020-06-08T13:52:49Z</time>
      </trkpt>
      <trkpt lat="59.231646438365" lon="17.871325173605">
        <ele>13.2</ele>
        <time>2020-06-08T13:52:50Z</time>
      </trkpt>
      <trkpt lat="59.231639816664" lon="17.871201372942">
        <ele>13</ele>
        <time>2020-06-08T13:52:51Z</time>
      </trkpt>
      <trkpt lat="59.231634871343" lon="17.871064412696">
        <ele>12.8</ele>
        <time>2020-06-08T13:52:52Z</time>
      </trkpt>
      <trkpt lat="59.231629339289" lon="17.870946814639">
        <ele>12.8</ele>
        <time>2020-06-08T13:52:53Z</time>
      </trkpt>
      <trkpt lat="59.231619029552" lon="17.87083189879">
        <ele>12.6</ele>
        <time>2020-06-08T13:52:54Z</time>
      </trkpt>
      <trkpt lat="59.231605031779" lon="17.870687813929">
        <ele>12.6</ele>
        <time>2020-06-08T13:52:55Z</time>
      </trkpt>
      <trkpt lat="59.231586423961" lon="17.870533251693">
        <ele>12.6</ele>
        <time>2020-06-08T13:52:56Z</time>
      </trkpt>
      <trkpt lat="59.231552896361" lon="17.87037676162">
        <ele>12.6</ele>
        <time>2020-06-08T13:52:57Z</time>
      </trkpt>
      <trkpt lat="59.231508388472" lon="17.870241561573">
        <ele>12.4</ele>
        <time>2020-06-08T13:52:58Z</time>
      </trkpt>
      <trkpt lat="59.23145826471" lon="17.870112061218">
        <ele>12.4</ele>
        <time>2020-06-08T13:52:59Z</time>
      </trkpt>
      <trkpt lat="59.231409984966" lon="17.869986248899">
        <ele>12.2</ele>
        <time>2020-06-08T13:53:00Z</time>
      </trkpt>
      <trkpt lat="59.231365393258" lon="17.869862867331">
        <ele>12.2</ele>
        <time>2020-06-08T13:53:01Z</time>
      </trkpt>
      <trkpt lat="59.23132918345" lon="17.869738731392">
        <ele>12.2</ele>
        <time>2020-06-08T13:53:02Z</time>
      </trkpt>
      <trkpt lat="59.231289201787" lon="17.86961065596">
        <ele>12</ele>
        <time>2020-06-08T13:53:03Z</time>
      </trkpt>
      <trkpt lat="59.231255171273" lon="17.869485011279">
        <ele>11.6</ele>
        <time>2020-06-08T13:53:04Z</time>
      </trkpt>
      <trkpt lat="59.231231869591" lon="17.869350062689">
        <ele>10.8</ele>
        <time>2020-06-08T13:53:05Z</time>
      </trkpt>
      <trkpt lat="59.231217201266" lon="17.869227686949">
        <ele>10.4</ele>
        <time>2020-06-08T13:53:06Z</time>
      </trkpt>
      <trkpt lat="59.231207813538" lon="17.869100114431">
        <ele>10.2</ele>
        <time>2020-06-08T13:53:07Z</time>
      </trkpt>
      <trkpt lat="59.231205047511" lon="17.868972038999">
        <ele>10</ele>
        <time>2020-06-08T13:53:08Z</time>
      </trkpt>
      <trkpt lat="59.23120848409" lon="17.868845472309">
        <ele>10</ele>
        <time>2020-06-08T13:53:09Z</time>
      </trkpt>
      <trkpt lat="59.231213680868" lon="17.868721671646">
        <ele>10</ele>
        <time>2020-06-08T13:53:10Z</time>
      </trkpt>
      <trkpt lat="59.23121854237" lon="17.86859812244">
        <ele>10</ele>
        <time>2020-06-08T13:53:11Z</time>
      </trkpt>
      <trkpt lat="59.231230193211" lon="17.868488906283">
        <ele>10</ele>
        <time>2020-06-08T13:53:12Z</time>
      </trkpt>
      <trkpt lat="59.23124452626" lon="17.868377091737">
        <ele>10</ele>
        <time>2020-06-08T13:53:13Z</time>
      </trkpt>
      <trkpt lat="59.231256680015" lon="17.868270976883">
        <ele>10</ele>
        <time>2020-06-08T13:53:14Z</time>
      </trkpt>
      <trkpt lat="59.231270258693" lon="17.868169220617">
        <ele>10</ele>
        <time>2020-06-08T13:53:15Z</time>
      </trkpt>
      <trkpt lat="59.231286687217" lon="17.868064111591">
        <ele>10.2</ele>
        <time>2020-06-08T13:53:16Z</time>
      </trkpt>
      <trkpt lat="59.231304456845" lon="17.867959505479">
        <ele>10.4</ele>
        <time>2020-06-08T13:53:17Z</time>
      </trkpt>
      <trkpt lat="59.231318454618" lon="17.86784291325">
        <ele>10.6</ele>
        <time>2020-06-08T13:53:18Z</time>
      </trkpt>
      <trkpt lat="59.231331781839" lon="17.867731601618">
        <ele>11.2</ele>
        <time>2020-06-08T13:53:19Z</time>
      </trkpt>
      <trkpt lat="59.231347539811" lon="17.867643172573">
        <ele>11.6</ele>
        <time>2020-06-08T13:53:20Z</time>
      </trkpt>
      <trkpt lat="59.231363968335" lon="17.867551726044">
        <ele>11.8</ele>
        <time>2020-06-08T13:53:21Z</time>
      </trkpt>
      <trkpt lat="59.231382659972" lon="17.867448712493">
        <ele>11.8</ele>
        <time>2020-06-08T13:53:22Z</time>
      </trkpt>
      <trkpt lat="59.231402357437" lon="17.867344944571">
        <ele>12</ele>
        <time>2020-06-08T13:53:23Z</time>
      </trkpt>
      <trkpt lat="59.23141970797" lon="17.86727294405">
        <ele>12</ele>
        <time>2020-06-08T13:53:24Z</time>
      </trkpt>
      <trkpt lat="59.231440830358" lon="17.867204883022">
        <ele>12.2</ele>
        <time>2020-06-08T13:53:25Z</time>
      </trkpt>
      <trkpt lat="59.231468574447" lon="17.867184766462">
        <ele>12.2</ele>
        <time>2020-06-08T13:53:26Z</time>
      </trkpt>
      <trkpt lat="59.231498833106" lon="17.867182503349">
        <ele>12.4</ele>
        <time>2020-06-08T13:53:27Z</time>
      </trkpt>
      <trkpt lat="59.231528253575" lon="17.867209576886">
        <ele>12.4</ele>
        <time>2020-06-08T13:53:28Z</time>
      </trkpt>
      <trkpt lat="59.231573348197" lon="17.867260622657">
        <ele>12.4</ele>
        <time>2020-06-08T13:53:29Z</time>
      </trkpt>
      <trkpt lat="59.231621460303" lon="17.867327594038">
        <ele>12.4</ele>
        <time>2020-06-08T13:53:30Z</time>
      </trkpt>
      <trkpt lat="59.231673595721" lon="17.867395906523">
        <ele>12.4</ele>
        <time>2020-06-08T13:53:31Z</time>
      </trkpt>
      <trkpt lat="59.231725563501" lon="17.867465476293">
        <ele>12.4</ele>
        <time>2020-06-08T13:53:32Z</time>
      </trkpt>
      <trkpt lat="59.231781470774" lon="17.867533956416">
        <ele>12.4</ele>
        <time>2020-06-08T13:53:33Z</time>
      </trkpt>
      <trkpt lat="59.231835953124" lon="17.867604783471">
        <ele>12.4</ele>
        <time>2020-06-08T13:53:34Z</time>
      </trkpt>
      <trkpt lat="59.231893955872" lon="17.867675610526">
        <ele>12.4</ele>
        <time>2020-06-08T13:53:35Z</time>
      </trkpt>
      <trkpt lat="59.231953802638" lon="17.867745934667">
        <ele>12.2</ele>
        <time>2020-06-08T13:53:36Z</time>
      </trkpt>
      <trkpt lat="59.232021779847" lon="17.867817935188">
        <ele>11.6</ele>
        <time>2020-06-08T13:53:37Z</time>
      </trkpt>
      <trkpt lat="59.23208606902" lon="17.86788566094">
        <ele>10.8</ele>
        <time>2020-06-08T13:53:38Z</time>
      </trkpt>
      <trkpt lat="59.232149520003" lon="17.867938550729">
        <ele>10.4</ele>
        <time>2020-06-08T13:53:39Z</time>
      </trkpt>
      <trkpt lat="59.232216239927" lon="17.867972916519">
        <ele>10</ele>
        <time>2020-06-08T13:53:40Z</time>
      </trkpt>
      <trkpt lat="59.232285642059" lon="17.867993535993">
        <ele>9.6</ele>
        <time>2020-06-08T13:53:41Z</time>
      </trkpt>
      <trkpt lat="59.232356720571" lon="17.868009461603">
        <ele>9.4</ele>
        <time>2020-06-08T13:53:42Z</time>
      </trkpt>
      <trkpt lat="59.232429307825" lon="17.86802144772">
        <ele>9.2</ele>
        <time>2020-06-08T13:53:43Z</time>
      </trkpt>
      <trkpt lat="59.232502984726" lon="17.868028572335">
        <ele>9</ele>
        <time>2020-06-08T13:53:44Z</time>
      </trkpt>
      <trkpt lat="59.232574314695" lon="17.868027817964">
        <ele>8.8</ele>
        <time>2020-06-08T13:53:45Z</time>
      </trkpt>
      <trkpt lat="59.232647740139" lon="17.868014909838">
        <ele>8.8</ele>
        <time>2020-06-08T13:53:46Z</time>
      </trkpt>
      <trkpt lat="59.232719656841" lon="17.867988423034">
        <ele>8.6</ele>
        <time>2020-06-08T13:53:47Z</time>
      </trkpt>
      <trkpt lat="59.232789813344" lon="17.867949447199">
        <ele>8.6</ele>
        <time>2020-06-08T13:53:48Z</time>
      </trkpt>
      <trkpt lat="59.232859634571" lon="17.867908040613">
        <ele>8.6</ele>
        <time>2020-06-08T13:53:49Z</time>
      </trkpt>
      <trkpt lat="59.232930293988" lon="17.867869232416">
        <ele>8.4</ele>
        <time>2020-06-08T13:53:50Z</time>
      </trkpt>
      <trkpt lat="59.233001204862" lon="17.867832938789">
        <ele>8.4</ele>
        <time>2020-06-08T13:53:51Z</time>
      </trkpt>
      <trkpt lat="59.233071612822" lon="17.867799411189">
        <ele>8.4</ele>
        <time>2020-06-08T13:53:52Z</time>
      </trkpt>
      <trkpt lat="59.233141769325" lon="17.867772002376">
        <ele>8.4</ele>
        <time>2020-06-08T13:53:53Z</time>
      </trkpt>
      <trkpt lat="59.233212177285" lon="17.867749203608">
        <ele>8.4</ele>
        <time>2020-06-08T13:53:54Z</time>
      </trkpt>
      <trkpt lat="59.233282752883" lon="17.867726237202">
        <ele>8.4</ele>
        <time>2020-06-08T13:53:55Z</time>
      </trkpt>
      <trkpt lat="59.23335089773" lon="17.867691619955">
        <ele>8.4</ele>
        <time>2020-06-08T13:53:56Z</time>
      </trkpt>
      <trkpt lat="59.233416528007" lon="17.867646860609">
        <ele>8.4</ele>
        <time>2020-06-08T13:53:57Z</time>
      </trkpt>
      <trkpt lat="59.233481739189" lon="17.867602101263">
        <ele>8.4</ele>
        <time>2020-06-08T13:53:58Z</time>
      </trkpt>
      <trkpt lat="59.233546279819" lon="17.867561197591">
        <ele>8.4</ele>
        <time>2020-06-08T13:53:59Z</time>
      </trkpt>
      <trkpt lat="59.233610066078" lon="17.867523646679">
        <ele>8.4</ele>
        <time>2020-06-08T13:54:00Z</time>
      </trkpt>
      <trkpt lat="59.233673852337" lon="17.867490286717">
        <ele>8.4</ele>
        <time>2020-06-08T13:54:01Z</time>
      </trkpt>
      <trkpt lat="59.233738057691" lon="17.867460279515">
        <ele>8.4</ele>
        <time>2020-06-08T13:54:02Z</time>
      </trkpt>
      <trkpt lat="59.233802765959" lon="17.867428344476">
        <ele>8.4</ele>
        <time>2020-06-08T13:54:03Z</time>
      </trkpt>
      <trkpt lat="59.233866803675" lon="17.867394984514">
        <ele>8.4</ele>
        <time>2020-06-08T13:54:04Z</time>
      </trkpt>
      <trkpt lat="59.233931260486" lon="17.867361373095">
        <ele>8.4</ele>
        <time>2020-06-08T13:54:05Z</time>
      </trkpt>
      <trkpt lat="59.233995046745" lon="17.86732994097">
        <ele>8.4</ele>
        <time>2020-06-08T13:54:06Z</time>
      </trkpt>
      <trkpt lat="59.234059000642" lon="17.86730144251">
        <ele>8.4</ele>
        <time>2020-06-08T13:54:07Z</time>
      </trkpt>
      <trkpt lat="59.234122451625" lon="17.867276548267">
        <ele>8.4</ele>
        <time>2020-06-08T13:54:08Z</time>
      </trkpt>
      <trkpt lat="59.234186740798" lon="17.867252324576">
        <ele>8.4</ele>
        <time>2020-06-08T13:54:09Z</time>
      </trkpt>
      <trkpt lat="59.234251532885" lon="17.867227095057">
        <ele>8.4</ele>
        <time>2020-06-08T13:54:10Z</time>
      </trkpt>
      <trkpt lat="59.234315319144" lon="17.867199267149">
        <ele>8.4</ele>
        <time>2020-06-08T13:54:11Z</time>
      </trkpt>
      <trkpt lat="59.234379021584" lon="17.867167415929">
        <ele>8.6</ele>
        <time>2020-06-08T13:54:12Z</time>
      </trkpt>
      <trkpt lat="59.234442807843" lon="17.867135899985">
        <ele>8.6</ele>
        <time>2020-06-08T13:54:13Z</time>
      </trkpt>
      <trkpt lat="59.234506510283" lon="17.867104300222">
        <ele>8.6</ele>
        <time>2020-06-08T13:54:14Z</time>
      </trkpt>
      <trkpt lat="59.234570128904" lon="17.867074879753">
        <ele>8.6</ele>
        <time>2020-06-08T13:54:15Z</time>
      </trkpt>
      <trkpt lat="59.234633244611" lon="17.867049231139">
        <ele>8.6</ele>
        <time>2020-06-08T13:54:16Z</time>
      </trkpt>
      <trkpt lat="59.23469619268" lon="17.867024672172">
        <ele>8.6</ele>
        <time>2020-06-08T13:54:17Z</time>
      </trkpt>
      <trkpt lat="59.234759643663" lon="17.866999358834">
        <ele>8.6</ele>
        <time>2020-06-08T13:54:18Z</time>
      </trkpt>
      <trkpt lat="59.234823346103" lon="17.866974464591">
        <ele>8.6</ele>
        <time>2020-06-08T13:54:19Z</time>
      </trkpt>
      <trkpt lat="59.234887216181" lon="17.866949821805">
        <ele>8.6</ele>
        <time>2020-06-08T13:54:20Z</time>
      </trkpt>
      <trkpt lat="59.234951337716" lon="17.8669250952">
        <ele>8.6</ele>
        <time>2020-06-08T13:54:21Z</time>
      </trkpt>
      <trkpt lat="59.235014956337" lon="17.866898524577">
        <ele>8.6</ele>
        <time>2020-06-08T13:54:22Z</time>
      </trkpt>
      <trkpt lat="59.235078826415" lon="17.86687145104">
        <ele>8.8</ele>
        <time>2020-06-08T13:54:23Z</time>
      </trkpt>
      <trkpt lat="59.235143283226" lon="17.866843120218">
        <ele>8.8</ele>
        <time>2020-06-08T13:54:24Z</time>
      </trkpt>
      <trkpt lat="59.235207740037" lon="17.866813029197">
        <ele>8.8</ele>
        <time>2020-06-08T13:54:25Z</time>
      </trkpt>
      <trkpt lat="59.235272699762" lon="17.866778579588">
        <ele>8.8</ele>
        <time>2020-06-08T13:54:26Z</time>
      </trkpt>
      <trkpt lat="59.235336486021" lon="17.866738011192">
        <ele>8.8</ele>
        <time>2020-06-08T13:54:27Z</time>
      </trkpt>
      <trkpt lat="59.235397673891" lon="17.866688055068">
        <ele>8.8</ele>
        <time>2020-06-08T13:54:28Z</time>
      </trkpt>
      <trkpt lat="59.235455089906" lon="17.866623765895">
        <ele>8.8</ele>
        <time>2020-06-08T13:54:29Z</time>
      </trkpt>
      <trkpt lat="59.235508231152" lon="17.866544640759">
        <ele>8.8</ele>
        <time>2020-06-08T13:54:30Z</time>
      </trkpt>
      <trkpt lat="59.235557097629" lon="17.86645403242">
        <ele>8.8</ele>
        <time>2020-06-08T13:54:31Z</time>
      </trkpt>
      <trkpt lat="59.235602695165" lon="17.86635596419">
        <ele>8.8</ele>
        <time>2020-06-08T13:54:32Z</time>
      </trkpt>
      <trkpt lat="59.235645275217" lon="17.866253202096">
        <ele>8.8</ele>
        <time>2020-06-08T13:54:33Z</time>
      </trkpt>
      <trkpt lat="59.235685089242" lon="17.866146584328">
        <ele>8.8</ele>
        <time>2020-06-08T13:54:34Z</time>
      </trkpt>
      <trkpt lat="59.235721382869" lon="17.866038038723">
        <ele>8.8</ele>
        <time>2020-06-08T13:54:35Z</time>
      </trkpt>
      <trkpt lat="59.235756754487" lon="17.865931756231">
        <ele>8.8</ele>
        <time>2020-06-08T13:54:36Z</time>
      </trkpt>
      <trkpt lat="59.235791790829" lon="17.865831173431">
        <ele>8.8</ele>
        <time>2020-06-08T13:54:37Z</time>
      </trkpt>
      <trkpt lat="59.235826743352" lon="17.865733105201">
        <ele>8.8</ele>
        <time>2020-06-08T13:54:38Z</time>
      </trkpt>
      <trkpt lat="59.235862031151" lon="17.865635875161">
        <ele>8.8</ele>
        <time>2020-06-08T13:54:39Z</time>
      </trkpt>
      <trkpt lat="59.23589815714" lon="17.865539734768">
        <ele>8.8</ele>
        <time>2020-06-08T13:54:40Z</time>
      </trkpt>
      <trkpt lat="59.235936881518" lon="17.865448120601">
        <ele>8.8</ele>
        <time>2020-06-08T13:54:41Z</time>
      </trkpt>
      <trkpt lat="59.235981808502" lon="17.865372180587">
        <ele>8.8</ele>
        <time>2020-06-08T13:54:42Z</time>
      </trkpt>
      <trkpt lat="59.236034111558" lon="17.865319626074">
        <ele>9</ele>
        <time>2020-06-08T13:54:43Z</time>
      </trkpt>
      <trkpt lat="59.236090773202" lon="17.86528475737">
        <ele>9.2</ele>
        <time>2020-06-08T13:54:44Z</time>
      </trkpt>
      <trkpt lat="59.236149027407" lon="17.865257013281">
        <ele>9.2</ele>
        <time>2020-06-08T13:54:45Z</time>
      </trkpt>
      <trkpt lat="59.236207365431" lon="17.865231197029">
        <ele>9.2</ele>
        <time>2020-06-08T13:54:46Z</time>
      </trkpt>
      <trkpt lat="59.236266457826" lon="17.865207140976">
        <ele>9.2</ele>
        <time>2020-06-08T13:54:47Z</time>
      </trkpt>
      <trkpt lat="59.236325382583" lon="17.865181408543">
        <ele>9.2</ele>
        <time>2020-06-08T13:54:48Z</time>
      </trkpt>
      <trkpt lat="59.23638346915" lon="17.865153329178">
        <ele>9.2</ele>
        <time>2020-06-08T13:54:49Z</time>
      </trkpt>
      <trkpt lat="59.236443902649" lon="17.865129859858">
        <ele>9.2</ele>
        <time>2020-06-08T13:54:50Z</time>
      </trkpt>
      <trkpt lat="59.236506096347" lon="17.865110749126">
        <ele>9.2</ele>
        <time>2020-06-08T13:54:51Z</time>
      </trkpt>
      <trkpt lat="59.236568206226" lon="17.865090381109">
        <ele>9.2</ele>
        <time>2020-06-08T13:54:52Z</time>
      </trkpt>
      <trkpt lat="59.236631489571" lon="17.865072862938">
        <ele>9.2</ele>
        <time>2020-06-08T13:54:53Z</time>
      </trkpt>
      <trkpt lat="59.236695611106" lon="17.865072108567">
        <ele>9.2</ele>
        <time>2020-06-08T13:54:54Z</time>
      </trkpt>
      <trkpt lat="59.236759397365" lon="17.865071605653">
        <ele>9.4</ele>
        <time>2020-06-08T13:54:55Z</time>
      </trkpt>
      <trkpt lat="59.236822848348" lon="17.865057691699">
        <ele>9.2</ele>
        <time>2020-06-08T13:54:56Z</time>
      </trkpt>
      <trkpt lat="59.236886550788" lon="17.865040341166">
        <ele>9.2</ele>
        <time>2020-06-08T13:54:57Z</time>
      </trkpt>
      <trkpt lat="59.236953103074" lon="17.865023661185">
        <ele>9.2</ele>
        <time>2020-06-08T13:54:58Z</time>
      </trkpt>
      <trkpt lat="59.237019403903" lon="17.86500312553">
        <ele>9.2</ele>
        <time>2020-06-08T13:54:59Z</time>
      </trkpt>
      <trkpt lat="59.237086375284" lon="17.864977393097">
        <ele>9</ele>
        <time>2020-06-08T13:55:00Z</time>
      </trkpt>
      <trkpt lat="59.237151083552" lon="17.864947972628">
        <ele>9</ele>
        <time>2020-06-08T13:55:01Z</time>
      </trkpt>
      <trkpt lat="59.237214702173" lon="17.864913271562">
        <ele>9</ele>
        <time>2020-06-08T13:55:02Z</time>
      </trkpt>
      <trkpt lat="59.237278739889" lon="17.864882509989">
        <ele>9</ele>
        <time>2020-06-08T13:55:03Z</time>
      </trkpt>
      <trkpt lat="59.237339676302" lon="17.864850407312">
        <ele>9</ele>
        <time>2020-06-08T13:55:04Z</time>
      </trkpt>
      <trkpt lat="59.237398768697" lon="17.864815790065">
        <ele>9</ele>
        <time>2020-06-08T13:55:05Z</time>
      </trkpt>
      <trkpt lat="59.237459034558" lon="17.86478603432">
        <ele>9</ele>
        <time>2020-06-08T13:55:06Z</time>
      </trkpt>
      <trkpt lat="59.237521060618" lon="17.864763487009">
        <ele>9</ele>
        <time>2020-06-08T13:55:07Z</time>
      </trkpt>
      <trkpt lat="59.237584260144" lon="17.864745633562">
        <ele>9</ele>
        <time>2020-06-08T13:55:08Z</time>
      </trkpt>
      <trkpt lat="59.237648214041" lon="17.864734317997">
        <ele>9</ele>
        <time>2020-06-08T13:55:09Z</time>
      </trkpt>
      <trkpt lat="59.237711916481" lon="17.86472317007">
        <ele>9</ele>
        <time>2020-06-08T13:55:10Z</time>
      </trkpt>
      <trkpt lat="59.237775954197" lon="17.864715291084">
        <ele>9</ele>
        <time>2020-06-08T13:55:11Z</time>
      </trkpt>
      <trkpt lat="59.237839488999" lon="17.864704143157">
        <ele>9</ele>
        <time>2020-06-08T13:55:12Z</time>
      </trkpt>
      <trkpt lat="59.237903023801" lon="17.864686541167">
        <ele>9</ele>
        <time>2020-06-08T13:55:13Z</time>
      </trkpt>
      <trkpt lat="59.237966726241" lon="17.864663574761">
        <ele>9</ele>
        <time>2020-06-08T13:55:14Z</time>
      </trkpt>
      <trkpt lat="59.238030344862" lon="17.864639937803">
        <ele>9.2</ele>
        <time>2020-06-08T13:55:15Z</time>
      </trkpt>
      <trkpt lat="59.238093292931" lon="17.864617222854">
        <ele>9.2</ele>
        <time>2020-06-08T13:55:16Z</time>
      </trkpt>
      <trkpt lat="59.238154899896" lon="17.864593753534">
        <ele>9.2</ele>
        <time>2020-06-08T13:55:17Z</time>
      </trkpt>
      <trkpt lat="59.238217596508" lon="17.864565841807">
        <ele>9.2</ele>
        <time>2020-06-08T13:55:18Z</time>
      </trkpt>
      <trkpt lat="59.238281298948" lon="17.864538935908">
        <ele>9.2</ele>
        <time>2020-06-08T13:55:19Z</time>
      </trkpt>
      <trkpt lat="59.23834651013" lon="17.864515885683">
        <ele>9.2</ele>
        <time>2020-06-08T13:55:20Z</time>
      </trkpt>
      <trkpt lat="59.238411805131" lon="17.864494092743">
        <ele>9.2</ele>
        <time>2020-06-08T13:55:21Z</time>
      </trkpt>
      <trkpt lat="59.238478022141" lon="17.864470204328">
        <ele>9.2</ele>
        <time>2020-06-08T13:55:22Z</time>
      </trkpt>
      <trkpt lat="59.238544825884" lon="17.864448998121">
        <ele>9.2</ele>
        <time>2020-06-08T13:55:23Z</time>
      </trkpt>
      <trkpt lat="59.23861137817" lon="17.864428043371">
        <ele>9.2</ele>
        <time>2020-06-08T13:55:24Z</time>
      </trkpt>
      <trkpt lat="59.238677762818" lon="17.864404909327">
        <ele>9.2</ele>
        <time>2020-06-08T13:55:25Z</time>
      </trkpt>
      <trkpt lat="59.238745153294" lon="17.864383284025">
        <ele>9.2</ele>
        <time>2020-06-08T13:55:26Z</time>
      </trkpt>
      <trkpt lat="59.238812962865" lon="17.864364760026">
        <ele>9.2</ele>
        <time>2020-06-08T13:55:27Z</time>
      </trkpt>
      <trkpt lat="59.238881694445" lon="17.864347241855">
        <ele>9.2</ele>
        <time>2020-06-08T13:55:28Z</time>
      </trkpt>
      <trkpt lat="59.238951767129" lon="17.864326119467">
        <ele>9.4</ele>
        <time>2020-06-08T13:55:29Z</time>
      </trkpt>
      <trkpt lat="59.23902209127" lon="17.864301979595">
        <ele>9.4</ele>
        <time>2020-06-08T13:55:30Z</time>
      </trkpt>
      <trkpt lat="59.239091828678" lon="17.864276833895">
        <ele>9.4</ele>
        <time>2020-06-08T13:55:31Z</time>
      </trkpt>
      <trkpt lat="59.239160811715" lon="17.864251520557">
        <ele>9.2</ele>
        <time>2020-06-08T13:55:32Z</time>
      </trkpt>
      <trkpt lat="59.239230046209" lon="17.86422863797">
        <ele>9.2</ele>
        <time>2020-06-08T13:55:33Z</time>
      </trkpt>
      <trkpt lat="59.239298526332" lon="17.864204079003">
        <ele>9.2</ele>
        <time>2020-06-08T13:55:34Z</time>
      </trkpt>
      <trkpt lat="59.239367174093" lon="17.864179855312">
        <ele>9.4</ele>
        <time>2020-06-08T13:55:35Z</time>
      </trkpt>
      <trkpt lat="59.239437498234" lon="17.864157308001">
        <ele>9.2</ele>
        <time>2020-06-08T13:55:36Z</time>
      </trkpt>
      <trkpt lat="59.239506816547" lon="17.86413056974">
        <ele>9.2</ele>
        <time>2020-06-08T13:55:37Z</time>
      </trkpt>
      <trkpt lat="59.239576637774" lon="17.864107435696">
        <ele>9.2</ele>
        <time>2020-06-08T13:55:38Z</time>
      </trkpt>
      <trkpt lat="59.239645369354" lon="17.864093521742">
        <ele>9.2</ele>
        <time>2020-06-08T13:55:39Z</time>
      </trkpt>
      <trkpt lat="59.239712508373" lon="17.864085056023">
        <ele>9.2</ele>
        <time>2020-06-08T13:55:40Z</time>
      </trkpt>
      <trkpt lat="59.239776546089" lon="17.86408111653">
        <ele>9</ele>
        <time>2020-06-08T13:55:41Z</time>
      </trkpt>
      <trkpt lat="59.239839745615" lon="17.86407944015">
        <ele>9</ele>
        <time>2020-06-08T13:55:42Z</time>
      </trkpt>
      <trkpt lat="59.239900933485" lon="17.864089749887">
        <ele>9</ele>
        <time>2020-06-08T13:55:43Z</time>
      </trkpt>
      <trkpt lat="59.239959522966" lon="17.864127552256">
        <ele>9</ele>
        <time>2020-06-08T13:55:44Z</time>
      </trkpt>
      <trkpt lat="59.240012328936" lon="17.864194355999">
        <ele>9</ele>
        <time>2020-06-08T13:55:45Z</time>
      </trkpt>
      <trkpt lat="59.240062704155" lon="17.864271720936">
        <ele>9</ele>
        <time>2020-06-08T13:55:46Z</time>
      </trkpt>
      <trkpt lat="59.240114085202" lon="17.864350762253">
        <ele>9</ele>
        <time>2020-06-08T13:55:47Z</time>
      </trkpt>
      <trkpt lat="59.240165717706" lon="17.864431731407">
        <ele>9</ele>
        <time>2020-06-08T13:55:48Z</time>
      </trkpt>
      <trkpt lat="59.240216847296" lon="17.864514293122">
        <ele>9</ele>
        <time>2020-06-08T13:55:49Z</time>
      </trkpt>
      <trkpt lat="59.240267809248" lon="17.864595597552">
        <ele>9</ele>
        <time>2020-06-08T13:55:50Z</time>
      </trkpt>
      <trkpt lat="59.240319106476" lon="17.864676399068">
        <ele>9</ele>
        <time>2020-06-08T13:55:51Z</time>
      </trkpt>
      <trkpt lat="59.240368392048" lon="17.864755691842">
        <ele>9</ele>
        <time>2020-06-08T13:55:52Z</time>
      </trkpt>
      <trkpt lat="59.240418599629" lon="17.864834816978">
        <ele>9.2</ele>
        <time>2020-06-08T13:55:53Z</time>
      </trkpt>
      <trkpt lat="59.240463275156" lon="17.864919222711">
        <ele>9.2</ele>
        <time>2020-06-08T13:55:54Z</time>
      </trkpt>
      <trkpt lat="59.24049982024" lon="17.865014608733">
        <ele>9.2</ele>
        <time>2020-06-08T13:55:55Z</time>
      </trkpt>
      <trkpt lat="59.240531168546" lon="17.865111419678">
        <ele>9.2</ele>
        <time>2020-06-08T13:55:56Z</time>
      </trkpt>
      <trkpt lat="59.240556314246" lon="17.865207308614">
        <ele>9.2</ele>
        <time>2020-06-08T13:55:57Z</time>
      </trkpt>
      <trkpt lat="59.240578191005" lon="17.865312082364">
        <ele>9.4</ele>
        <time>2020-06-08T13:55:58Z</time>
      </trkpt>
      <trkpt lat="59.240596882642" lon="17.865428004041">
        <ele>9.4</ele>
        <time>2020-06-08T13:55:59Z</time>
      </trkpt>
      <trkpt lat="59.240608365845" lon="17.865550044505">
        <ele>9.4</ele>
        <time>2020-06-08T13:56:00Z</time>
      </trkpt>
      <trkpt lat="59.240623537084" lon="17.865673928987">
        <ele>9.4</ele>
        <time>2020-06-08T13:56:01Z</time>
      </trkpt>
      <trkpt lat="59.240636696667" lon="17.865797981107">
        <ele>9.4</ele>
        <time>2020-06-08T13:56:02Z</time>
      </trkpt>
      <trkpt lat="59.240653963381" lon="17.865922284684">
        <ele>9.4</ele>
        <time>2020-06-08T13:56:03Z</time>
      </trkpt>
      <trkpt lat="59.24067584014" lon="17.866045330976">
        <ele>9.4</ele>
        <time>2020-06-08T13:56:04Z</time>
      </trkpt>
      <trkpt lat="59.240698135994" lon="17.866162761395">
        <ele>9.2</ele>
        <time>2020-06-08T13:56:05Z</time>
      </trkpt>
      <trkpt lat="59.240725880083" lon="17.866273486294">
        <ele>9.2</ele>
        <time>2020-06-08T13:56:06Z</time>
      </trkpt>
      <trkpt lat="59.240757312208" lon="17.866380606976">
        <ele>9</ele>
        <time>2020-06-08T13:56:07Z</time>
      </trkpt>
      <trkpt lat="59.240794360206" lon="17.866475657722">
        <ele>9</ele>
        <time>2020-06-08T13:56:08Z</time>
      </trkpt>
      <trkpt lat="59.240837443172" lon="17.866559728179">
        <ele>9.2</ele>
        <time>2020-06-08T13:56:09Z</time>
      </trkpt>
      <trkpt lat="59.240892344617" lon="17.866633572718">
        <ele>9</ele>
        <time>2020-06-08T13:56:10Z</time>
      </trkpt>
      <trkpt lat="59.240951185555" lon="17.866701466108">
        <ele>9</ele>
        <time>2020-06-08T13:56:11Z</time>
      </trkpt>
      <trkpt lat="59.241009020665" lon="17.866766593471">
        <ele>9</ele>
        <time>2020-06-08T13:56:12Z</time>
      </trkpt>
      <trkpt lat="59.241069454164" lon="17.866829122445">
        <ele>9</ele>
        <time>2020-06-08T13:56:13Z</time>
      </trkpt>
      <trkpt lat="59.241129803844" lon="17.866897015835">
        <ele>9</ele>
        <time>2020-06-08T13:56:14Z</time>
      </trkpt>
      <trkpt lat="59.241182023081" lon="17.866960131542">
        <ele>9</ele>
        <time>2020-06-08T13:56:15Z</time>
      </trkpt>
      <trkpt lat="59.241232901214" lon="17.867020481222">
        <ele>9</ele>
        <time>2020-06-08T13:56:16Z</time>
      </trkpt>
      <trkpt lat="59.241283863166" lon="17.867080747083">
        <ele>9</ele>
        <time>2020-06-08T13:56:17Z</time>
      </trkpt>
      <trkpt lat="59.241331053263" lon="17.867139504202">
        <ele>9</ele>
        <time>2020-06-08T13:56:18Z</time>
      </trkpt>
      <trkpt lat="59.241381344663" lon="17.867195411475">
        <ele>9</ele>
        <time>2020-06-08T13:56:19Z</time>
      </trkpt>
      <trkpt lat="59.24142937295" lon="17.867245870513">
        <ele>9</ele>
        <time>2020-06-08T13:56:20Z</time>
      </trkpt>
      <trkpt lat="59.24147463521" lon="17.867301107234">
        <ele>9</ele>
        <time>2020-06-08T13:56:21Z</time>
      </trkpt>
      <trkpt lat="59.241516209434" lon="17.867363217113">
        <ele>9</ele>
        <time>2020-06-08T13:56:22Z</time>
      </trkpt>
      <trkpt lat="59.241555520545" lon="17.867424572621">
        <ele>9</ele>
        <time>2020-06-08T13:56:23Z</time>
      </trkpt>
      <trkpt lat="59.241592317086" lon="17.867489699984">
        <ele>9.2</ele>
        <time>2020-06-08T13:56:24Z</time>
      </trkpt>
      <trkpt lat="59.241634226586" lon="17.867554324433">
        <ele>9.2</ele>
        <time>2020-06-08T13:56:25Z</time>
      </trkpt>
      <trkpt lat="59.241673453878" lon="17.867623391289">
        <ele>9.4</ele>
        <time>2020-06-08T13:56:26Z</time>
      </trkpt>
      <trkpt lat="59.24171687212" lon="17.867697738742">
        <ele>9.4</ele>
        <time>2020-06-08T13:56:27Z</time>
      </trkpt>
      <trkpt lat="59.241755847955" lon="17.867762111734">
        <ele>9.6</ele>
        <time>2020-06-08T13:56:28Z</time>
      </trkpt>
      <trkpt lat="59.241798763283" lon="17.867832268237">
        <ele>9.6</ele>
        <time>2020-06-08T13:56:29Z</time>
      </trkpt>
      <trkpt lat="59.241834721634" lon="17.867906783328">
        <ele>9.8</ele>
        <time>2020-06-08T13:56:30Z</time>
      </trkpt>
      <trkpt lat="59.241868081596" lon="17.867983142437">
        <ele>10</ele>
        <time>2020-06-08T13:56:31Z</time>
      </trkpt>
      <trkpt lat="59.241908230897" lon="17.868060339736">
        <ele>10.2</ele>
        <time>2020-06-08T13:56:32Z</time>
      </trkpt>
      <trkpt lat="59.241953325519" lon="17.86814130889">
        <ele>10.2</ele>
        <time>2020-06-08T13:56:33Z</time>
      </trkpt>
      <trkpt lat="59.241996659942" lon="17.868218338551">
        <ele>10.4</ele>
        <time>2020-06-08T13:56:34Z</time>
      </trkpt>
      <trkpt lat="59.242043347125" lon="17.86829888861">
        <ele>10.4</ele>
        <time>2020-06-08T13:56:35Z</time>
      </trkpt>
      <trkpt lat="59.242081736227" lon="17.868358986833">
        <ele>10.4</ele>
        <time>2020-06-08T13:56:36Z</time>
      </trkpt>
      <trkpt lat="59.24213931988" lon="17.86842377892">
        <ele>10.4</ele>
        <time>2020-06-08T13:56:37Z</time>
      </trkpt>
      <trkpt lat="59.242201262121" lon="17.868479350917">
        <ele>10.4</ele>
        <time>2020-06-08T13:56:38Z</time>
      </trkpt>
      <trkpt lat="59.242272005357" lon="17.868531318697">
        <ele>10.4</ele>
        <time>2020-06-08T13:56:39Z</time>
      </trkpt>
      <trkpt lat="59.242344760249" lon="17.868578173518">
        <ele>10.4</ele>
        <time>2020-06-08T13:56:40Z</time>
      </trkpt>
      <trkpt lat="59.24241340801" lon="17.868618993371">
        <ele>10.6</ele>
        <time>2020-06-08T13:56:41Z</time>
      </trkpt>
      <trkpt lat="59.242483061599" lon="17.86865595755">
        <ele>10.6</ele>
        <time>2020-06-08T13:56:42Z</time>
      </trkpt>
      <trkpt lat="59.242553469559" lon="17.868696023032">
        <ele>10.6</ele>
        <time>2020-06-08T13:56:43Z</time>
      </trkpt>
      <trkpt lat="59.242616501447" lon="17.8687272037">
        <ele>10.6</ele>
        <time>2020-06-08T13:56:44Z</time>
      </trkpt>
      <trkpt lat="59.242681880267" lon="17.868740866197">
        <ele>10.6</ele>
        <time>2020-06-08T13:56:45Z</time>
      </trkpt>
      <trkpt lat="59.242752707322" lon="17.868740530921">
        <ele>10.6</ele>
        <time>2020-06-08T13:56:46Z</time>
      </trkpt>
      <trkpt lat="59.24282328292" lon="17.86872217456">
        <ele>10.6</ele>
        <time>2020-06-08T13:56:47Z</time>
      </trkpt>
      <trkpt lat="59.242888577921" lon="17.868686802942">
        <ele>10.6</ele>
        <time>2020-06-08T13:56:48Z</time>
      </trkpt>
      <trkpt lat="59.242955968397" lon="17.868644725804">
        <ele>10.8</ele>
        <time>2020-06-08T13:56:49Z</time>
      </trkpt>
      <trkpt lat="59.243021766312" lon="17.868594685861">
        <ele>10.8</ele>
        <time>2020-06-08T13:56:50Z</time>
      </trkpt>
      <trkpt lat="59.243084630562" lon="17.868532156887">
        <ele>10.8</ele>
        <time>2020-06-08T13:56:51Z</time>
      </trkpt>
      <trkpt lat="59.243147913907" lon="17.868459988728">
        <ele>11</ele>
        <time>2020-06-08T13:56:52Z</time>
      </trkpt>
      <trkpt lat="59.243206251931" lon="17.868383797257">
        <ele>11</ele>
        <time>2020-06-08T13:56:53Z</time>
      </trkpt>
      <trkpt lat="59.243260147548" lon="17.868308192519">
        <ele>11</ele>
        <time>2020-06-08T13:56:54Z</time>
      </trkpt>
      <trkpt lat="59.243311444776" lon="17.868225714623">
        <ele>11</ele>
        <time>2020-06-08T13:56:55Z</time>
      </trkpt>
      <trkpt lat="59.2433614009" lon="17.868145164564">
        <ele>11</ele>
        <time>2020-06-08T13:56:56Z</time>
      </trkpt>
      <trkpt lat="59.24340750135" lon="17.868056819338">
        <ele>11</ele>
        <time>2020-06-08T13:56:57Z</time>
      </trkpt>
      <trkpt lat="59.243453434162" lon="17.867970988682">
        <ele>11</ele>
        <time>2020-06-08T13:56:58Z</time>
      </trkpt>
      <trkpt lat="59.243496098033" lon="17.867885074207">
        <ele>11</ele>
        <time>2020-06-08T13:56:59Z</time>
      </trkpt>
      <trkpt lat="59.243535828239" lon="17.867802847768">
        <ele>11</ele>
        <time>2020-06-08T13:57:00Z</time>
      </trkpt>
      <trkpt lat="59.243579497938" lon="17.867738642414">
        <ele>11</ele>
        <time>2020-06-08T13:57:01Z</time>
      </trkpt>
      <trkpt lat="59.243629873157" lon="17.867715843646">
        <ele>11</ele>
        <time>2020-06-08T13:57:02Z</time>
      </trkpt>
      <trkpt lat="59.243680835109" lon="17.867734619102">
        <ele>11</ele>
        <time>2020-06-08T13:57:03Z</time>
      </trkpt>
      <trkpt lat="59.243735066002" lon="17.867762530829">
        <ele>11</ele>
        <time>2020-06-08T13:57:04Z</time>
      </trkpt>
      <trkpt lat="59.243795750958" lon="17.867788598538">
        <ele>11</ele>
        <time>2020-06-08T13:57:05Z</time>
      </trkpt>
      <trkpt lat="59.243860543045" lon="17.867809720926">
        <ele>11</ele>
        <time>2020-06-08T13:57:06Z</time>
      </trkpt>
      <trkpt lat="59.243926005684" lon="17.867828747839">
        <ele>11</ele>
        <time>2020-06-08T13:57:07Z</time>
      </trkpt>
      <trkpt lat="59.243994485807" lon="17.867843164707">
        <ele>10.8</ele>
        <time>2020-06-08T13:57:08Z</time>
      </trkpt>
      <trkpt lat="59.24406296593" lon="17.867854815548">
        <ele>10.8</ele>
        <time>2020-06-08T13:57:09Z</time>
      </trkpt>
      <trkpt lat="59.244131362234" lon="17.867858335946">
        <ele>10.8</ele>
        <time>2020-06-08T13:57:10Z</time>
      </trkpt>
      <trkpt lat="59.244200093814" lon="17.867853222987">
        <ele>10.8</ele>
        <time>2020-06-08T13:57:11Z</time>
      </trkpt>
      <trkpt lat="59.244268657756" lon="17.867848361485">
        <ele>10.2</ele>
        <time>2020-06-08T13:57:12Z</time>
      </trkpt>
      <trkpt lat="59.24433705406" lon="17.867843164707">
        <ele>9.8</ele>
        <time>2020-06-08T13:57:13Z</time>
      </trkpt>
      <trkpt lat="59.244405366545" lon="17.867844002897">
        <ele>9.4</ele>
        <time>2020-06-08T13:57:14Z</time>
      </trkpt>
      <trkpt lat="59.244472924659" lon="17.867849954046">
        <ele>9.2</ele>
        <time>2020-06-08T13:57:15Z</time>
      </trkpt>
      <trkpt lat="59.24454073423" lon="17.867864790009">
        <ele>9</ele>
        <time>2020-06-08T13:57:16Z</time>
      </trkpt>
      <trkpt lat="59.244606867421" lon="17.867887672596">
        <ele>8.8</ele>
        <time>2020-06-08T13:57:17Z</time>
      </trkpt>
      <trkpt lat="59.244672413879" lon="17.867916254875">
        <ele>8.8</ele>
        <time>2020-06-08T13:57:18Z</time>
      </trkpt>
      <trkpt lat="59.244738379432" lon="17.867947351724">
        <ele>8.8</ele>
        <time>2020-06-08T13:57:19Z</time>
      </trkpt>
      <trkpt lat="59.244804093528" lon="17.867976520736">
        <ele>8.6</ele>
        <time>2020-06-08T13:57:20Z</time>
      </trkpt>
      <trkpt lat="59.244869975262" lon="17.868002756083">
        <ele>8.6</ele>
        <time>2020-06-08T13:57:21Z</time>
      </trkpt>
      <trkpt lat="59.244935605539" lon="17.868022453548">
        <ele>8.6</ele>
        <time>2020-06-08T13:57:22Z</time>
      </trkpt>
      <trkpt lat="59.24500090054" lon="17.868030248715">
        <ele>8.6</ele>
        <time>2020-06-08T13:57:23Z</time>
      </trkpt>
      <trkpt lat="59.245065776446" lon="17.868022202091">
        <ele>8.6</ele>
        <time>2020-06-08T13:57:24Z</time>
      </trkpt>
      <trkpt lat="59.24513081999" lon="17.868000157694">
        <ele>8.6</ele>
        <time>2020-06-08T13:57:25Z</time>
      </trkpt>
      <trkpt lat="59.245194690068" lon="17.86796696537">
        <ele>8.6</ele>
        <time>2020-06-08T13:57:26Z</time>
      </trkpt>
      <trkpt lat="59.245256129395" lon="17.867926648431">
        <ele>8.8</ele>
        <time>2020-06-08T13:57:27Z</time>
      </trkpt>
      <trkpt lat="59.245318155455" lon="17.867892115003">
        <ele>8.8</ele>
        <time>2020-06-08T13:57:28Z</time>
      </trkpt>
      <trkpt lat="59.245380265334" lon="17.867862023982">
        <ele>9</ele>
        <time>2020-06-08T13:57:29Z</time>
      </trkpt>
      <trkpt lat="59.245437932806" lon="17.867831010952">
        <ele>9</ele>
        <time>2020-06-08T13:57:30Z</time>
      </trkpt>
      <trkpt lat="59.245494091536" lon="17.867798405361">
        <ele>9</ele>
        <time>2020-06-08T13:57:31Z</time>
      </trkpt>
      <trkpt lat="59.245552010465" lon="17.867782228294">
        <ele>9</ele>
        <time>2020-06-08T13:57:32Z</time>
      </trkpt>
      <trkpt lat="59.245609594118" lon="17.867777702068">
        <ele>9</ele>
        <time>2020-06-08T13:57:33Z</time>
      </trkpt>
      <trkpt lat="59.245664914658" lon="17.867775522774">
        <ele>9</ele>
        <time>2020-06-08T13:57:34Z</time>
      </trkpt>
      <trkpt lat="59.245715206058" lon="17.867777869706">
        <ele>9</ele>
        <time>2020-06-08T13:57:35Z</time>
      </trkpt>
      <trkpt lat="59.245760971232" lon="17.867788095624">
        <ele>9.2</ele>
        <time>2020-06-08T13:57:36Z</time>
      </trkpt>
      <trkpt lat="59.245805395302" lon="17.86779765099">
        <ele>9.2</ele>
        <time>2020-06-08T13:57:37Z</time>
      </trkpt>
      <trkpt lat="59.245852417761" lon="17.867801925759">
        <ele>9.2</ele>
        <time>2020-06-08T13:57:38Z</time>
      </trkpt>
      <trkpt lat="59.245904720817" lon="17.867804943243">
        <ele>9.2</ele>
        <time>2020-06-08T13:57:39Z</time>
      </trkpt>
      <trkpt lat="59.245958867891" lon="17.86780687108">
        <ele>9.2</ele>
        <time>2020-06-08T13:57:40Z</time>
      </trkpt>
      <trkpt lat="59.24601175768" lon="17.867811145849">
        <ele>9.2</ele>
        <time>2020-06-08T13:57:41Z</time>
      </trkpt>
      <trkpt lat="59.246065066564" lon="17.867822461414">
        <ele>9.2</ele>
        <time>2020-06-08T13:57:42Z</time>
      </trkpt>
      <trkpt lat="59.246119548914" lon="17.867842997069">
        <ele>9.2</ele>
        <time>2020-06-08T13:57:43Z</time>
      </trkpt>
      <trkpt lat="59.246174450359" lon="17.867869819149">
        <ele>9.4</ele>
        <time>2020-06-08T13:57:44Z</time>
      </trkpt>
      <trkpt lat="59.246230106175" lon="17.867895132487">
        <ele>9.4</ele>
        <time>2020-06-08T13:57:45Z</time>
      </trkpt>
      <trkpt lat="59.246285342896" lon="17.867925223508">
        <ele>9.4</ele>
        <time>2020-06-08T13:57:46Z</time>
      </trkpt>
      <trkpt lat="59.246339406151" lon="17.867961600954">
        <ele>9.4</ele>
        <time>2020-06-08T13:57:47Z</time>
      </trkpt>
      <trkpt lat="59.246392212121" lon="17.868003761911">
        <ele>9.4</ele>
        <time>2020-06-08T13:57:48Z</time>
      </trkpt>
      <trkpt lat="59.246444515177" lon="17.868046509601">
        <ele>9.4</ele>
        <time>2020-06-08T13:57:49Z</time>
      </trkpt>
      <trkpt lat="59.246496734414" lon="17.868082719409">
        <ele>9.4</ele>
        <time>2020-06-08T13:57:50Z</time>
      </trkpt>
      <trkpt lat="59.246549456565" lon="17.868111804602">
        <ele>9.4</ele>
        <time>2020-06-08T13:57:51Z</time>
      </trkpt>
      <trkpt lat="59.246598825956" lon="17.868133681361">
        <ele>9.4</ele>
        <time>2020-06-08T13:57:52Z</time>
      </trkpt>
      <trkpt lat="59.24664542932" lon="17.868153295007">
        <ele>9.6</ele>
        <time>2020-06-08T13:57:53Z</time>
      </trkpt>
      <trkpt lat="59.246691781227" lon="17.86817818925">
        <ele>9.6</ele>
        <time>2020-06-08T13:57:54Z</time>
      </trkpt>
      <trkpt lat="59.246741485894" lon="17.868207609719">
        <ele>9.6</ele>
        <time>2020-06-08T13:57:55Z</time>
      </trkpt>
      <trkpt lat="59.246792699303" lon="17.868236778731">
        <ele>9.6</ele>
        <time>2020-06-08T13:57:56Z</time>
      </trkpt>
      <trkpt lat="59.246840811409" lon="17.868264858096">
        <ele>9.6</ele>
        <time>2020-06-08T13:57:57Z</time>
      </trkpt>
      <trkpt lat="59.246886241307" lon="17.868304085388">
        <ele>9.6</ele>
        <time>2020-06-08T13:57:58Z</time>
      </trkpt>
      <trkpt lat="59.246931000653" lon="17.868356136987">
        <ele>9.6</ele>
        <time>2020-06-08T13:57:59Z</time>
      </trkpt>
      <trkpt lat="59.246978526026" lon="17.868405087283">
        <ele>9.8</ele>
        <time>2020-06-08T13:58:00Z</time>
      </trkpt>
      <trkpt lat="59.247028146874" lon="17.86844305729">
        <ele>9.8</ele>
        <time>2020-06-08T13:58:01Z</time>
      </trkpt>
      <trkpt lat="59.24707793536" lon="17.868473651225">
        <ele>9.8</ele>
        <time>2020-06-08T13:58:02Z</time>
      </trkpt>
      <trkpt lat="59.247132333891" lon="17.868497455821">
        <ele>10</ele>
        <time>2020-06-08T13:58:03Z</time>
      </trkpt>
      <trkpt lat="59.247187570612" lon="17.868517404743">
        <ele>10</ele>
        <time>2020-06-08T13:58:04Z</time>
      </trkpt>
      <trkpt lat="59.247245238084" lon="17.868544645918">
        <ele>10</ele>
        <time>2020-06-08T13:58:05Z</time>
      </trkpt>
      <trkpt lat="59.247301229176" lon="17.868574066387">
        <ele>10</ele>
        <time>2020-06-08T13:58:06Z</time>
      </trkpt>
      <trkpt lat="59.247352358766" lon="17.868599379725">
        <ele>10</ele>
        <time>2020-06-08T13:58:07Z</time>
      </trkpt>
      <trkpt lat="59.247401979614" lon="17.868626034167">
        <ele>10</ele>
        <time>2020-06-08T13:58:08Z</time>
      </trkpt>
      <trkpt lat="59.247453276842" lon="17.8686517666">
        <ele>10</ele>
        <time>2020-06-08T13:58:09Z</time>
      </trkpt>
      <trkpt lat="59.247503652061" lon="17.86867439773">
        <ele>10</ele>
        <time>2020-06-08T13:58:10Z</time>
      </trkpt>
      <trkpt lat="59.247555368384" lon="17.86870038162">
        <ele>10</ele>
        <time>2020-06-08T13:58:11Z</time>
      </trkpt>
      <trkpt lat="59.247606665612" lon="17.868733238668">
        <ele>10</ele>
        <time>2020-06-08T13:58:12Z</time>
      </trkpt>
      <trkpt lat="59.247658717211" lon="17.868769783752">
        <ele>10</ele>
        <time>2020-06-08T13:58:13Z</time>
      </trkpt>
      <trkpt lat="59.247711942276" lon="17.868805406827">
        <ele>10</ele>
        <time>2020-06-08T13:58:14Z</time>
      </trkpt>
      <trkpt lat="59.247766843721" lon="17.868838766789">
        <ele>10</ele>
        <time>2020-06-08T13:58:15Z</time>
      </trkpt>
      <trkpt lat="59.247823002451" lon="17.868873719312">
        <ele>10</ele>
        <time>2020-06-08T13:58:16Z</time>
      </trkpt>
      <trkpt lat="59.247877903896" lon="17.868912108414">
        <ele>10</ele>
        <time>2020-06-08T13:58:17Z</time>
      </trkpt>
      <trkpt lat="59.247932553884" lon="17.868956700122">
        <ele>10</ele>
        <time>2020-06-08T13:58:18Z</time>
      </trkpt>
      <trkpt lat="59.247986784777" lon="17.86900464459">
        <ele>10</ele>
        <time>2020-06-08T13:58:19Z</time>
      </trkpt>
      <trkpt lat="59.248042272955" lon="17.869050325945">
        <ele>10</ele>
        <time>2020-06-08T13:58:20Z</time>
      </trkpt>
      <trkpt lat="59.248099269875" lon="17.869094163282">
        <ele>10</ele>
        <time>2020-06-08T13:58:21Z</time>
      </trkpt>
      <trkpt lat="59.248155931519" lon="17.869137497705">
        <ele>10</ele>
        <time>2020-06-08T13:58:22Z</time>
      </trkpt>
      <trkpt lat="59.248211922611" lon="17.869187118553">
        <ele>10</ele>
        <time>2020-06-08T13:58:23Z</time>
      </trkpt>
      <trkpt lat="59.248265734409" lon="17.869246630043">
        <ele>10</ele>
        <time>2020-06-08T13:58:24Z</time>
      </trkpt>
      <trkpt lat="59.24831678018" lon="17.869318714383">
        <ele>10</ele>
        <time>2020-06-08T13:58:25Z</time>
      </trkpt>
      <trkpt lat="59.248364976105" lon="17.869396163139">
        <ele>10</ele>
        <time>2020-06-08T13:58:26Z</time>
      </trkpt>
      <trkpt lat="59.248415099867" lon="17.869463385977">
        <ele>10</ele>
        <time>2020-06-08T13:58:27Z</time>
      </trkpt>
      <trkpt lat="59.248468995484" lon="17.869501188346">
        <ele>10</ele>
        <time>2020-06-08T13:58:28Z</time>
      </trkpt>
      <trkpt lat="59.248524148386" lon="17.869510995169">
        <ele>10</ele>
        <time>2020-06-08T13:58:29Z</time>
      </trkpt>
      <trkpt lat="59.248580474754" lon="17.869520801992">
        <ele>10</ele>
        <time>2020-06-08T13:58:30Z</time>
      </trkpt>
      <trkpt lat="59.248635543837" lon="17.869541253828">
        <ele>10</ele>
        <time>2020-06-08T13:58:31Z</time>
      </trkpt>
      <trkpt lat="59.248690780558" lon="17.869564304053">
        <ele>10</ele>
        <time>2020-06-08T13:58:32Z</time>
      </trkpt>
      <trkpt lat="59.248746520193" lon="17.869586432269">
        <ele>10</ele>
        <time>2020-06-08T13:58:33Z</time>
      </trkpt>
      <trkpt lat="59.248802762742" lon="17.869610153046">
        <ele>10</ele>
        <time>2020-06-08T13:58:34Z</time>
      </trkpt>
      <trkpt lat="59.248858418558" lon="17.869634795832">
        <ele>10</ele>
        <time>2020-06-08T13:58:35Z</time>
      </trkpt>
      <trkpt lat="59.248915164021" lon="17.869653990383">
        <ele>10</ele>
        <time>2020-06-08T13:58:36Z</time>
      </trkpt>
      <trkpt lat="59.248971658027" lon="17.86967184383">
        <ele>10.2</ele>
        <time>2020-06-08T13:58:37Z</time>
      </trkpt>
      <trkpt lat="59.249026224196" lon="17.869690200191">
        <ele>10.4</ele>
        <time>2020-06-08T13:58:38Z</time>
      </trkpt>
      <trkpt lat="59.249079700718" lon="17.869712412226">
        <ele>10.8</ele>
        <time>2020-06-08T13:58:39Z</time>
      </trkpt>
      <trkpt lat="59.249131752317" lon="17.869743425256">
        <ele>11</ele>
        <time>2020-06-08T13:58:40Z</time>
      </trkpt>
      <trkpt lat="59.249182378993" lon="17.869782904005">
        <ele>11</ele>
        <time>2020-06-08T13:58:41Z</time>
      </trkpt>
      <trkpt lat="59.24923292185" lon="17.869825400238">
        <ele>11</ele>
        <time>2020-06-08T13:58:42Z</time>
      </trkpt>
      <trkpt lat="59.249282626517" lon="17.869867477376">
        <ele>11</ele>
        <time>2020-06-08T13:58:43Z</time>
      </trkpt>
      <trkpt lat="59.249329565157" lon="17.869922797916">
        <ele>11</ele>
        <time>2020-06-08T13:58:44Z</time>
      </trkpt>
      <trkpt lat="59.249373821589" lon="17.869979711017">
        <ele>11</ele>
        <time>2020-06-08T13:58:45Z</time>
      </trkpt>
      <trkpt lat="59.249417826564" lon="17.870037546127">
        <ele>11</ele>
        <time>2020-06-08T13:58:46Z</time>
      </trkpt>
      <trkpt lat="59.249464010833" lon="17.870098231083">
        <ele>11</ele>
        <time>2020-06-08T13:58:47Z</time>
      </trkpt>
      <trkpt lat="59.249512793491" lon="17.870145588818">
        <ele>11</ele>
        <time>2020-06-08T13:58:48Z</time>
      </trkpt>
      <trkpt lat="59.249545147625" lon="17.870135698176">
        <ele>11</ele>
        <time>2020-06-08T13:58:49Z</time>
      </trkpt>
      <trkpt lat="59.249577082664" lon="17.870098901635">
        <ele>11</ele>
        <time>2020-06-08T13:58:50Z</time>
      </trkpt>
      <trkpt lat="59.249600384346" lon="17.870033187539">
        <ele>11</ele>
        <time>2020-06-08T13:58:51Z</time>
      </trkpt>
      <trkpt lat="59.249631145919" lon="17.869920283346">
        <ele>11</ele>
        <time>2020-06-08T13:58:52Z</time>
      </trkpt>
      <trkpt lat="59.249637013249" lon="17.86981182156">
        <ele>11</ele>
        <time>2020-06-08T13:58:53Z</time>
      </trkpt>
      <trkpt lat="59.249637432344" lon="17.869710652027">
        <ele>10.8</ele>
        <time>2020-06-08T13:58:54Z</time>
      </trkpt>
      <trkpt lat="59.249639276362" lon="17.869617445299">
        <ele>10.8</ele>
        <time>2020-06-08T13:58:55Z</time>
      </trkpt>
      <trkpt lat="59.249646233339" lon="17.869536140869">
        <ele>10.8</ele>
        <time>2020-06-08T13:58:56Z</time>
      </trkpt>
      <trkpt lat="59.249670792306" lon="17.869471264963">
        <ele>10.8</ele>
        <time>2020-06-08T13:58:57Z</time>
      </trkpt>
      <trkpt lat="59.249709935779" lon="17.869416866432">
        <ele>10.8</ele>
        <time>2020-06-08T13:58:58Z</time>
      </trkpt>
      <trkpt lat="59.249751090908" lon="17.869380740443">
        <ele>10.8</ele>
        <time>2020-06-08T13:58:59Z</time>
      </trkpt>
      <trkpt lat="59.249791324028" lon="17.869339417676">
        <ele>10.8</ele>
        <time>2020-06-08T13:59:00Z</time>
      </trkpt>
      <trkpt lat="59.249830216044" lon="17.869303124049">
        <ele>10.8</ele>
        <time>2020-06-08T13:59:01Z</time>
      </trkpt>
      <trkpt lat="59.249871371173" lon="17.869266662784">
        <ele>10.8</ele>
        <time>2020-06-08T13:59:02Z</time>
      </trkpt>
      <trkpt lat="59.249913867406" lon="17.869222406352">
        <ele>11</ele>
        <time>2020-06-08T13:59:03Z</time>
      </trkpt>
      <trkpt lat="59.249951669775" lon="17.869165493251">
        <ele>11.2</ele>
        <time>2020-06-08T13:59:04Z</time>
      </trkpt>
      <trkpt lat="59.249989220687" lon="17.869095755843">
        <ele>11.4</ele>
        <time>2020-06-08T13:59:05Z</time>
      </trkpt>
      <trkpt lat="59.250023670296" lon="17.869025012607">
        <ele>11.4</ele>
        <time>2020-06-08T13:59:06Z</time>
      </trkpt>
      <trkpt lat="59.25005770081" lon="17.868953179724">
        <ele>11.4</ele>
        <time>2020-06-08T13:59:07Z</time>
      </trkpt>
      <trkpt lat="59.250094413532" lon="17.868879586642">
        <ele>11.4</ele>
        <time>2020-06-08T13:59:08Z</time>
      </trkpt>
      <trkpt lat="59.250135317204" lon="17.868806747931">
        <ele>11.4</ele>
        <time>2020-06-08T13:59:09Z</time>
      </trkpt>
      <trkpt lat="59.250179489817" lon="17.868739525093">
        <ele>11.4</ele>
        <time>2020-06-08T13:59:10Z</time>
      </trkpt>
      <trkpt lat="59.250221064041" lon="17.868680684155">
        <ele>11.4</ele>
        <time>2020-06-08T13:59:11Z</time>
      </trkpt>
      <trkpt lat="59.250265488111" lon="17.868621005027">
        <ele>11.4</ele>
        <time>2020-06-08T13:59:12Z</time>
      </trkpt>
      <trkpt lat="59.250308906353" lon="17.868563337555">
        <ele>11.4</ele>
        <time>2020-06-08T13:59:13Z</time>
      </trkpt>
      <trkpt lat="59.250348133645" lon="17.868525451367">
        <ele>11.2</ele>
        <time>2020-06-08T13:59:14Z</time>
      </trkpt>
      <trkpt lat="59.250392054801" lon="17.868483038953">
        <ele>11.2</ele>
        <time>2020-06-08T13:59:15Z</time>
      </trkpt>
      <trkpt lat="59.250421307632" lon="17.868435597399">
        <ele>11.2</ele>
        <time>2020-06-08T13:59:16Z</time>
      </trkpt>
      <trkpt lat="59.250448716445" lon="17.868388826397">
        <ele>11.2</ele>
        <time>2020-06-08T13:59:17Z</time>
      </trkpt>
      <trkpt lat="59.250481908769" lon="17.868343564137">
        <ele>11.2</ele>
        <time>2020-06-08T13:59:18Z</time>
      </trkpt>
      <trkpt lat="59.250518621491" lon="17.868295368212">
        <ele>11.2</ele>
        <time>2020-06-08T13:59:19Z</time>
      </trkpt>
      <trkpt lat="59.250550388892" lon="17.868249351581">
        <ele>11.2</ele>
        <time>2020-06-08T13:59:20Z</time>
      </trkpt>
      <trkpt lat="59.250579809361" lon="17.868203167312">
        <ele>11.2</ele>
        <time>2020-06-08T13:59:21Z</time>
      </trkpt>
      <trkpt lat="59.250612331133" lon="17.868149439333">
        <ele>11.2</ele>
        <time>2020-06-08T13:59:22Z</time>
      </trkpt>
      <trkpt lat="59.25064191924" lon="17.868100656675">
        <ele>11.4</ele>
        <time>2020-06-08T13:59:23Z</time>
      </trkpt>
      <trkpt lat="59.25067460865" lon="17.868054723863">
        <ele>11.6</ele>
        <time>2020-06-08T13:59:24Z</time>
      </trkpt>
      <trkpt lat="59.250714087399" lon="17.86800133116">
        <ele>11.8</ele>
        <time>2020-06-08T13:59:25Z</time>
      </trkpt>
      <trkpt lat="59.250747279723" lon="17.867953386692">
        <ele>12</ele>
        <time>2020-06-08T13:59:26Z</time>
      </trkpt>
      <trkpt lat="59.250774520898" lon="17.867896473591">
        <ele>12.2</ele>
        <time>2020-06-08T13:59:27Z</time>
      </trkpt>
      <trkpt lat="59.250806623575" lon="17.867840650137">
        <ele>12.4</ele>
        <time>2020-06-08T13:59:28Z</time>
      </trkpt>
      <trkpt lat="59.250830009076" lon="17.867785245778">
        <ele>12.8</ele>
        <time>2020-06-08T13:59:29Z</time>
      </trkpt>
      <trkpt lat="59.250864626323" lon="17.86774065407">
        <ele>13.4</ele>
        <time>2020-06-08T13:59:30Z</time>
      </trkpt>
      <trkpt lat="59.250903183063" lon="17.867702684063">
        <ele>13.8</ele>
        <time>2020-06-08T13:59:31Z</time>
      </trkpt>
      <trkpt lat="59.250948193866" lon="17.867682902779">
        <ele>14.4</ele>
        <time>2020-06-08T13:59:32Z</time>
      </trkpt>
      <trkpt lat="59.25099479723" lon="17.867666809531">
        <ele>14.8</ele>
        <time>2020-06-08T13:59:33Z</time>
      </trkpt>
      <trkpt lat="59.251047184105" lon="17.867653649948">
        <ele>15</ele>
        <time>2020-06-08T13:59:34Z</time>
      </trkpt>
      <trkpt lat="59.251104181025" lon="17.86762666023">
        <ele>15</ele>
        <time>2020-06-08T13:59:35Z</time>
      </trkpt>
      <trkpt lat="59.251158831013" lon="17.86759732358">
        <ele>15.2</ele>
        <time>2020-06-08T13:59:36Z</time>
      </trkpt>
      <trkpt lat="59.251210882612" lon="17.867569579491">
        <ele>15.2</ele>
        <time>2020-06-08T13:59:37Z</time>
      </trkpt>
      <trkpt lat="59.251258324166" lon="17.867532615312">
        <ele>15.2</ele>
        <time>2020-06-08T13:59:38Z</time>
      </trkpt>
      <trkpt lat="59.251302580598" lon="17.867476205125">
        <ele>15.2</ele>
        <time>2020-06-08T13:59:39Z</time>
      </trkpt>
      <trkpt lat="59.251330827601" lon="17.867400768025">
        <ele>15.2</ele>
        <time>2020-06-08T13:59:40Z</time>
      </trkpt>
      <trkpt lat="59.251334599456" lon="17.867322481079">
        <ele>15.2</ele>
        <time>2020-06-08T13:59:41Z</time>
      </trkpt>
      <trkpt lat="59.251323786805" lon="17.86723857826">
        <ele>15</ele>
        <time>2020-06-08T13:59:42Z</time>
      </trkpt>
      <trkpt lat="59.251302496779" lon="17.867157860563">
        <ele>14.8</ele>
        <time>2020-06-08T13:59:43Z</time>
      </trkpt>
      <trkpt lat="59.251280200925" lon="17.867078651608">
        <ele>14.4</ele>
        <time>2020-06-08T13:59:44Z</time>
      </trkpt>
      <trkpt lat="59.251259329994" lon="17.86699885592">
        <ele>14.4</ele>
        <time>2020-06-08T13:59:45Z</time>
      </trkpt>
      <trkpt lat="59.25124122509" lon="17.866914617825">
        <ele>14.4</ele>
        <time>2020-06-08T13:59:46Z</time>
      </trkpt>
      <trkpt lat="59.251224796566" lon="17.866828619531">
        <ele>14.2</ele>
        <time>2020-06-08T13:59:47Z</time>
      </trkpt>
      <trkpt lat="59.251205853472" lon="17.86674823711">
        <ele>14.2</ele>
        <time>2020-06-08T13:59:48Z</time>
      </trkpt>
      <trkpt lat="59.251184395808" lon="17.866671542725">
        <ele>14.2</ele>
        <time>2020-06-08T13:59:49Z</time>
      </trkpt>
      <trkpt lat="59.251161848497" lon="17.86659903929">
        <ele>14.2</ele>
        <time>2020-06-08T13:59:50Z</time>
      </trkpt>
      <trkpt lat="59.251138630634" lon="17.866528798968">
        <ele>14.2</ele>
        <time>2020-06-08T13:59:51Z</time>
      </trkpt>
      <trkpt lat="59.251116167142" lon="17.866457049904">
        <ele>14.2</ele>
        <time>2020-06-08T13:59:52Z</time>
      </trkpt>
      <trkpt lat="59.251094877116" lon="17.86638613903">
        <ele>14.2</ele>
        <time>2020-06-08T13:59:53Z</time>
      </trkpt>
      <trkpt lat="59.251075431108" lon="17.866314306147">
        <ele>14.4</ele>
        <time>2020-06-08T13:59:54Z</time>
      </trkpt>
      <trkpt lat="59.251056990928" lon="17.866239623418">
        <ele>14.4</ele>
        <time>2020-06-08T13:59:55Z</time>
      </trkpt>
      <trkpt lat="59.251038886024" lon="17.866164773051">
        <ele>14.6</ele>
        <time>2020-06-08T13:59:56Z</time>
      </trkpt>
      <trkpt lat="59.251020445844" lon="17.866091850521">
        <ele>14.8</ele>
        <time>2020-06-08T13:59:57Z</time>
      </trkpt>
      <trkpt lat="59.251001586569" lon="17.866019095629">
        <ele>15.2</ele>
        <time>2020-06-08T13:59:58Z</time>
      </trkpt>
      <trkpt lat="59.250981972923" lon="17.865948436212">
        <ele>15.4</ele>
        <time>2020-06-08T13:59:59Z</time>
      </trkpt>
      <trkpt lat="59.250963700381" lon="17.865880375184">
        <ele>15.8</ele>
        <time>2020-06-08T14:00:00Z</time>
      </trkpt>
      <trkpt lat="59.250948110047" lon="17.865813822898">
        <ele>16</ele>
        <time>2020-06-08T14:00:01Z</time>
      </trkpt>
      <trkpt lat="59.250934112274" lon="17.865748527897">
        <ele>16.2</ele>
        <time>2020-06-08T14:00:02Z</time>
      </trkpt>
      <trkpt lat="59.250920365958" lon="17.865690608968">
        <ele>16.4</ele>
        <time>2020-06-08T14:00:03Z</time>
      </trkpt>
      <trkpt lat="59.250911062049" lon="17.865638725007">
        <ele>16.6</ele>
        <time>2020-06-08T14:00:04Z</time>
      </trkpt>
      <trkpt lat="59.25090678728" lon="17.865585919037">
        <ele>16.8</ele>
        <time>2020-06-08T14:00:05Z</time>
      </trkpt>
      <trkpt lat="59.25090594909" lon="17.865531352868">
        <ele>17</ele>
        <time>2020-06-08T14:00:06Z</time>
      </trkpt>
      <trkpt lat="59.250909134212" lon="17.86548005564">
        <ele>17.4</ele>
        <time>2020-06-08T14:00:07Z</time>
      </trkpt>
      <trkpt lat="59.250916677922" lon="17.865428674593">
        <ele>17.8</ele>
        <time>2020-06-08T14:00:08Z</time>
      </trkpt>
      <trkpt lat="59.250928412582" lon="17.86537109094">
        <ele>18</ele>
        <time>2020-06-08T14:00:09Z</time>
      </trkpt>
      <trkpt lat="59.250947607133" lon="17.865308310509">
        <ele>18.2</ele>
        <time>2020-06-08T14:00:10Z</time>
      </trkpt>
      <trkpt lat="59.250975183584" lon="17.86524787701">
        <ele>18.6</ele>
        <time>2020-06-08T14:00:11Z</time>
      </trkpt>
      <trkpt lat="59.251007872994" lon="17.865192053556">
        <ele>18.8</ele>
        <time>2020-06-08T14:00:12Z</time>
      </trkpt>
      <trkpt lat="59.251044166621" lon="17.865141594518">
        <ele>19</ele>
        <time>2020-06-08T14:00:13Z</time>
      </trkpt>
      <trkpt lat="59.251083896827" lon="17.865095074973">
        <ele>19</ele>
        <time>2020-06-08T14:00:14Z</time>
      </trkpt>
      <trkpt lat="59.251123291757" lon="17.865048303971">
        <ele>19</ele>
        <time>2020-06-08T14:00:15Z</time>
      </trkpt>
      <trkpt lat="59.251162602868" lon="17.864999269856">
        <ele>19.2</ele>
        <time>2020-06-08T14:00:16Z</time>
      </trkpt>
      <trkpt lat="59.251199902323" lon="17.864947888809">
        <ele>19.2</ele>
        <time>2020-06-08T14:00:17Z</time>
      </trkpt>
      <trkpt lat="59.251237537054" lon="17.86489835178">
        <ele>19.2</ele>
        <time>2020-06-08T14:00:18Z</time>
      </trkpt>
      <trkpt lat="59.251274333595" lon="17.864849988217">
        <ele>19.2</ele>
        <time>2020-06-08T14:00:19Z</time>
      </trkpt>
      <trkpt lat="59.251310459584" lon="17.864800199731">
        <ele>19.2</ele>
        <time>2020-06-08T14:00:20Z</time>
      </trkpt>
      <trkpt lat="59.25134683703" lon="17.864750075969">
        <ele>19.2</ele>
        <time>2020-06-08T14:00:21Z</time>
      </trkpt>
      <trkpt lat="59.251382460105" lon="17.864696767085">
        <ele>19.4</ele>
        <time>2020-06-08T14:00:22Z</time>
      </trkpt>
      <trkpt lat="59.25141389223" lon="17.864635076301">
        <ele>19.4</ele>
        <time>2020-06-08T14:00:23Z</time>
      </trkpt>
      <trkpt lat="59.251441468681" lon="17.864566512359">
        <ele>19.4</ele>
        <time>2020-06-08T14:00:24Z</time>
      </trkpt>
      <trkpt lat="59.251467787847" lon="17.864499121883">
        <ele>19.4</ele>
        <time>2020-06-08T14:00:25Z</time>
      </trkpt>
      <trkpt lat="59.25149687304" lon="17.864435251805">
        <ele>19.6</ele>
        <time>2020-06-08T14:00:26Z</time>
      </trkpt>
      <trkpt lat="59.251527718432" lon="17.86437280665">
        <ele>19.8</ele>
        <time>2020-06-08T14:00:27Z</time>
      </trkpt>
      <trkpt lat="59.251557641815" lon="17.864314720083">
        <ele>20</ele>
        <time>2020-06-08T14:00:28Z</time>
      </trkpt>
      <trkpt lat="59.251582284601" lon="17.864270882746">
        <ele>20.2</ele>
        <time>2020-06-08T14:00:29Z</time>
      </trkpt>
      <trkpt lat="59.251608100853" lon="17.864221178079">
        <ele>20.4</ele>
        <time>2020-06-08T14:00:30Z</time>
      </trkpt>
      <trkpt lat="59.251634671476" lon="17.864163762064">
        <ele>20.4</ele>
        <time>2020-06-08T14:00:31Z</time>
      </trkpt>
      <trkpt lat="59.251661074461" lon="17.864108692981">
        <ele>20.6</ele>
        <time>2020-06-08T14:00:32Z</time>
      </trkpt>
      <trkpt lat="59.251692841862" lon="17.864058736857">
        <ele>20.6</ele>
        <time>2020-06-08T14:00:33Z</time>
      </trkpt>
      <trkpt lat="59.251729554584" lon="17.864019174289">
        <ele>20.8</ele>
        <time>2020-06-08T14:00:34Z</time>
      </trkpt>
      <trkpt lat="59.251767776048" lon="17.86398556287">
        <ele>21.2</ele>
        <time>2020-06-08T14:00:35Z</time>
      </trkpt>
      <trkpt lat="59.251802980028" lon="17.863950107433">
        <ele>21.4</ele>
        <time>2020-06-08T14:00:36Z</time>
      </trkpt>
      <trkpt lat="59.251835166524" lon="17.863907862657">
        <ele>22</ele>
        <time>2020-06-08T14:00:37Z</time>
      </trkpt>
      <trkpt lat="59.251864670812" lon="17.863864360596">
        <ele>22.2</ele>
        <time>2020-06-08T14:00:38Z</time>
      </trkpt>
      <trkpt lat="59.25189501329" lon="17.863823708381">
        <ele>22.4</ele>
        <time>2020-06-08T14:00:39Z</time>
      </trkpt>
      <trkpt lat="59.251929211442" lon="17.863788085306">
        <ele>22.8</ele>
        <time>2020-06-08T14:00:40Z</time>
      </trkpt>
      <trkpt lat="59.251964499241" lon="17.863754390068">
        <ele>23</ele>
        <time>2020-06-08T14:00:41Z</time>
      </trkpt>
      <trkpt lat="59.251999200307" lon="17.863716336242">
        <ele>23.2</ele>
        <time>2020-06-08T14:00:42Z</time>
      </trkpt>
      <trkpt lat="59.252031386803" lon="17.863674845837">
        <ele>23.6</ele>
        <time>2020-06-08T14:00:43Z</time>
      </trkpt>
      <trkpt lat="59.252062064557" lon="17.863630002672">
        <ele>23.8</ele>
        <time>2020-06-08T14:00:44Z</time>
      </trkpt>
      <trkpt lat="59.252090730655" lon="17.863585913878">
        <ele>24.2</ele>
        <time>2020-06-08T14:00:45Z</time>
      </trkpt>
      <trkpt lat="59.252117804192" lon="17.863541405989">
        <ele>24.2</ele>
        <time>2020-06-08T14:00:46Z</time>
      </trkpt>
      <trkpt lat="59.252143368987" lon="17.863493880616">
        <ele>24.4</ele>
        <time>2020-06-08T14:00:47Z</time>
      </trkpt>
      <trkpt lat="59.252168011773" lon="17.86344576851">
        <ele>24.4</ele>
        <time>2020-06-08T14:00:48Z</time>
      </trkpt>
      <trkpt lat="59.252193660387" lon="17.86339966806">
        <ele>24.6</ele>
        <time>2020-06-08T14:00:49Z</time>
      </trkpt>
      <trkpt lat="59.252220566286" lon="17.863360189311">
        <ele>24.8</ele>
        <time>2020-06-08T14:00:50Z</time>
      </trkpt>
      <trkpt lat="59.252245209072" lon="17.863321381114">
        <ele>25</ele>
        <time>2020-06-08T14:00:51Z</time>
      </trkpt>
      <trkpt lat="59.252262559605" lon="17.863278549605">
        <ele>25.2</ele>
        <time>2020-06-08T14:00:52Z</time>
      </trkpt>
      <trkpt lat="59.252268091659" lon="17.86323622101">
        <ele>25.4</ele>
        <time>2020-06-08T14:00:53Z</time>
      </trkpt>
      <trkpt lat="59.252260045035" lon="17.863205627075">
        <ele>25.6</ele>
        <time>2020-06-08T14:00:54Z</time>
      </trkpt>
      <trkpt lat="59.252246382538" lon="17.863208812197">
        <ele>25.8</ele>
        <time>2020-06-08T14:00:55Z</time>
      </trkpt>
      <trkpt lat="59.252239090285" lon="17.863237478295">
        <ele>25.8</ele>
        <time>2020-06-08T14:00:56Z</time>
      </trkpt>
      <trkpt lat="59.252230876023" lon="17.863277124682">
        <ele>26</ele>
        <time>2020-06-08T14:00:57Z</time>
      </trkpt>
      <trkpt lat="59.252217381164" lon="17.863323225132">
        <ele>26.2</ele>
        <time>2020-06-08T14:00:58Z</time>
      </trkpt>
      <trkpt lat="59.252197683699" lon="17.863368822668">
        <ele>26.2</ele>
        <time>2020-06-08T14:00:59Z</time>
      </trkpt>
      <trkpt lat="59.252182596279" lon="17.863414839299">
        <ele>26.4</ele>
        <time>2020-06-08T14:01:00Z</time>
      </trkpt>
      <trkpt lat="59.252180165528" lon="17.863458173722">
        <ele>26.4</ele>
        <time>2020-06-08T14:01:01Z</time>
      </trkpt>
      <trkpt lat="59.252188295971" lon="17.863493796797">
        <ele>26.4</ele>
        <time>2020-06-08T14:01:02Z</time>
      </trkpt>
      <trkpt lat="59.25220765816" lon="17.863521708524">
        <ele>26.4</ele>
        <time>2020-06-08T14:01:03Z</time>
      </trkpt>
      <trkpt lat="59.252233725869" lon="17.863545932215">
        <ele>26.4</ele>
        <time>2020-06-08T14:01:04Z</time>
      </trkpt>
      <trkpt lat="59.252266834374" lon="17.863564120938">
        <ele>26.4</ele>
        <time>2020-06-08T14:01:05Z</time>
      </trkpt>
      <trkpt lat="59.252298853232" lon="17.863550123165">
        <ele>26.6</ele>
        <time>2020-06-08T14:01:06Z</time>
      </trkpt>
      <trkpt lat="59.252327435511" lon="17.86351030914">
        <ele>26.6</ele>
        <time>2020-06-08T14:01:07Z</time>
      </trkpt>
      <trkpt lat="59.252351407745" lon="17.863459850102">
        <ele>26.6</ele>
        <time>2020-06-08T14:01:08Z</time>
      </trkpt>
      <trkpt lat="59.252372278676" lon="17.863403942829">
        <ele>26.6</ele>
        <time>2020-06-08T14:01:09Z</time>
      </trkpt>
      <trkpt lat="59.252393317245" lon="17.863347616461">
        <ele>26.6</ele>
        <time>2020-06-08T14:01:10Z</time>
      </trkpt>
      <trkpt lat="59.252417624755" lon="17.863299420536">
        <ele>26.6</ele>
        <time>2020-06-08T14:01:11Z</time>
      </trkpt>
      <trkpt lat="59.252445787939" lon="17.863257678674">
        <ele>26.6</ele>
        <time>2020-06-08T14:01:12Z</time>
      </trkpt>
      <trkpt lat="59.252475208408" lon="17.863221552685">
        <ele>26.6</ele>
        <time>2020-06-08T14:01:13Z</time>
      </trkpt>
      <trkpt lat="59.252505718524" lon="17.863188360361">
        <ele>26.6</ele>
        <time>2020-06-08T14:01:14Z</time>
      </trkpt>
      <trkpt lat="59.252534887536" lon="17.863153156381">
        <ele>26.6</ele>
        <time>2020-06-08T14:01:15Z</time>
      </trkpt>
      <trkpt lat="59.252563637453" lon="17.86311719803">
        <ele>26.6</ele>
        <time>2020-06-08T14:01:16Z</time>
      </trkpt>
      <trkpt lat="59.252592135913" lon="17.863079563299">
        <ele>26.8</ele>
        <time>2020-06-08T14:01:17Z</time>
      </trkpt>
      <trkpt lat="59.252621472563" lon="17.863042096206">
        <ele>26.8</ele>
        <time>2020-06-08T14:01:18Z</time>
      </trkpt>
      <trkpt lat="59.252650893032" lon="17.863003539466">
        <ele>27</ele>
        <time>2020-06-08T14:01:19Z</time>
      </trkpt>
      <trkpt lat="59.252680145863" lon="17.862962887251">
        <ele>27.2</ele>
        <time>2020-06-08T14:01:20Z</time>
      </trkpt>
      <trkpt lat="59.252709398694" lon="17.862919301371">
        <ele>27.4</ele>
        <time>2020-06-08T14:01:21Z</time>
      </trkpt>
      <trkpt lat="59.252738902982" lon="17.862872781826">
        <ele>27.6</ele>
        <time>2020-06-08T14:01:22Z</time>
      </trkpt>
      <trkpt lat="59.25276756908" lon="17.862827435747">
        <ele>27.6</ele>
        <time>2020-06-08T14:01:23Z</time>
      </trkpt>
      <trkpt lat="59.252794307341" lon="17.862781586754">
        <ele>27.8</ele>
        <time>2020-06-08T14:01:24Z</time>
      </trkpt>
      <trkpt lat="59.252818279575" lon="17.862735653942">
        <ele>27.8</ele>
        <time>2020-06-08T14:01:25Z</time>
      </trkpt>
      <trkpt lat="59.25283881523" lon="17.862690391682">
        <ele>27.8</ele>
        <time>2020-06-08T14:01:26Z</time>
      </trkpt>
      <trkpt lat="59.252858512695" lon="17.862646638164">
        <ele>27.8</ele>
        <time>2020-06-08T14:01:27Z</time>
      </trkpt>
      <trkpt lat="59.252870582631" lon="17.862609757804">
        <ele>28</ele>
        <time>2020-06-08T14:01:28Z</time>
      </trkpt>
      <trkpt lat="59.252873264839" lon="17.862588970692">
        <ele>28</ele>
        <time>2020-06-08T14:01:29Z</time>
      </trkpt>
      <trkpt lat="59.252877874884" lon="17.862579834421">
        <ele>28</ele>
        <time>2020-06-08T14:01:30Z</time>
      </trkpt>
      <trkpt lat="59.252881143825" lon="17.862584444466">
        <ele>28.2</ele>
        <time>2020-06-08T14:01:31Z</time>
      </trkpt>
      <trkpt lat="59.252676876922" lon="17.862983674363">
        <ele>26</ele>
        <time>2020-06-08T14:30:06Z</time>
      </trkpt>
      <trkpt lat="59.252682241338" lon="17.862991050435">
        <ele>26</ele>
        <time>2020-06-08T14:30:09Z</time>
      </trkpt>
      <trkpt lat="59.252579311606" lon="17.863099512221">
        <ele>26</ele>
        <time>2020-06-08T14:30:19Z</time>
      </trkpt>
      <trkpt lat="59.252550058775" lon="17.863145780309">
        <ele>26</ele>
        <time>2020-06-08T14:30:20Z</time>
      </trkpt>
      <trkpt lat="59.2525311995" lon="17.863191964578">
        <ele>26</ele>
        <time>2020-06-08T14:30:21Z</time>
      </trkpt>
      <trkpt lat="59.252512088768" lon="17.8632454411">
        <ele>26</ele>
        <time>2020-06-08T14:30:22Z</time>
      </trkpt>
      <trkpt lat="59.252489625276" lon="17.863299001441">
        <ele>26</ele>
        <time>2020-06-08T14:30:23Z</time>
      </trkpt>
      <trkpt lat="59.252464563395" lon="17.86333848019">
        <ele>26</ele>
        <time>2020-06-08T14:30:24Z</time>
      </trkpt>
      <trkpt lat="59.252438914781" lon="17.863371672514">
        <ele>25.8</ele>
        <time>2020-06-08T14:30:25Z</time>
      </trkpt>
      <trkpt lat="59.252406812104" lon="17.863407882322">
        <ele>25.8</ele>
        <time>2020-06-08T14:30:26Z</time>
      </trkpt>
      <trkpt lat="59.252373033047" lon="17.863453731315">
        <ele>25.6</ele>
        <time>2020-06-08T14:30:27Z</time>
      </trkpt>
      <trkpt lat="59.252340762732" lon="17.863494467349">
        <ele>25.6</ele>
        <time>2020-06-08T14:30:28Z</time>
      </trkpt>
      <trkpt lat="59.252304133829" lon="17.863530258062">
        <ele>25.4</ele>
        <time>2020-06-08T14:30:29Z</time>
      </trkpt>
      <trkpt lat="59.25226549327" lon="17.863564372395">
        <ele>25.4</ele>
        <time>2020-06-08T14:30:30Z</time>
      </trkpt>
      <trkpt lat="59.252226517435" lon="17.863607036266">
        <ele>25.2</ele>
        <time>2020-06-08T14:30:31Z</time>
      </trkpt>
      <trkpt lat="59.252186619591" lon="17.863657579123">
        <ele>25.2</ele>
        <time>2020-06-08T14:30:32Z</time>
      </trkpt>
      <trkpt lat="59.252144542453" lon="17.86370728379">
        <ele>25</ele>
        <time>2020-06-08T14:30:33Z</time>
      </trkpt>
      <trkpt lat="59.252101710944" lon="17.863755312077">
        <ele>25</ele>
        <time>2020-06-08T14:30:34Z</time>
      </trkpt>
      <trkpt lat="59.252057538331" lon="17.863812141359">
        <ele>25</ele>
        <time>2020-06-08T14:30:35Z</time>
      </trkpt>
      <trkpt lat="59.252017305211" lon="17.863860756379">
        <ele>25</ele>
        <time>2020-06-08T14:30:36Z</time>
      </trkpt>
      <trkpt lat="59.251971791494" lon="17.863908533209">
        <ele>24.8</ele>
        <time>2020-06-08T14:30:37Z</time>
      </trkpt>
      <trkpt lat="59.251923930845" lon="17.863958070238">
        <ele>24.8</ele>
        <time>2020-06-08T14:30:38Z</time>
      </trkpt>
      <trkpt lat="59.25187824949" lon="17.864010960027">
        <ele>24.6</ele>
        <time>2020-06-08T14:30:39Z</time>
      </trkpt>
      <trkpt lat="59.25183131085" lon="17.86407776377">
        <ele>24.6</ele>
        <time>2020-06-08T14:30:40Z</time>
      </trkpt>
      <trkpt lat="59.251784539848" lon="17.86413308431">
        <ele>24.4</ele>
        <time>2020-06-08T14:30:41Z</time>
      </trkpt>
      <trkpt lat="59.251732069154" lon="17.864182453701">
        <ele>24.2</ele>
        <time>2020-06-08T14:30:42Z</time>
      </trkpt>
      <trkpt lat="59.251677754442" lon="17.864232242187">
        <ele>23.6</ele>
        <time>2020-06-08T14:30:43Z</time>
      </trkpt>
      <trkpt lat="59.251621595712" lon="17.86428814946">
        <ele>23.2</ele>
        <time>2020-06-08T14:30:44Z</time>
      </trkpt>
      <trkpt lat="59.251565017887" lon="17.864338524679">
        <ele>23</ele>
        <time>2020-06-08T14:30:45Z</time>
      </trkpt>
      <trkpt lat="59.25150357856" lon="17.864379093075">
        <ele>22.8</ele>
        <time>2020-06-08T14:30:46Z</time>
      </trkpt>
      <trkpt lat="59.251439624663" lon="17.864406250431">
        <ele>22.6</ele>
        <time>2020-06-08T14:30:47Z</time>
      </trkpt>
      <trkpt lat="59.251377682422" lon="17.864433659244">
        <ele>22.6</ele>
        <time>2020-06-08T14:30:48Z</time>
      </trkpt>
      <trkpt lat="59.251316243095" lon="17.864467438301">
        <ele>22.6</ele>
        <time>2020-06-08T14:30:49Z</time>
      </trkpt>
      <trkpt lat="59.251253965578" lon="17.864505743584">
        <ele>22</ele>
        <time>2020-06-08T14:30:50Z</time>
      </trkpt>
      <trkpt lat="59.251197471572" lon="17.864545976704">
        <ele>21.2</ele>
        <time>2020-06-08T14:30:51Z</time>
      </trkpt>
      <trkpt lat="59.251144497964" lon="17.864595178457">
        <ele>19.8</ele>
        <time>2020-06-08T14:30:52Z</time>
      </trkpt>
      <trkpt lat="59.251091105261" lon="17.864658042707">
        <ele>19.6</ele>
        <time>2020-06-08T14:30:53Z</time>
      </trkpt>
      <trkpt lat="59.251041568232" lon="17.864717218921">
        <ele>19.4</ele>
        <time>2020-06-08T14:30:54Z</time>
      </trkpt>
      <trkpt lat="59.250995048687" lon="17.864769354339">
        <ele>19.2</ele>
        <time>2020-06-08T14:30:55Z</time>
      </trkpt>
      <trkpt lat="59.250954983205" lon="17.864814951875">
        <ele>19</ele>
        <time>2020-06-08T14:30:56Z</time>
      </trkpt>
      <trkpt lat="59.25091684556" lon="17.864854179167">
        <ele>19</ele>
        <time>2020-06-08T14:30:57Z</time>
      </trkpt>
      <trkpt lat="59.250880300476" lon="17.864885695111">
        <ele>19</ele>
        <time>2020-06-08T14:30:58Z</time>
      </trkpt>
      <trkpt lat="59.250846269962" lon="17.86490841006">
        <ele>19</ele>
        <time>2020-06-08T14:30:59Z</time>
      </trkpt>
      <trkpt lat="59.250809389602" lon="17.864933304303">
        <ele>19</ele>
        <time>2020-06-08T14:31:00Z</time>
      </trkpt>
      <trkpt lat="59.250776364916" lon="17.864956270709">
        <ele>19</ele>
        <time>2020-06-08T14:31:01Z</time>
      </trkpt>
      <trkpt lat="59.250746106257" lon="17.864974124156">
        <ele>19</ele>
        <time>2020-06-08T14:31:02Z</time>
      </trkpt>
      <trkpt lat="59.250710902277" lon="17.864989882128">
        <ele>19</ele>
        <time>2020-06-08T14:31:03Z</time>
      </trkpt>
      <trkpt lat="59.25068047598" lon="17.865000108046">
        <ele>19</ele>
        <time>2020-06-08T14:31:04Z</time>
      </trkpt>
      <trkpt lat="59.250652648072" lon="17.865003796082">
        <ele>19.2</ele>
        <time>2020-06-08T14:31:05Z</time>
      </trkpt>
      <trkpt lat="59.250628759657" lon="17.864991977603">
        <ele>19.4</ele>
        <time>2020-06-08T14:31:06Z</time>
      </trkpt>
      <trkpt lat="59.250600764111" lon="17.864986277911">
        <ele>19.6</ele>
        <time>2020-06-08T14:31:07Z</time>
      </trkpt>
      <trkpt lat="59.250577797705" lon="17.864970771396">
        <ele>20</ele>
        <time>2020-06-08T14:31:08Z</time>
      </trkpt>
      <trkpt lat="59.250554496023" lon="17.864955516338">
        <ele>20.4</ele>
        <time>2020-06-08T14:31:09Z</time>
      </trkpt>
      <trkpt lat="59.250534379463" lon="17.864934058674">
        <ele>20.8</ele>
        <time>2020-06-08T14:31:10Z</time>
      </trkpt>
      <trkpt lat="59.250508479392" lon="17.864927185516">
        <ele>21</ele>
        <time>2020-06-08T14:31:11Z</time>
      </trkpt>
      <trkpt lat="59.250483166054" lon="17.864939087814">
        <ele>21</ele>
        <time>2020-06-08T14:31:12Z</time>
      </trkpt>
      <trkpt lat="59.250465731702" lon="17.864973034509">
        <ele>21.4</ele>
        <time>2020-06-08T14:31:13Z</time>
      </trkpt>
      <trkpt lat="59.250461373114" lon="17.865023912642">
        <ele>21.6</ele>
        <time>2020-06-08T14:31:14Z</time>
      </trkpt>
      <trkpt lat="59.25046757572" lon="17.865076718612">
        <ele>21.8</ele>
        <time>2020-06-08T14:31:15Z</time>
      </trkpt>
      <trkpt lat="59.250472940136" lon="17.865140504871">
        <ele>21.8</ele>
        <time>2020-06-08T14:31:16Z</time>
      </trkpt>
      <trkpt lat="59.250477466362" lon="17.865210409917">
        <ele>22</ele>
        <time>2020-06-08T14:31:17Z</time>
      </trkpt>
      <trkpt lat="59.250482076407" lon="17.865278722402">
        <ele>22.2</ele>
        <time>2020-06-08T14:31:18Z</time>
      </trkpt>
      <trkpt lat="59.250484926253" lon="17.865348627448">
        <ele>22.6</ele>
        <time>2020-06-08T14:31:19Z</time>
      </trkpt>
      <trkpt lat="59.250488698108" lon="17.865421130883">
        <ele>22.8</ele>
        <time>2020-06-08T14:31:20Z</time>
      </trkpt>
      <trkpt lat="59.250495403628" lon="17.865497489992">
        <ele>23</ele>
        <time>2020-06-08T14:31:21Z</time>
      </trkpt>
      <trkpt lat="59.250503701709" lon="17.86558063844">
        <ele>23</ele>
        <time>2020-06-08T14:31:22Z</time>
      </trkpt>
      <trkpt lat="59.250510239591" lon="17.865669821856">
        <ele>23</ele>
        <time>2020-06-08T14:31:23Z</time>
      </trkpt>
      <trkpt lat="59.250517448025" lon="17.865767722448">
        <ele>23</ele>
        <time>2020-06-08T14:31:24Z</time>
      </trkpt>
      <trkpt lat="59.250525997563" lon="17.865874675492">
        <ele>23</ele>
        <time>2020-06-08T14:31:25Z</time>
      </trkpt>
      <trkpt lat="59.250535301472" lon="17.86598380783">
        <ele>23</ele>
        <time>2020-06-08T14:31:26Z</time>
      </trkpt>
      <trkpt lat="59.250545695028" lon="17.866092185797">
        <ele>23</ele>
        <time>2020-06-08T14:31:27Z</time>
      </trkpt>
      <trkpt lat="59.250555501851" lon="17.866209867673">
        <ele>23</ele>
        <time>2020-06-08T14:31:28Z</time>
      </trkpt>
      <trkpt lat="59.250566146864" lon="17.866334338888">
        <ele>23</ele>
        <time>2020-06-08T14:31:29Z</time>
      </trkpt>
      <trkpt lat="59.250587353071" lon="17.866460067388">
        <ele>22.8</ele>
        <time>2020-06-08T14:31:30Z</time>
      </trkpt>
      <trkpt lat="59.250617527911" lon="17.866580515291">
        <ele>22.2</ele>
        <time>2020-06-08T14:31:31Z</time>
      </trkpt>
      <trkpt lat="59.250650468778" lon="17.86668621105">
        <ele>22</ele>
        <time>2020-06-08T14:31:32Z</time>
      </trkpt>
      <trkpt lat="59.250685924215" lon="17.86678679385">
        <ele>21.4</ele>
        <time>2020-06-08T14:31:33Z</time>
      </trkpt>
      <trkpt lat="59.250723894222" lon="17.866899865681">
        <ele>20.8</ele>
        <time>2020-06-08T14:31:34Z</time>
      </trkpt>
      <trkpt lat="59.250746357714" lon="17.867020145946">
        <ele>20.4</ele>
        <time>2020-06-08T14:31:35Z</time>
      </trkpt>
      <trkpt lat="59.250753985243" lon="17.86715727383">
        <ele>19.8</ele>
        <time>2020-06-08T14:31:36Z</time>
      </trkpt>
      <trkpt lat="59.250750967759" lon="17.867304040899">
        <ele>19.4</ele>
        <time>2020-06-08T14:31:37Z</time>
      </trkpt>
      <trkpt lat="59.250740741841" lon="17.867462039714">
        <ele>18.8</ele>
        <time>2020-06-08T14:31:38Z</time>
      </trkpt>
      <trkpt lat="59.250725319145" lon="17.86761911652">
        <ele>18</ele>
        <time>2020-06-08T14:31:39Z</time>
      </trkpt>
      <trkpt lat="59.250701514549" lon="17.86776831434">
        <ele>17.2</ele>
        <time>2020-06-08T14:31:40Z</time>
      </trkpt>
      <trkpt lat="59.250672596994" lon="17.867900161627">
        <ele>16.6</ele>
        <time>2020-06-08T14:31:41Z</time>
      </trkpt>
      <trkpt lat="59.250629430209" lon="17.86801055125">
        <ele>16.2</ele>
        <time>2020-06-08T14:31:42Z</time>
      </trkpt>
      <trkpt lat="59.250577210972" lon="17.868104596168">
        <ele>15.6</ele>
        <time>2020-06-08T14:31:43Z</time>
      </trkpt>
      <trkpt lat="59.250517364206" lon="17.868186068236">
        <ele>14.8</ele>
        <time>2020-06-08T14:31:44Z</time>
      </trkpt>
      <trkpt lat="59.250447040065" lon="17.86824608264">
        <ele>14</ele>
        <time>2020-06-08T14:31:45Z</time>
      </trkpt>
      <trkpt lat="59.250377302657" lon="17.868308443976">
        <ele>13.2</ele>
        <time>2020-06-08T14:31:46Z</time>
      </trkpt>
      <trkpt lat="59.25030329048" lon="17.868373655158">
        <ele>12.6</ele>
        <time>2020-06-08T14:31:47Z</time>
      </trkpt>
      <trkpt lat="59.250234307443" lon="17.868446912964">
        <ele>11</ele>
        <time>2020-06-08T14:31:48Z</time>
      </trkpt>
      <trkpt lat="59.250172951935" lon="17.868524445539">
        <ele>10.4</ele>
        <time>2020-06-08T14:31:49Z</time>
      </trkpt>
      <trkpt lat="59.250117128481" lon="17.868600050277">
        <ele>9.8</ele>
        <time>2020-06-08T14:31:50Z</time>
      </trkpt>
      <trkpt lat="59.250074296972" lon="17.868686048571">
        <ele>9.2</ele>
        <time>2020-06-08T14:31:51Z</time>
      </trkpt>
      <trkpt lat="59.250026939237" lon="17.868771963046">
        <ele>8.4</ele>
        <time>2020-06-08T14:31:52Z</time>
      </trkpt>
      <trkpt lat="59.249984107728" lon="17.868864834498">
        <ele>8</ele>
        <time>2020-06-08T14:31:53Z</time>
      </trkpt>
      <trkpt lat="59.249943371694" lon="17.868946222747">
        <ele>7.8</ele>
        <time>2020-06-08T14:31:54Z</time>
      </trkpt>
      <trkpt lat="59.24990515023" lon="17.869017468897">
        <ele>7.8</ele>
        <time>2020-06-08T14:31:55Z</time>
      </trkpt>
      <trkpt lat="59.249858882142" lon="17.869081590432">
        <ele>7.6</ele>
        <time>2020-06-08T14:31:56Z</time>
      </trkpt>
      <trkpt lat="59.249816888823" lon="17.869133977307">
        <ele>7.6</ele>
        <time>2020-06-08T14:31:57Z</time>
      </trkpt>
      <trkpt lat="59.249767603251" lon="17.869185442173">
        <ele>7.6</ele>
        <time>2020-06-08T14:31:58Z</time>
      </trkpt>
      <trkpt lat="59.249720329335" lon="17.869237745229">
        <ele>7.6</ele>
        <time>2020-06-08T14:31:59Z</time>
      </trkpt>
      <trkpt lat="59.249677078731" lon="17.869297005262">
        <ele>7.6</ele>
        <time>2020-06-08T14:32:00Z</time>
      </trkpt>
      <trkpt lat="59.249651513936" lon="17.869381746271">
        <ele>7.6</ele>
        <time>2020-06-08T14:32:01Z</time>
      </trkpt>
      <trkpt lat="59.249644724597" lon="17.869494315188">
        <ele>7.8</ele>
        <time>2020-06-08T14:32:02Z</time>
      </trkpt>
      <trkpt lat="59.249655285791" lon="17.869606967924">
        <ele>7.8</ele>
        <time>2020-06-08T14:32:03Z</time>
      </trkpt>
      <trkpt lat="59.249668026279" lon="17.869720626488">
        <ele>7.8</ele>
        <time>2020-06-08T14:32:04Z</time>
      </trkpt>
      <trkpt lat="59.249668948288" lon="17.869838392183">
        <ele>7.8</ele>
        <time>2020-06-08T14:32:05Z</time>
      </trkpt>
      <trkpt lat="59.24965536961" lon="17.869933862024">
        <ele>7.8</ele>
        <time>2020-06-08T14:32:06Z</time>
      </trkpt>
      <trkpt lat="59.249635839783" lon="17.870009047667">
        <ele>7.8</ele>
        <time>2020-06-08T14:32:07Z</time>
      </trkpt>
      <trkpt lat="59.249593259731" lon="17.870057327411">
        <ele>7.8</ele>
        <time>2020-06-08T14:32:08Z</time>
      </trkpt>
      <trkpt lat="59.249546740186" lon="17.870094710685">
        <ele>7.8</ele>
        <time>2020-06-08T14:32:09Z</time>
      </trkpt>
      <trkpt lat="59.24950784817" lon="17.87010937901">
        <ele>8</ele>
        <time>2020-06-08T14:32:10Z</time>
      </trkpt>
      <trkpt lat="59.249460406616" lon="17.870031259702">
        <ele>8</ele>
        <time>2020-06-08T14:32:11Z</time>
      </trkpt>
      <trkpt lat="59.249416904555" lon="17.869993541152">
        <ele>8</ele>
        <time>2020-06-08T14:32:12Z</time>
      </trkpt>
      <trkpt lat="59.249383544593" lon="17.869953810946">
        <ele>8</ele>
        <time>2020-06-08T14:32:13Z</time>
      </trkpt>
      <trkpt lat="59.249356219599" lon="17.869922127364">
        <ele>8</ele>
        <time>2020-06-08T14:32:14Z</time>
      </trkpt>
      <trkpt lat="59.249310957339" lon="17.869881558968">
        <ele>8</ele>
        <time>2020-06-08T14:32:15Z</time>
      </trkpt>
      <trkpt lat="59.249265527441" lon="17.869840487658">
        <ele>8</ele>
        <time>2020-06-08T14:32:16Z</time>
      </trkpt>
      <trkpt lat="59.249220181362" lon="17.869807714429">
        <ele>8</ele>
        <time>2020-06-08T14:32:17Z</time>
      </trkpt>
      <trkpt lat="59.249174500007" lon="17.86977829396">
        <ele>8</ele>
        <time>2020-06-08T14:32:18Z</time>
      </trkpt>
      <trkpt lat="59.249127896643" lon="17.869744431084">
        <ele>8</ele>
        <time>2020-06-08T14:32:19Z</time>
      </trkpt>
      <trkpt lat="59.249079784537" lon="17.86971542971">
        <ele>7.8</ele>
        <time>2020-06-08T14:32:20Z</time>
      </trkpt>
      <trkpt lat="59.249029493137" lon="17.869689864915">
        <ele>7.6</ele>
        <time>2020-06-08T14:32:21Z</time>
      </trkpt>
      <trkpt lat="59.248975346063" lon="17.869662120826">
        <ele>7.6</ele>
        <time>2020-06-08T14:32:22Z</time>
      </trkpt>
      <trkpt lat="59.248919774066" lon="17.869635885479">
        <ele>7.6</ele>
        <time>2020-06-08T14:32:23Z</time>
      </trkpt>
      <trkpt lat="59.248865040259" lon="17.869611913245">
        <ele>7.6</ele>
        <time>2020-06-08T14:32:24Z</time>
      </trkpt>
      <trkpt lat="59.248809300624" lon="17.869590036486">
        <ele>7.4</ele>
        <time>2020-06-08T14:32:25Z</time>
      </trkpt>
      <trkpt lat="59.248751549333" lon="17.869568075908">
        <ele>7.4</ele>
        <time>2020-06-08T14:32:26Z</time>
      </trkpt>
      <trkpt lat="59.248692876033" lon="17.86954360076">
        <ele>7.4</ele>
        <time>2020-06-08T14:32:27Z</time>
      </trkpt>
      <trkpt lat="59.248634538009" lon="17.869523400381">
        <ele>7.4</ele>
        <time>2020-06-08T14:32:28Z</time>
      </trkpt>
      <trkpt lat="59.248576954356" lon="17.86951174954">
        <ele>7.4</ele>
        <time>2020-06-08T14:32:29Z</time>
      </trkpt>
      <trkpt lat="59.248517694323" lon="17.869500350156">
        <ele>7</ele>
        <time>2020-06-08T14:32:30Z</time>
      </trkpt>
      <trkpt lat="59.248455332987" lon="17.869473528076">
        <ele>6.8</ele>
        <time>2020-06-08T14:32:31Z</time>
      </trkpt>
      <trkpt lat="59.248400850637" lon="17.869416782613">
        <ele>6.6</ele>
        <time>2020-06-08T14:32:32Z</time>
      </trkpt>
      <trkpt lat="59.248354666368" lon="17.869344530635">
        <ele>6.4</ele>
        <time>2020-06-08T14:32:33Z</time>
      </trkpt>
      <trkpt lat="59.248306805719" lon="17.869272613933">
        <ele>6.4</ele>
        <time>2020-06-08T14:32:34Z</time>
      </trkpt>
      <trkpt lat="59.248255424672" lon="17.8692133539">
        <ele>6.4</ele>
        <time>2020-06-08T14:32:35Z</time>
      </trkpt>
      <trkpt lat="59.24820362453" lon="17.86916138612">
        <ele>6.4</ele>
        <time>2020-06-08T14:32:36Z</time>
      </trkpt>
      <trkpt lat="59.248151572931" lon="17.869112268186">
        <ele>6.4</ele>
        <time>2020-06-08T14:32:37Z</time>
      </trkpt>
      <trkpt lat="59.248098766961" lon="17.869065245727">
        <ele>6.4</ele>
        <time>2020-06-08T14:32:38Z</time>
      </trkpt>
      <trkpt lat="59.248046631543" lon="17.869018726182">
        <ele>6.4</ele>
        <time>2020-06-08T14:32:39Z</time>
      </trkpt>
      <trkpt lat="59.24799323884" lon="17.868974888845">
        <ele>6.4</ele>
        <time>2020-06-08T14:32:40Z</time>
      </trkpt>
      <trkpt lat="59.247939510861" lon="17.868933314621">
        <ele>6.4</ele>
        <time>2020-06-08T14:32:41Z</time>
      </trkpt>
      <trkpt lat="59.247886453434" lon="17.868892913863">
        <ele>6.6</ele>
        <time>2020-06-08T14:32:42Z</time>
      </trkpt>
      <trkpt lat="59.247832473998" lon="17.868853686571">
        <ele>6.6</ele>
        <time>2020-06-08T14:32:43Z</time>
      </trkpt>
      <trkpt lat="59.247777237277" lon="17.868814794555">
        <ele>6.6</ele>
        <time>2020-06-08T14:32:44Z</time>
      </trkpt>
      <trkpt lat="59.247722838746" lon="17.868776740729">
        <ele>6.6</ele>
        <time>2020-06-08T14:32:45Z</time>
      </trkpt>
      <trkpt lat="59.247669446043" lon="17.868740028007">
        <ele>6.8</ele>
        <time>2020-06-08T14:32:46Z</time>
      </trkpt>
      <trkpt lat="59.247616388616" lon="17.868705243122">
        <ele>6.8</ele>
        <time>2020-06-08T14:32:47Z</time>
      </trkpt>
      <trkpt lat="59.247563917922" lon="17.86867188316">
        <ele>6.8</ele>
        <time>2020-06-08T14:32:48Z</time>
      </trkpt>
      <trkpt lat="59.247511531047" lon="17.868639864302">
        <ele>6.8</ele>
        <time>2020-06-08T14:32:49Z</time>
      </trkpt>
      <trkpt lat="59.24745847362" lon="17.868610024738">
        <ele>6.8</ele>
        <time>2020-06-08T14:32:50Z</time>
      </trkpt>
      <trkpt lat="59.247403069261" lon="17.868585717228">
        <ele>7</ele>
        <time>2020-06-08T14:32:51Z</time>
      </trkpt>
      <trkpt lat="59.247345904703" lon="17.8685595657">
        <ele>7</ele>
        <time>2020-06-08T14:32:52Z</time>
      </trkpt>
      <trkpt lat="59.247288907783" lon="17.868530815783">
        <ele>7</ele>
        <time>2020-06-08T14:32:53Z</time>
      </trkpt>
      <trkpt lat="59.247230988854" lon="17.868504496617">
        <ele>7</ele>
        <time>2020-06-08T14:32:54Z</time>
      </trkpt>
      <trkpt lat="59.247173656658" lon="17.868478512727">
        <ele>7</ele>
        <time>2020-06-08T14:32:55Z</time>
      </trkpt>
      <trkpt lat="59.247116575919" lon="17.868451942104">
        <ele>7</ele>
        <time>2020-06-08T14:32:56Z</time>
      </trkpt>
      <trkpt lat="59.247058489352" lon="17.868424700929">
        <ele>7</ele>
        <time>2020-06-08T14:32:57Z</time>
      </trkpt>
      <trkpt lat="59.247001743889" lon="17.868389916044">
        <ele>7</ele>
        <time>2020-06-08T14:32:58Z</time>
      </trkpt>
      <trkpt lat="59.246948770281" lon="17.868339205549">
        <ele>7</ele>
        <time>2020-06-08T14:32:59Z</time>
      </trkpt>
      <trkpt lat="59.246901412546" lon="17.868279274964">
        <ele>7</ele>
        <time>2020-06-08T14:33:00Z</time>
      </trkpt>
      <trkpt lat="59.246854054811" lon="17.868226217537">
        <ele>7</ele>
        <time>2020-06-08T14:33:01Z</time>
      </trkpt>
      <trkpt lat="59.246805104515" lon="17.868186152055">
        <ele>6.8</ele>
        <time>2020-06-08T14:33:02Z</time>
      </trkpt>
      <trkpt lat="59.246754813115" lon="17.86815807269">
        <ele>6.8</ele>
        <time>2020-06-08T14:33:03Z</time>
      </trkpt>
      <trkpt lat="59.246702761516" lon="17.868137369397">
        <ele>6.6</ele>
        <time>2020-06-08T14:33:04Z</time>
      </trkpt>
      <trkpt lat="59.246650039365" lon="17.868123539262">
        <ele>6.6</ele>
        <time>2020-06-08T14:33:05Z</time>
      </trkpt>
      <trkpt lat="59.246598406861" lon="17.868109290032">
        <ele>6.6</ele>
        <time>2020-06-08T14:33:06Z</time>
      </trkpt>
      <trkpt lat="59.246545097977" lon="17.868088167644">
        <ele>6.6</ele>
        <time>2020-06-08T14:33:07Z</time>
      </trkpt>
      <trkpt lat="59.246492292007" lon="17.868057825166">
        <ele>6.6</ele>
        <time>2020-06-08T14:33:08Z</time>
      </trkpt>
      <trkpt lat="59.246439905132" lon="17.86802480048">
        <ele>6.6</ele>
        <time>2020-06-08T14:33:09Z</time>
      </trkpt>
      <trkpt lat="59.246388021171" lon="17.867987249568">
        <ele>6.4</ele>
        <time>2020-06-08T14:33:10Z</time>
      </trkpt>
      <trkpt lat="59.246337143038" lon="17.867946681172">
        <ele>6.2</ele>
        <time>2020-06-08T14:33:11Z</time>
      </trkpt>
      <trkpt lat="59.246283917973" lon="17.867913237391">
        <ele>6.2</ele>
        <time>2020-06-08T14:33:12Z</time>
      </trkpt>
      <trkpt lat="59.24622968708" lon="17.867886582949">
        <ele>6</ele>
        <time>2020-06-08T14:33:13Z</time>
      </trkpt>
      <trkpt lat="59.246176797291" lon="17.867861604887">
        <ele>6</ele>
        <time>2020-06-08T14:33:14Z</time>
      </trkpt>
      <trkpt lat="59.246121728208" lon="17.867840231042">
        <ele>6</ele>
        <time>2020-06-08T14:33:15Z</time>
      </trkpt>
      <trkpt lat="59.246066742944" lon="17.867823383423">
        <ele>5.8</ele>
        <time>2020-06-08T14:33:16Z</time>
      </trkpt>
      <trkpt lat="59.246010751852" lon="17.867814498609">
        <ele>5.8</ele>
        <time>2020-06-08T14:33:17Z</time>
      </trkpt>
      <trkpt lat="59.245954844579" lon="17.867812486953">
        <ele>5.8</ele>
        <time>2020-06-08T14:33:18Z</time>
      </trkpt>
      <trkpt lat="59.245898518211" lon="17.867809972383">
        <ele>5.6</ele>
        <time>2020-06-08T14:33:19Z</time>
      </trkpt>
      <trkpt lat="59.245843365309" lon="17.867797734809">
        <ele>5.6</ele>
        <time>2020-06-08T14:33:20Z</time>
      </trkpt>
      <trkpt lat="59.245789385873" lon="17.867783904674">
        <ele>5.6</ele>
        <time>2020-06-08T14:33:21Z</time>
      </trkpt>
      <trkpt lat="59.245736915179" lon="17.867774265489">
        <ele>5.8</ele>
        <time>2020-06-08T14:33:22Z</time>
      </trkpt>
      <trkpt lat="59.245687461969" lon="17.86776831434">
        <ele>5.8</ele>
        <time>2020-06-08T14:33:23Z</time>
      </trkpt>
      <trkpt lat="59.245641696795" lon="17.867771331824">
        <ele>5.8</ele>
        <time>2020-06-08T14:33:24Z</time>
      </trkpt>
      <trkpt lat="59.245597021268" lon="17.867779043172">
        <ele>5.8</ele>
        <time>2020-06-08T14:33:25Z</time>
      </trkpt>
      <trkpt lat="59.245552764836" lon="17.867786838339">
        <ele>5.8</ele>
        <time>2020-06-08T14:33:26Z</time>
      </trkpt>
      <trkpt lat="59.245508256947" lon="17.867798824456">
        <ele>5.8</ele>
        <time>2020-06-08T14:33:27Z</time>
      </trkpt>
      <trkpt lat="59.245463413782" lon="17.867815672075">
        <ele>5.6</ele>
        <time>2020-06-08T14:33:28Z</time>
      </trkpt>
      <trkpt lat="59.245417732427" lon="17.86783620773">
        <ele>5.8</ele>
        <time>2020-06-08T14:33:29Z</time>
      </trkpt>
      <trkpt lat="59.245372051072" lon="17.867863448905">
        <ele>5.8</ele>
        <time>2020-06-08T14:33:30Z</time>
      </trkpt>
      <trkpt lat="59.245325447708" lon="17.867890941537">
        <ele>6</ele>
        <time>2020-06-08T14:33:31Z</time>
      </trkpt>
      <trkpt lat="59.24527666505" lon="17.867914913771">
        <ele>5.8</ele>
        <time>2020-06-08T14:33:32Z</time>
      </trkpt>
      <trkpt lat="59.245227295659" lon="17.867938886005">
        <ele>5.8</ele>
        <time>2020-06-08T14:33:33Z</time>
      </trkpt>
      <trkpt lat="59.245179267372" lon="17.867964031705">
        <ele>5.8</ele>
        <time>2020-06-08T14:33:34Z</time>
      </trkpt>
      <trkpt lat="59.245130317076" lon="17.867988255396">
        <ele>5.8</ele>
        <time>2020-06-08T14:33:35Z</time>
      </trkpt>
      <trkpt lat="59.245080109495" lon="17.868004013368">
        <ele>5.8</ele>
        <time>2020-06-08T14:33:36Z</time>
      </trkpt>
      <trkpt lat="59.245028979905" lon="17.868006192662">
        <ele>6</ele>
        <time>2020-06-08T14:33:37Z</time>
      </trkpt>
      <trkpt lat="59.244978604686" lon="17.867996804934">
        <ele>6</ele>
        <time>2020-06-08T14:33:38Z</time>
      </trkpt>
      <trkpt lat="59.244929738209" lon="17.867973754709">
        <ele>6</ele>
        <time>2020-06-08T14:33:39Z</time>
      </trkpt>
      <trkpt lat="59.244879782085" lon="17.867944669516">
        <ele>6</ele>
        <time>2020-06-08T14:33:40Z</time>
      </trkpt>
      <trkpt lat="59.244827730486" lon="17.867919356178">
        <ele>6</ele>
        <time>2020-06-08T14:33:41Z</time>
      </trkpt>
      <trkpt lat="59.244775595068" lon="17.867897479419">
        <ele>6</ele>
        <time>2020-06-08T14:33:42Z</time>
      </trkpt>
      <trkpt lat="59.244722034727" lon="17.867874513013">
        <ele>6</ele>
        <time>2020-06-08T14:33:43Z</time>
      </trkpt>
      <trkpt lat="59.244668474386" lon="17.867850624598">
        <ele>6</ele>
        <time>2020-06-08T14:33:44Z</time>
      </trkpt>
      <trkpt lat="59.244614243493" lon="17.867833609341">
        <ele>6</ele>
        <time>2020-06-08T14:33:45Z</time>
      </trkpt>
      <trkpt lat="59.244558168582" lon="17.867822042319">
        <ele>6</ele>
        <time>2020-06-08T14:33:46Z</time>
      </trkpt>
      <trkpt lat="59.244502848042" lon="17.867812906048">
        <ele>6</ele>
        <time>2020-06-08T14:33:47Z</time>
      </trkpt>
      <trkpt lat="59.244446605493" lon="17.867813744238">
        <ele>6</ele>
        <time>2020-06-08T14:33:48Z</time>
      </trkpt>
      <trkpt lat="59.244390279125" lon="17.867818689559">
        <ele>6</ele>
        <time>2020-06-08T14:33:49Z</time>
      </trkpt>
      <trkpt lat="59.24433453949" lon="17.867823383423">
        <ele>6</ele>
        <time>2020-06-08T14:33:50Z</time>
      </trkpt>
      <trkpt lat="59.244278548398" lon="17.867831094771">
        <ele>6</ele>
        <time>2020-06-08T14:33:51Z</time>
      </trkpt>
      <trkpt lat="59.244224485143" lon="17.867836543006">
        <ele>6.2</ele>
        <time>2020-06-08T14:33:52Z</time>
      </trkpt>
      <trkpt lat="59.244171762992" lon="17.867839895766">
        <ele>6.2</ele>
        <time>2020-06-08T14:33:53Z</time>
      </trkpt>
      <trkpt lat="59.244119543755" lon="17.867840733956">
        <ele>6.4</ele>
        <time>2020-06-08T14:33:54Z</time>
      </trkpt>
      <trkpt lat="59.244068246527" lon="17.867838638481">
        <ele>6.2</ele>
        <time>2020-06-08T14:33:55Z</time>
      </trkpt>
      <trkpt lat="59.244016697842" lon="17.867831681504">
        <ele>6.2</ele>
        <time>2020-06-08T14:33:56Z</time>
      </trkpt>
      <trkpt lat="59.243965568252" lon="17.867819024835">
        <ele>6.4</ele>
        <time>2020-06-08T14:33:57Z</time>
      </trkpt>
      <trkpt lat="59.243915025395" lon="17.867806703442">
        <ele>6.4</ele>
        <time>2020-06-08T14:33:58Z</time>
      </trkpt>
      <trkpt lat="59.243864901633" lon="17.867795220239">
        <ele>6.4</ele>
        <time>2020-06-08T14:33:59Z</time>
      </trkpt>
      <trkpt lat="59.243815616061" lon="17.867784910502">
        <ele>6.4</ele>
        <time>2020-06-08T14:34:00Z</time>
      </trkpt>
      <trkpt lat="59.243767503955" lon="17.867775103679">
        <ele>6.6</ele>
        <time>2020-06-08T14:34:01Z</time>
      </trkpt>
      <trkpt lat="59.24372098441" lon="17.867762866105">
        <ele>6.6</ele>
        <time>2020-06-08T14:34:02Z</time>
      </trkpt>
      <trkpt lat="59.243675470693" lon="17.86776077063">
        <ele>6.6</ele>
        <time>2020-06-08T14:34:03Z</time>
      </trkpt>
      <trkpt lat="59.243632303908" lon="17.867789939642">
        <ele>6.8</ele>
        <time>2020-06-08T14:34:04Z</time>
      </trkpt>
      <trkpt lat="59.243594836815" lon="17.867850289322">
        <ele>6.8</ele>
        <time>2020-06-08T14:34:05Z</time>
      </trkpt>
      <trkpt lat="59.243562901776" lon="17.867922373662">
        <ele>7</ele>
        <time>2020-06-08T14:34:06Z</time>
      </trkpt>
      <trkpt lat="59.24353155347" lon="17.867994541821">
        <ele>7.2</ele>
        <time>2020-06-08T14:34:07Z</time>
      </trkpt>
      <trkpt lat="59.24349802587" lon="17.868065201238">
        <ele>7.2</ele>
        <time>2020-06-08T14:34:08Z</time>
      </trkpt>
      <trkpt lat="59.243462905709" lon="17.868134771008">
        <ele>7.4</ele>
        <time>2020-06-08T14:34:09Z</time>
      </trkpt>
      <trkpt lat="59.2434284561" lon="17.86820082038">
        <ele>7.8</ele>
        <time>2020-06-08T14:34:10Z</time>
      </trkpt>
      <trkpt lat="59.24339241393" lon="17.868258068757">
        <ele>7.8</ele>
        <time>2020-06-08T14:34:11Z</time>
      </trkpt>
      <trkpt lat="59.24335385719" lon="17.86831229965">
        <ele>7.8</ele>
        <time>2020-06-08T14:34:12Z</time>
      </trkpt>
      <trkpt lat="59.243314797536" lon="17.868367368733">
        <ele>7.8</ele>
        <time>2020-06-08T14:34:13Z</time>
      </trkpt>
      <trkpt lat="59.243276911348" lon="17.868425036205">
        <ele>7.8</ele>
        <time>2020-06-08T14:34:14Z</time>
      </trkpt>
      <trkpt lat="59.243238522246" lon="17.868481697849">
        <ele>7.8</ele>
        <time>2020-06-08T14:34:15Z</time>
      </trkpt>
      <trkpt lat="59.243198624402" lon="17.868533330353">
        <ele>7.8</ele>
        <time>2020-06-08T14:34:16Z</time>
      </trkpt>
      <trkpt lat="59.243156631083" lon="17.868577335328">
        <ele>7.8</ele>
        <time>2020-06-08T14:34:17Z</time>
      </trkpt>
      <trkpt lat="59.243114805402" lon="17.868614215688">
        <ele>7.8</ele>
        <time>2020-06-08T14:34:18Z</time>
      </trkpt>
      <trkpt lat="59.243072812083" lon="17.868646653641">
        <ele>7.8</ele>
        <time>2020-06-08T14:34:19Z</time>
      </trkpt>
      <trkpt lat="59.243026711633" lon="17.868675319739">
        <ele>7.8</ele>
        <time>2020-06-08T14:34:20Z</time>
      </trkpt>
      <trkpt lat="59.242976923147" lon="17.868697112679">
        <ele>7.6</ele>
        <time>2020-06-08T14:34:21Z</time>
      </trkpt>
      <trkpt lat="59.24292470391" lon="17.868710356081">
        <ele>7.6</ele>
        <time>2020-06-08T14:34:22Z</time>
      </trkpt>
      <trkpt lat="59.242874915424" lon="17.868712451556">
        <ele>7.6</ele>
        <time>2020-06-08T14:34:23Z</time>
      </trkpt>
      <trkpt lat="59.242825881309" lon="17.868702477095">
        <ele>7.6</ele>
        <time>2020-06-08T14:34:24Z</time>
      </trkpt>
      <trkpt lat="59.242774248805" lon="17.868686216209">
        <ele>7.6</ele>
        <time>2020-06-08T14:34:25Z</time>
      </trkpt>
      <trkpt lat="59.242722783939" lon="17.868664842364">
        <ele>7.6</ele>
        <time>2020-06-08T14:34:26Z</time>
      </trkpt>
      <trkpt lat="59.242668972141" lon="17.868640953949">
        <ele>7.6</ele>
        <time>2020-06-08T14:34:27Z</time>
      </trkpt>
      <trkpt lat="59.242615663257" lon="17.868609521824">
        <ele>7.6</ele>
        <time>2020-06-08T14:34:28Z</time>
      </trkpt>
      <trkpt lat="59.24256344402" lon="17.86857465312">
        <ele>7.6</ele>
        <time>2020-06-08T14:34:29Z</time>
      </trkpt>
      <trkpt lat="59.242512062973" lon="17.868541376977">
        <ele>7.6</ele>
        <time>2020-06-08T14:34:30Z</time>
      </trkpt>
      <trkpt lat="59.242458502632" lon="17.868504999531">
        <ele>7.6</ele>
        <time>2020-06-08T14:34:31Z</time>
      </trkpt>
      <trkpt lat="59.242406451033" lon="17.868464431135">
        <ele>7.4</ele>
        <time>2020-06-08T14:34:32Z</time>
      </trkpt>
      <trkpt lat="59.24235641109" lon="17.868418246866">
        <ele>7.4</ele>
        <time>2020-06-08T14:34:33Z</time>
      </trkpt>
      <trkpt lat="59.242308466622" lon="17.86836762019">
        <ele>7.4</ele>
        <time>2020-06-08T14:34:34Z</time>
      </trkpt>
      <trkpt lat="59.242264461647" lon="17.868312634926">
        <ele>7.4</ele>
        <time>2020-06-08T14:34:35Z</time>
      </trkpt>
      <trkpt lat="59.242219199387" lon="17.868250525047">
        <ele>7.4</ele>
        <time>2020-06-08T14:34:36Z</time>
      </trkpt>
      <trkpt lat="59.242177792801" lon="17.868177015784">
        <ele>7.4</ele>
        <time>2020-06-08T14:34:37Z</time>
      </trkpt>
      <trkpt lat="59.242135631844" lon="17.86809939939">
        <ele>7.4</ele>
        <time>2020-06-08T14:34:38Z</time>
      </trkpt>
      <trkpt lat="59.242091710688" lon="17.86802228591">
        <ele>7.4</ele>
        <time>2020-06-08T14:34:39Z</time>
      </trkpt>
      <trkpt lat="59.242050890835" lon="17.867943076955">
        <ele>7.4</ele>
        <time>2020-06-08T14:34:40Z</time>
      </trkpt>
      <trkpt lat="59.242012585552" lon="17.86786638257">
        <ele>7.4</ele>
        <time>2020-06-08T14:34:41Z</time>
      </trkpt>
      <trkpt lat="59.241973022984" lon="17.867792705669">
        <ele>7.4</ele>
        <time>2020-06-08T14:34:42Z</time>
      </trkpt>
      <trkpt lat="59.241930275294" lon="17.867715759827">
        <ele>7.4</ele>
        <time>2020-06-08T14:34:43Z</time>
      </trkpt>
      <trkpt lat="59.241888365794" lon="17.867634623035">
        <ele>7.4</ele>
        <time>2020-06-08T14:34:44Z</time>
      </trkpt>
      <trkpt lat="59.241842097706" lon="17.867553653881">
        <ele>7.4</ele>
        <time>2020-06-08T14:34:45Z</time>
      </trkpt>
      <trkpt lat="59.241799936749" lon="17.867469667243">
        <ele>7.4</ele>
        <time>2020-06-08T14:34:46Z</time>
      </trkpt>
      <trkpt lat="59.241758111068" lon="17.867391212659">
        <ele>7.2</ele>
        <time>2020-06-08T14:34:47Z</time>
      </trkpt>
      <trkpt lat="59.241713770817" lon="17.867316697568">
        <ele>7.2</ele>
        <time>2020-06-08T14:34:48Z</time>
      </trkpt>
      <trkpt lat="59.241660294295" lon="17.867252492214">
        <ele>7.2</ele>
        <time>2020-06-08T14:34:49Z</time>
      </trkpt>
      <trkpt lat="59.241604470841" lon="17.867191974896">
        <ele>7.2</ele>
        <time>2020-06-08T14:34:50Z</time>
      </trkpt>
      <trkpt lat="59.241549737034" lon="17.86713045175">
        <ele>7.2</ele>
        <time>2020-06-08T14:34:51Z</time>
      </trkpt>
      <trkpt lat="59.241494416494" lon="17.867061217256">
        <ele>7.2</ele>
        <time>2020-06-08T14:34:52Z</time>
      </trkpt>
      <trkpt lat="59.241438928316" lon="17.866993491504">
        <ele>7</ele>
        <time>2020-06-08T14:34:53Z</time>
      </trkpt>
      <trkpt lat="59.241381931396" lon="17.866928028865">
        <ele>7.2</ele>
        <time>2020-06-08T14:34:54Z</time>
      </trkpt>
      <trkpt lat="59.24132124644" lon="17.866870780488">
        <ele>6.8</ele>
        <time>2020-06-08T14:34:55Z</time>
      </trkpt>
      <trkpt lat="59.241263914244" lon="17.866814537939">
        <ele>6.8</ele>
        <time>2020-06-08T14:34:56Z</time>
      </trkpt>
      <trkpt lat="59.241205157125" lon="17.866756702829">
        <ele>7</ele>
        <time>2020-06-08T14:34:57Z</time>
      </trkpt>
      <trkpt lat="59.241146986739" lon="17.866694257674">
        <ele>6.6</ele>
        <time>2020-06-08T14:34:58Z</time>
      </trkpt>
      <trkpt lat="59.241087810525" lon="17.866634410908">
        <ele>6.4</ele>
        <time>2020-06-08T14:34:59Z</time>
      </trkpt>
      <trkpt lat="59.241024778637" lon="17.866572301029">
        <ele>6.4</ele>
        <time>2020-06-08T14:35:00Z</time>
      </trkpt>
      <trkpt lat="59.240968955183" lon="17.866501473974">
        <ele>6.2</ele>
        <time>2020-06-08T14:35:01Z</time>
      </trkpt>
      <trkpt lat="59.240917322679" lon="17.866421929743">
        <ele>6.2</ele>
        <time>2020-06-08T14:35:02Z</time>
      </trkpt>
      <trkpt lat="59.240871473686" lon="17.866331321404">
        <ele>6</ele>
        <time>2020-06-08T14:35:03Z</time>
      </trkpt>
      <trkpt lat="59.240832414032" lon="17.866225877102">
        <ele>6</ele>
        <time>2020-06-08T14:35:04Z</time>
      </trkpt>
      <trkpt lat="59.240802658287" lon="17.866113224366">
        <ele>6</ele>
        <time>2020-06-08T14:35:05Z</time>
      </trkpt>
      <trkpt lat="59.240780949166" lon="17.865997805603">
        <ele>5.8</ele>
        <time>2020-06-08T14:35:06Z</time>
      </trkpt>
      <trkpt lat="59.240761419339" lon="17.86587987227">
        <ele>5.8</ele>
        <time>2020-06-08T14:35:07Z</time>
      </trkpt>
      <trkpt lat="59.240741638055" lon="17.865763699136">
        <ele>5.8</ele>
        <time>2020-06-08T14:35:08Z</time>
      </trkpt>
      <trkpt lat="59.24071942602" lon="17.865650040572">
        <ele>5.8</ele>
        <time>2020-06-08T14:35:09Z</time>
      </trkpt>
      <trkpt lat="59.240697716899" lon="17.865537639293">
        <ele>5.8</ele>
        <time>2020-06-08T14:35:10Z</time>
      </trkpt>
      <trkpt lat="59.240675923959" lon="17.865425740928">
        <ele>5.8</ele>
        <time>2020-06-08T14:35:11Z</time>
      </trkpt>
      <trkpt lat="59.240654717752" lon="17.865314513115">
        <ele>5.8</ele>
        <time>2020-06-08T14:35:12Z</time>
      </trkpt>
      <trkpt lat="59.2406289015" lon="17.865206554243">
        <ele>5.8</ele>
        <time>2020-06-08T14:35:13Z</time>
      </trkpt>
      <trkpt lat="59.240597804651" lon="17.865103121597">
        <ele>5.8</ele>
        <time>2020-06-08T14:35:14Z</time>
      </trkpt>
      <trkpt lat="59.240562097757" lon="17.865006645928">
        <ele>5.8</ele>
        <time>2020-06-08T14:35:15Z</time>
      </trkpt>
      <trkpt lat="59.240522535189" lon="17.864920312358">
        <ele>5.8</ele>
        <time>2020-06-08T14:35:16Z</time>
      </trkpt>
      <trkpt lat="59.240477272929" lon="17.864843115059">
        <ele>5.8</ele>
        <time>2020-06-08T14:35:17Z</time>
      </trkpt>
      <trkpt lat="59.240429915194" lon="17.864769773434">
        <ele>5.8</ele>
        <time>2020-06-08T14:35:18Z</time>
      </trkpt>
      <trkpt lat="59.240382389821" lon="17.864700119845">
        <ele>5.8</ele>
        <time>2020-06-08T14:35:19Z</time>
      </trkpt>
      <trkpt lat="59.240333523344" lon="17.864631723541">
        <ele>6</ele>
        <time>2020-06-08T14:35:20Z</time>
      </trkpt>
      <trkpt lat="59.240283902496" lon="17.864560896486">
        <ele>6</ele>
        <time>2020-06-08T14:35:21Z</time>
      </trkpt>
      <trkpt lat="59.240233527277" lon="17.864490320888">
        <ele>6</ele>
        <time>2020-06-08T14:35:22Z</time>
      </trkpt>
      <trkpt lat="59.240184493162" lon="17.864418990919">
        <ele>6</ele>
        <time>2020-06-08T14:35:23Z</time>
      </trkpt>
      <trkpt lat="59.240138727988" lon="17.864342799448">
        <ele>6</ele>
        <time>2020-06-08T14:35:24Z</time>
      </trkpt>
      <trkpt lat="59.240095225927" lon="17.86426551833">
        <ele>6</ele>
        <time>2020-06-08T14:35:25Z</time>
      </trkpt>
      <trkpt lat="59.240050634219" lon="17.864195445646">
        <ele>6</ele>
        <time>2020-06-08T14:35:26Z</time>
      </trkpt>
      <trkpt lat="59.24000361176" lon="17.86413308431">
        <ele>6</ele>
        <time>2020-06-08T14:35:27Z</time>
      </trkpt>
      <trkpt lat="59.239954661464" lon="17.864079272512">
        <ele>6</ele>
        <time>2020-06-08T14:35:28Z</time>
      </trkpt>
      <trkpt lat="59.239901101123" lon="17.864044739084">
        <ele>5.8</ele>
        <time>2020-06-08T14:35:29Z</time>
      </trkpt>
      <trkpt lat="59.239846451135" lon="17.86403166332">
        <ele>5.8</ele>
        <time>2020-06-08T14:35:30Z</time>
      </trkpt>
      <trkpt lat="59.239791801147" lon="17.864037363012">
        <ele>5.8</ele>
        <time>2020-06-08T14:35:31Z</time>
      </trkpt>
      <trkpt lat="59.239737989349" lon="17.864053875355">
        <ele>5.6</ele>
        <time>2020-06-08T14:35:32Z</time>
      </trkpt>
      <trkpt lat="59.239684764284" lon="17.864072902268">
        <ele>5.6</ele>
        <time>2020-06-08T14:35:33Z</time>
      </trkpt>
      <trkpt lat="59.239631706857" lon="17.864093186466">
        <ele>5.8</ele>
        <time>2020-06-08T14:35:34Z</time>
      </trkpt>
      <trkpt lat="59.239578817068" lon="17.864114141216">
        <ele>5.8</ele>
        <time>2020-06-08T14:35:35Z</time>
      </trkpt>
      <trkpt lat="59.239525424365" lon="17.864134173957">
        <ele>5.8</ele>
        <time>2020-06-08T14:35:36Z</time>
      </trkpt>
      <trkpt lat="59.239472031662" lon="17.864154961069">
        <ele>5.8</ele>
        <time>2020-06-08T14:35:37Z</time>
      </trkpt>
      <trkpt lat="59.239417297855" lon="17.864174323258">
        <ele>5.8</ele>
        <time>2020-06-08T14:35:38Z</time>
      </trkpt>
      <trkpt lat="59.239361809677" lon="17.864190165049">
        <ele>5.8</ele>
        <time>2020-06-08T14:35:39Z</time>
      </trkpt>
      <trkpt lat="59.23930791406" lon="17.864205671564">
        <ele>5.8</ele>
        <time>2020-06-08T14:35:40Z</time>
      </trkpt>
      <trkpt lat="59.239255527185" lon="17.864228889427">
        <ele>5.8</ele>
        <time>2020-06-08T14:35:41Z</time>
      </trkpt>
      <trkpt lat="59.239200877197" lon="17.864247161969">
        <ele>5.8</ele>
        <time>2020-06-08T14:35:42Z</time>
      </trkpt>
      <trkpt lat="59.239144634648" lon="17.864267278529">
        <ele>5.8</ele>
        <time>2020-06-08T14:35:43Z</time>
      </trkpt>
      <trkpt lat="59.239087386271" lon="17.864287730365">
        <ele>5.8</ele>
        <time>2020-06-08T14:35:44Z</time>
      </trkpt>
      <trkpt lat="59.239029718799" lon="17.864308601296">
        <ele>5.8</ele>
        <time>2020-06-08T14:35:45Z</time>
      </trkpt>
      <trkpt lat="59.238971883689" lon="17.864329891322">
        <ele>5.8</ele>
        <time>2020-06-08T14:35:46Z</time>
      </trkpt>
      <trkpt lat="59.23891396476" lon="17.864351432805">
        <ele>5.8</ele>
        <time>2020-06-08T14:35:47Z</time>
      </trkpt>
      <trkpt lat="59.238856381107" lon="17.864371465546">
        <ele>5.8</ele>
        <time>2020-06-08T14:35:48Z</time>
      </trkpt>
      <trkpt lat="59.238799300368" lon="17.86439040864">
        <ele>5.8</ele>
        <time>2020-06-08T14:35:49Z</time>
      </trkpt>
      <trkpt lat="59.238743057819" lon="17.864407842992">
        <ele>5.8</ele>
        <time>2020-06-08T14:35:50Z</time>
      </trkpt>
      <trkpt lat="59.23868597708" lon="17.864423852421">
        <ele>5.8</ele>
        <time>2020-06-08T14:35:51Z</time>
      </trkpt>
      <trkpt lat="59.238627890513" lon="17.86443734728">
        <ele>5.8</ele>
        <time>2020-06-08T14:35:52Z</time>
      </trkpt>
      <trkpt lat="59.238570139222" lon="17.864450925958">
        <ele>5.8</ele>
        <time>2020-06-08T14:35:53Z</time>
      </trkpt>
      <trkpt lat="59.23851163356" lon="17.864466348654">
        <ele>5.8</ele>
        <time>2020-06-08T14:35:54Z</time>
      </trkpt>
      <trkpt lat="59.238453127898" lon="17.864483531549">
        <ele>5.8</ele>
        <time>2020-06-08T14:35:55Z</time>
      </trkpt>
      <trkpt lat="59.238394789874" lon="17.864500379168">
        <ele>5.8</ele>
        <time>2020-06-08T14:35:56Z</time>
      </trkpt>
      <trkpt lat="59.238337709135" lon="17.864516472416">
        <ele>5.8</ele>
        <time>2020-06-08T14:35:57Z</time>
      </trkpt>
      <trkpt lat="59.238281298948" lon="17.864531140741">
        <ele>5.6</ele>
        <time>2020-06-08T14:35:58Z</time>
      </trkpt>
      <trkpt lat="59.238225140218" lon="17.864545892885">
        <ele>5.6</ele>
        <time>2020-06-08T14:35:59Z</time>
      </trkpt>
      <trkpt lat="59.238168897669" lon="17.864563494875">
        <ele>5.6</ele>
        <time>2020-06-08T14:36:00Z</time>
      </trkpt>
      <trkpt lat="59.238113325672" lon="17.864586126005">
        <ele>5.6</ele>
        <time>2020-06-08T14:36:01Z</time>
      </trkpt>
      <trkpt lat="59.238058843322" lon="17.864612612809">
        <ele>5.6</ele>
        <time>2020-06-08T14:36:02Z</time>
      </trkpt>
      <trkpt lat="59.238003271325" lon="17.864637339414">
        <ele>5.6</ele>
        <time>2020-06-08T14:36:03Z</time>
      </trkpt>
      <trkpt lat="59.237947866966" lon="17.864658964716">
        <ele>5.6</ele>
        <time>2020-06-08T14:36:04Z</time>
      </trkpt>
      <trkpt lat="59.237892965521" lon="17.864678746">
        <ele>5.6</ele>
        <time>2020-06-08T14:36:05Z</time>
      </trkpt>
      <trkpt lat="59.237836806791" lon="17.864694839248">
        <ele>5.6</ele>
        <time>2020-06-08T14:36:06Z</time>
      </trkpt>
      <trkpt lat="59.237779306957" lon="17.86470975903">
        <ele>5.6</ele>
        <time>2020-06-08T14:36:07Z</time>
      </trkpt>
      <trkpt lat="59.237720549838" lon="17.864726355192">
        <ele>5.6</ele>
        <time>2020-06-08T14:36:08Z</time>
      </trkpt>
      <trkpt lat="59.237661457443" lon="17.864743454268">
        <ele>5.6</ele>
        <time>2020-06-08T14:36:09Z</time>
      </trkpt>
      <trkpt lat="59.237602365048" lon="17.864761559172">
        <ele>5.8</ele>
        <time>2020-06-08T14:36:10Z</time>
      </trkpt>
      <trkpt lat="59.237543691748" lon="17.864782933017">
        <ele>5.8</ele>
        <time>2020-06-08T14:36:11Z</time>
      </trkpt>
      <trkpt lat="59.237485269905" lon="17.86480531269">
        <ele>6</ele>
        <time>2020-06-08T14:36:12Z</time>
      </trkpt>
      <trkpt lat="59.237428105347" lon="17.864826937992">
        <ele>6</ele>
        <time>2020-06-08T14:36:13Z</time>
      </trkpt>
      <trkpt lat="59.237373706816" lon="17.864846970733">
        <ele>6</ele>
        <time>2020-06-08T14:36:14Z</time>
      </trkpt>
      <trkpt lat="59.237319559742" lon="17.864866332922">
        <ele>6</ele>
        <time>2020-06-08T14:36:15Z</time>
      </trkpt>
      <trkpt lat="59.237266167039" lon="17.864888628776">
        <ele>6</ele>
        <time>2020-06-08T14:36:16Z</time>
      </trkpt>
      <trkpt lat="59.237213025793" lon="17.864915786132">
        <ele>6</ele>
        <time>2020-06-08T14:36:17Z</time>
      </trkpt>
      <trkpt lat="59.237160387461" lon="17.864947050619">
        <ele>6</ele>
        <time>2020-06-08T14:36:18Z</time>
      </trkpt>
      <trkpt lat="59.237108168224" lon="17.864974375613">
        <ele>6</ele>
        <time>2020-06-08T14:36:19Z</time>
      </trkpt>
      <trkpt lat="59.237053685874" lon="17.864993402526">
        <ele>6</ele>
        <time>2020-06-08T14:36:20Z</time>
      </trkpt>
      <trkpt lat="59.236998532972" lon="17.865008322308">
        <ele>6</ele>
        <time>2020-06-08T14:36:21Z</time>
      </trkpt>
      <trkpt lat="59.236942877156" lon="17.865025505203">
        <ele>6</ele>
        <time>2020-06-08T14:36:22Z</time>
      </trkpt>
      <trkpt lat="59.236885796417" lon="17.865044699754">
        <ele>6</ele>
        <time>2020-06-08T14:36:23Z</time>
      </trkpt>
      <trkpt lat="59.236832403714" lon="17.865056853509">
        <ele>6</ele>
        <time>2020-06-08T14:36:24Z</time>
      </trkpt>
      <trkpt lat="59.236776496441" lon="17.865064900133">
        <ele>6</ele>
        <time>2020-06-08T14:36:25Z</time>
      </trkpt>
      <trkpt lat="59.23671790696" lon="17.865068001436">
        <ele>6.2</ele>
        <time>2020-06-08T14:36:26Z</time>
      </trkpt>
      <trkpt lat="59.236657808737" lon="17.865073868766">
        <ele>6.2</ele>
        <time>2020-06-08T14:36:27Z</time>
      </trkpt>
      <trkpt lat="59.236595195944" lon="17.86509700281">
        <ele>6.2</ele>
        <time>2020-06-08T14:36:28Z</time>
      </trkpt>
      <trkpt lat="59.236537444653" lon="17.865118963388">
        <ele>6.2</ele>
        <time>2020-06-08T14:36:29Z</time>
      </trkpt>
      <trkpt lat="59.236478855172" lon="17.865137487387">
        <ele>6.2</ele>
        <time>2020-06-08T14:36:30Z</time>
      </trkpt>
      <trkpt lat="59.236421522976" lon="17.865156346662">
        <ele>6.2</ele>
        <time>2020-06-08T14:36:31Z</time>
      </trkpt>
      <trkpt lat="59.236366118617" lon="17.865175373575">
        <ele>6</ele>
        <time>2020-06-08T14:36:32Z</time>
      </trkpt>
      <trkpt lat="59.236312055362" lon="17.865194065212">
        <ele>6</ele>
        <time>2020-06-08T14:36:33Z</time>
      </trkpt>
      <trkpt lat="59.236258746478" lon="17.865213678858">
        <ele>6</ele>
        <time>2020-06-08T14:36:34Z</time>
      </trkpt>
      <trkpt lat="59.236206778698" lon="17.865237399635">
        <ele>6</ele>
        <time>2020-06-08T14:36:35Z</time>
      </trkpt>
      <trkpt lat="59.23614709957" lon="17.865263299706">
        <ele>6</ele>
        <time>2020-06-08T14:36:36Z</time>
      </trkpt>
      <trkpt lat="59.236089599736" lon="17.865295821478">
        <ele>5.8</ele>
        <time>2020-06-08T14:36:37Z</time>
      </trkpt>
      <trkpt lat="59.236035285024" lon="17.865339407358">
        <ele>5.8</ele>
        <time>2020-06-08T14:36:38Z</time>
      </trkpt>
      <trkpt lat="59.235986083271" lon="17.865400092314">
        <ele>6</ele>
        <time>2020-06-08T14:36:39Z</time>
      </trkpt>
      <trkpt lat="59.235944928142" lon="17.865481061468">
        <ele>5.8</ele>
        <time>2020-06-08T14:36:40Z</time>
      </trkpt>
      <trkpt lat="59.235910897628" lon="17.865571334531">
        <ele>5.8</ele>
        <time>2020-06-08T14:36:41Z</time>
      </trkpt>
      <trkpt lat="59.235877118571" lon="17.865660601766">
        <ele>5.8</ele>
        <time>2020-06-08T14:36:42Z</time>
      </trkpt>
      <trkpt lat="59.235843171876" lon="17.86574995282">
        <ele>5.8</ele>
        <time>2020-06-08T14:36:43Z</time>
      </trkpt>
      <trkpt lat="59.235811236837" lon="17.865842572815">
        <ele>5.6</ele>
        <time>2020-06-08T14:36:44Z</time>
      </trkpt>
      <trkpt lat="59.235779553255" lon="17.865936785371">
        <ele>5.6</ele>
        <time>2020-06-08T14:36:45Z</time>
      </trkpt>
      <trkpt lat="59.235746863845" lon="17.866032339031">
        <ele>5.6</ele>
        <time>2020-06-08T14:36:46Z</time>
      </trkpt>
      <trkpt lat="59.235714342073" lon="17.866127305958">
        <ele>5.6</ele>
        <time>2020-06-08T14:36:47Z</time>
      </trkpt>
      <trkpt lat="59.235681317387" lon="17.866221267057">
        <ele>5.6</ele>
        <time>2020-06-08T14:36:48Z</time>
      </trkpt>
      <trkpt lat="59.235645107579" lon="17.866312797405">
        <ele>5.6</ele>
        <time>2020-06-08T14:36:49Z</time>
      </trkpt>
      <trkpt lat="59.235606886115" lon="17.866399047156">
        <ele>5.6</ele>
        <time>2020-06-08T14:36:50Z</time>
      </trkpt>
      <trkpt lat="59.235566569176" lon="17.866481944147">
        <ele>5.6</ele>
        <time>2020-06-08T14:36:51Z</time>
      </trkpt>
      <trkpt lat="59.235523067115" lon="17.866558303256">
        <ele>5.6</ele>
        <time>2020-06-08T14:36:52Z</time>
      </trkpt>
      <trkpt lat="59.235475793199" lon="17.866623933533">
        <ele>5.6</ele>
        <time>2020-06-08T14:36:53Z</time>
      </trkpt>
      <trkpt lat="59.23542457979" lon="17.866677577693">
        <ele>5.6</ele>
        <time>2020-06-08T14:36:54Z</time>
      </trkpt>
      <trkpt lat="59.235370348897" lon="17.866720912116">
        <ele>5.6</ele>
        <time>2020-06-08T14:36:55Z</time>
      </trkpt>
      <trkpt lat="59.235314190167" lon="17.866755361725">
        <ele>5.6</ele>
        <time>2020-06-08T14:36:56Z</time>
      </trkpt>
      <trkpt lat="59.235255852143" lon="17.866782016167">
        <ele>5.6</ele>
        <time>2020-06-08T14:36:57Z</time>
      </trkpt>
      <trkpt lat="59.235196759748" lon="17.866809844075">
        <ele>5.6</ele>
        <time>2020-06-08T14:36:58Z</time>
      </trkpt>
      <trkpt lat="59.235138254086" lon="17.866839767458">
        <ele>5.6</ele>
        <time>2020-06-08T14:36:59Z</time>
      </trkpt>
      <trkpt lat="59.235079748424" lon="17.866866589538">
        <ele>5.6</ele>
        <time>2020-06-08T14:37:00Z</time>
      </trkpt>
      <trkpt lat="59.235020991305" lon="17.866887544288">
        <ele>5.6</ele>
        <time>2020-06-08T14:37:01Z</time>
      </trkpt>
      <trkpt lat="59.23496189891" lon="17.8669083314">
        <ele>5.6</ele>
        <time>2020-06-08T14:37:02Z</time>
      </trkpt>
      <trkpt lat="59.234902722696" lon="17.866931633082">
        <ele>5.8</ele>
        <time>2020-06-08T14:37:03Z</time>
      </trkpt>
      <trkpt lat="59.234844133215" lon="17.866955521497">
        <ele>5.8</ele>
        <time>2020-06-08T14:37:04Z</time>
      </trkpt>
      <trkpt lat="59.234784034992" lon="17.866979912826">
        <ele>5.8</ele>
        <time>2020-06-08T14:37:05Z</time>
      </trkpt>
      <trkpt lat="59.234723769131" lon="17.867003465965">
        <ele>5.8</ele>
        <time>2020-06-08T14:37:06Z</time>
      </trkpt>
      <trkpt lat="59.23466434146" lon="17.867025007448">
        <ele>5.8</ele>
        <time>2020-06-08T14:37:07Z</time>
      </trkpt>
      <trkpt lat="59.234605584341" lon="17.867045962198">
        <ele>5.8</ele>
        <time>2020-06-08T14:37:08Z</time>
      </trkpt>
      <trkpt lat="59.234547162498" lon="17.86707010207">
        <ele>5.8</ele>
        <time>2020-06-08T14:37:09Z</time>
      </trkpt>
      <trkpt lat="59.234488992112" lon="17.86709860053">
        <ele>5.8</ele>
        <time>2020-06-08T14:37:10Z</time>
      </trkpt>
      <trkpt lat="59.234430570269" lon="17.867128356275">
        <ele>5.6</ele>
        <time>2020-06-08T14:37:11Z</time>
      </trkpt>
      <trkpt lat="59.234372232245" lon="17.867155848907">
        <ele>5.6</ele>
        <time>2020-06-08T14:37:12Z</time>
      </trkpt>
      <trkpt lat="59.234313558945" lon="17.867178731494">
        <ele>5.8</ele>
        <time>2020-06-08T14:37:13Z</time>
      </trkpt>
      <trkpt lat="59.234254215093" lon="17.867201446443">
        <ele>5.6</ele>
        <time>2020-06-08T14:37:14Z</time>
      </trkpt>
      <trkpt lat="59.234195709431" lon="17.867225251039">
        <ele>5.6</ele>
        <time>2020-06-08T14:37:15Z</time>
      </trkpt>
      <trkpt lat="59.234136533217" lon="17.867246541065">
        <ele>5.6</ele>
        <time>2020-06-08T14:37:16Z</time>
      </trkpt>
      <trkpt lat="59.234077524641" lon="17.867268417824">
        <ele>5.4</ele>
        <time>2020-06-08T14:37:17Z</time>
      </trkpt>
      <trkpt lat="59.234019186617" lon="17.86729306061">
        <ele>5.4</ele>
        <time>2020-06-08T14:37:18Z</time>
      </trkpt>
      <trkpt lat="59.233960597136" lon="17.867320301785">
        <ele>5.4</ele>
        <time>2020-06-08T14:37:19Z</time>
      </trkpt>
      <trkpt lat="59.233902259112" lon="17.867349722254">
        <ele>5.4</ele>
        <time>2020-06-08T14:37:20Z</time>
      </trkpt>
      <trkpt lat="59.233843501993" lon="17.867378891266">
        <ele>5.4</ele>
        <time>2020-06-08T14:37:21Z</time>
      </trkpt>
      <trkpt lat="59.233785499245" lon="17.867407473545">
        <ele>5.4</ele>
        <time>2020-06-08T14:37:22Z</time>
      </trkpt>
      <trkpt lat="59.233728334687" lon="17.867437396928">
        <ele>5.4</ele>
        <time>2020-06-08T14:37:23Z</time>
      </trkpt>
      <trkpt lat="59.233671756862" lon="17.867468996691">
        <ele>5.4</ele>
        <time>2020-06-08T14:37:24Z</time>
      </trkpt>
      <trkpt lat="59.233615095218" lon="17.867501015549">
        <ele>5.4</ele>
        <time>2020-06-08T14:37:25Z</time>
      </trkpt>
      <trkpt lat="59.233558349755" lon="17.867535968072">
        <ele>5.4</ele>
        <time>2020-06-08T14:37:26Z</time>
      </trkpt>
      <trkpt lat="59.233502526301" lon="17.867577961391">
        <ele>5.4</ele>
        <time>2020-06-08T14:37:27Z</time>
      </trkpt>
      <trkpt lat="59.233447038123" lon="17.867621966366">
        <ele>5.4</ele>
        <time>2020-06-08T14:37:28Z</time>
      </trkpt>
      <trkpt lat="59.233390711755" lon="17.867662031848">
        <ele>5.4</ele>
        <time>2020-06-08T14:37:29Z</time>
      </trkpt>
      <trkpt lat="59.233333211921" lon="17.867695307991">
        <ele>5.4</ele>
        <time>2020-06-08T14:37:30Z</time>
      </trkpt>
      <trkpt lat="59.23327378425" lon="17.867720705148">
        <ele>5.4</ele>
        <time>2020-06-08T14:37:31Z</time>
      </trkpt>
      <trkpt lat="59.233213099294" lon="17.867743420097">
        <ele>5.4</ele>
        <time>2020-06-08T14:37:32Z</time>
      </trkpt>
      <trkpt lat="59.2331522467" lon="17.86776496158">
        <ele>5.4</ele>
        <time>2020-06-08T14:37:33Z</time>
      </trkpt>
      <trkpt lat="59.23309189702" lon="17.867785748692">
        <ele>5.4</ele>
        <time>2020-06-08T14:37:34Z</time>
      </trkpt>
      <trkpt lat="59.233033056082" lon="17.867805027062">
        <ele>5.4</ele>
        <time>2020-06-08T14:37:35Z</time>
      </trkpt>
      <trkpt lat="59.232974718058" lon="17.867825478898">
        <ele>5.4</ele>
        <time>2020-06-08T14:37:36Z</time>
      </trkpt>
      <trkpt lat="59.232915960939" lon="17.867849786408">
        <ele>5.6</ele>
        <time>2020-06-08T14:37:37Z</time>
      </trkpt>
      <trkpt lat="59.232856449449" lon="17.867878452506">
        <ele>5.6</ele>
        <time>2020-06-08T14:37:38Z</time>
      </trkpt>
      <trkpt lat="59.232797943787" lon="17.867912734477">
        <ele>5.6</ele>
        <time>2020-06-08T14:37:39Z</time>
      </trkpt>
      <trkpt lat="59.232741868876" lon="17.867950369208">
        <ele>5.8</ele>
        <time>2020-06-08T14:37:40Z</time>
      </trkpt>
      <trkpt lat="59.232686883612" lon="17.867983226256">
        <ele>5.8</ele>
        <time>2020-06-08T14:37:41Z</time>
      </trkpt>
      <trkpt lat="59.232630389606" lon="17.868003510454">
        <ele>5.8</ele>
        <time>2020-06-08T14:37:42Z</time>
      </trkpt>
      <trkpt lat="59.232572554496" lon="17.868005103015">
        <ele>5.8</ele>
        <time>2020-06-08T14:37:43Z</time>
      </trkpt>
      <trkpt lat="59.232515641395" lon="17.867998397495">
        <ele>5.8</ele>
        <time>2020-06-08T14:37:44Z</time>
      </trkpt>
      <trkpt lat="59.232460991407" lon="17.867991440518">
        <ele>6</ele>
        <time>2020-06-08T14:37:45Z</time>
      </trkpt>
      <trkpt lat="59.232407179609" lon="17.867981968971">
        <ele>6</ele>
        <time>2020-06-08T14:37:46Z</time>
      </trkpt>
      <trkpt lat="59.232351607612" lon="17.867972162148">
        <ele>6</ele>
        <time>2020-06-08T14:37:47Z</time>
      </trkpt>
      <trkpt lat="59.232295365063" lon="17.867959254022">
        <ele>6</ele>
        <time>2020-06-08T14:37:48Z</time>
      </trkpt>
      <trkpt lat="59.232239793066" lon="17.867942322584">
        <ele>6</ele>
        <time>2020-06-08T14:37:49Z</time>
      </trkpt>
      <trkpt lat="59.232186987096" lon="17.867916171056">
        <ele>6</ele>
        <time>2020-06-08T14:37:50Z</time>
      </trkpt>
      <trkpt lat="59.232136108963" lon="17.867877446678">
        <ele>6</ele>
        <time>2020-06-08T14:37:51Z</time>
      </trkpt>
      <trkpt lat="59.232086991029" lon="17.867828915477">
        <ele>6</ele>
        <time>2020-06-08T14:37:52Z</time>
      </trkpt>
      <trkpt lat="59.232040471484" lon="17.867773678756">
        <ele>6</ele>
        <time>2020-06-08T14:37:53Z</time>
      </trkpt>
      <trkpt lat="59.231994287215" lon="17.86771802294">
        <ele>6.2</ele>
        <time>2020-06-08T14:37:54Z</time>
      </trkpt>
      <trkpt lat="59.231949108774" lon="17.867661445115">
        <ele>6.2</ele>
        <time>2020-06-08T14:37:55Z</time>
      </trkpt>
      <trkpt lat="59.231904936161" lon="17.867601933625">
        <ele>6.2</ele>
        <time>2020-06-08T14:37:56Z</time>
      </trkpt>
      <trkpt lat="59.231862104652" lon="17.86753781209">
        <ele>6.2</ele>
        <time>2020-06-08T14:37:57Z</time>
      </trkpt>
      <trkpt lat="59.231819440781" lon="17.867476121306">
        <ele>6.2</ele>
        <time>2020-06-08T14:37:58Z</time>
      </trkpt>
      <trkpt lat="59.231776860729" lon="17.86742968558">
        <ele>6.2</ele>
        <time>2020-06-08T14:37:59Z</time>
      </trkpt>
      <trkpt lat="59.231737717256" lon="17.867405713346">
        <ele>6.2</ele>
        <time>2020-06-08T14:38:00Z</time>
      </trkpt>
      <trkpt lat="59.231707458597" lon="17.867409820477">
        <ele>6.2</ele>
        <time>2020-06-08T14:38:01Z</time>
      </trkpt>
      <trkpt lat="59.231691616806" lon="17.867420968404">
        <ele>6.2</ele>
        <time>2020-06-08T14:38:02Z</time>
      </trkpt>
      <trkpt lat="59.231674350092" lon="17.867438151299">
        <ele>6.4</ele>
        <time>2020-06-08T14:38:03Z</time>
      </trkpt>
      <trkpt lat="59.231653227704" lon="17.867461369162">
        <ele>6.4</ele>
        <time>2020-06-08T14:38:04Z</time>
      </trkpt>
      <trkpt lat="59.231630596574" lon="17.867486598681">
        <ele>6.6</ele>
        <time>2020-06-08T14:38:05Z</time>
      </trkpt>
      <trkpt lat="59.231607965444" lon="17.867514007494">
        <ele>6.8</ele>
        <time>2020-06-08T14:38:06Z</time>
      </trkpt>
      <trkpt lat="59.231583490296" lon="17.867546780723">
        <ele>6.8</ele>
        <time>2020-06-08T14:38:07Z</time>
      </trkpt>
      <trkpt lat="59.231561278261" lon="17.867581230332">
        <ele>7</ele>
        <time>2020-06-08T14:38:08Z</time>
      </trkpt>
      <trkpt lat="59.231540574968" lon="17.867639065442">
        <ele>7</ele>
        <time>2020-06-08T14:38:09Z</time>
      </trkpt>
      <trkpt lat="59.231521212779" lon="17.867700085674">
        <ele>7</ele>
        <time>2020-06-08T14:38:10Z</time>
      </trkpt>
      <trkpt lat="59.231501934409" lon="17.867759010431">
        <ele>7.2</ele>
        <time>2020-06-08T14:38:11Z</time>
      </trkpt>
      <trkpt lat="59.231482907496" lon="17.867805781433">
        <ele>7.2</ele>
        <time>2020-06-08T14:38:12Z</time>
      </trkpt>
      <trkpt lat="59.23146413204" lon="17.867842829431">
        <ele>7.2</ele>
        <time>2020-06-08T14:38:13Z</time>
      </trkpt>
      <trkpt lat="59.231439992168" lon="17.867886415311">
        <ele>7.2</ele>
        <time>2020-06-08T14:38:14Z</time>
      </trkpt>
      <trkpt lat="59.231412667174" lon="17.867934024503">
        <ele>7.2</ele>
        <time>2020-06-08T14:38:15Z</time>
      </trkpt>
      <trkpt lat="59.231390874234" lon="17.867985321731">
        <ele>7.2</ele>
        <time>2020-06-08T14:38:16Z</time>
      </trkpt>
      <trkpt lat="59.231373858977" lon="17.86804575523">
        <ele>7.4</ele>
        <time>2020-06-08T14:38:17Z</time>
      </trkpt>
      <trkpt lat="59.231360615575" lon="17.868116079371">
        <ele>7.4</ele>
        <time>2020-06-08T14:38:18Z</time>
      </trkpt>
      <trkpt lat="59.231345695793" lon="17.868183721304">
        <ele>7.4</ele>
        <time>2020-06-08T14:38:19Z</time>
      </trkpt>
      <trkpt lat="59.231332620029" lon="17.868260750965">
        <ele>7.4</ele>
        <time>2020-06-08T14:38:20Z</time>
      </trkpt>
      <trkpt lat="59.231317700247" lon="17.868338870273">
        <ele>7.4</ele>
        <time>2020-06-08T14:38:21Z</time>
      </trkpt>
      <trkpt lat="59.231299343886" lon="17.868407937129">
        <ele>7.4</ele>
        <time>2020-06-08T14:38:22Z</time>
      </trkpt>
      <trkpt lat="59.231284507923" lon="17.868465856058">
        <ele>7.4</ele>
        <time>2020-06-08T14:38:23Z</time>
      </trkpt>
      <trkpt lat="59.231274114367" lon="17.86852352353">
        <ele>7.4</ele>
        <time>2020-06-08T14:38:24Z</time>
      </trkpt>
      <trkpt lat="59.23126715739" lon="17.868583118839">
        <ele>7.4</ele>
        <time>2020-06-08T14:38:25Z</time>
      </trkpt>
      <trkpt lat="59.231259781318" lon="17.868647910926">
        <ele>7.4</ele>
        <time>2020-06-08T14:38:26Z</time>
      </trkpt>
      <trkpt lat="59.231256763834" lon="17.868719827628">
        <ele>7.4</ele>
        <time>2020-06-08T14:38:27Z</time>
      </trkpt>
      <trkpt lat="59.231256680015" lon="17.868820410428">
        <ele>7.6</ele>
        <time>2020-06-08T14:38:28Z</time>
      </trkpt>
      <trkpt lat="59.231263301716" lon="17.868926357644">
        <ele>7.8</ele>
        <time>2020-06-08T14:38:29Z</time>
      </trkpt>
      <trkpt lat="59.231270426331" lon="17.869023671503">
        <ele>7.8</ele>
        <time>2020-06-08T14:38:30Z</time>
      </trkpt>
      <trkpt lat="59.231285932846" lon="17.869133809669">
        <ele>7.8</ele>
        <time>2020-06-08T14:38:31Z</time>
      </trkpt>
      <trkpt lat="59.231300265895" lon="17.869253754658">
        <ele>7.8</ele>
        <time>2020-06-08T14:38:32Z</time>
      </trkpt>
      <trkpt lat="59.231318035523" lon="17.869366658851">
        <ele>7.8</ele>
        <time>2020-06-08T14:38:33Z</time>
      </trkpt>
      <trkpt lat="59.231337649169" lon="17.869470091497">
        <ele>7.8</ele>
        <time>2020-06-08T14:38:34Z</time>
      </trkpt>
      <trkpt lat="59.231356508444" lon="17.869573356505">
        <ele>7.8</ele>
        <time>2020-06-08T14:38:35Z</time>
      </trkpt>
      <trkpt lat="59.231373691339" lon="17.869669999812">
        <ele>7.8</ele>
        <time>2020-06-08T14:38:36Z</time>
      </trkpt>
      <trkpt lat="59.231387186198" lon="17.869747700025">
        <ele>7.8</ele>
        <time>2020-06-08T14:38:37Z</time>
      </trkpt>
      <trkpt lat="59.231408979138" lon="17.86982439441">
        <ele>8</ele>
        <time>2020-06-08T14:38:38Z</time>
      </trkpt>
      <trkpt lat="59.231430101526" lon="17.869909135419">
        <ele>8</ele>
        <time>2020-06-08T14:38:39Z</time>
      </trkpt>
      <trkpt lat="59.231448290249" lon="17.869990775125">
        <ele>8</ele>
        <time>2020-06-08T14:38:40Z</time>
      </trkpt>
      <trkpt lat="59.231460276366" lon="17.870074594125">
        <ele>8</ele>
        <time>2020-06-08T14:38:41Z</time>
      </trkpt>
      <trkpt lat="59.231470669922" lon="17.870165034826">
        <ele>8</ele>
        <time>2020-06-08T14:38:42Z</time>
      </trkpt>
      <trkpt lat="59.231475615243" lon="17.870239801374">
        <ele>8</ele>
        <time>2020-06-08T14:38:43Z</time>
      </trkpt>
      <trkpt lat="59.231482236944" lon="17.87030551547">
        <ele>8</ele>
        <time>2020-06-08T14:38:44Z</time>
      </trkpt>
      <trkpt lat="59.23149849783" lon="17.870366451883">
        <ele>8.2</ele>
        <time>2020-06-08T14:38:45Z</time>
      </trkpt>
      <trkpt lat="59.231506125359" lon="17.870425628097">
        <ele>8.4</ele>
        <time>2020-06-08T14:38:46Z</time>
      </trkpt>
      <trkpt lat="59.231519284942" lon="17.870484971949">
        <ele>8.4</ele>
        <time>2020-06-08T14:38:47Z</time>
      </trkpt>
      <trkpt lat="59.231533534172" lon="17.870548925846">
        <ele>8.4</ele>
        <time>2020-06-08T14:38:48Z</time>
      </trkpt>
      <trkpt lat="59.231544765918" lon="17.870613885571">
        <ele>8.6</ele>
        <time>2020-06-08T14:38:49Z</time>
      </trkpt>
      <trkpt lat="59.23155298018" lon="17.870676246907">
        <ele>8.8</ele>
        <time>2020-06-08T14:38:50Z</time>
      </trkpt>
      <trkpt lat="59.231558344596" lon="17.870734584931">
        <ele>9.2</ele>
        <time>2020-06-08T14:38:51Z</time>
      </trkpt>
      <trkpt lat="59.231563625193" lon="17.870808261832">
        <ele>9.8</ele>
        <time>2020-06-08T14:38:52Z</time>
      </trkpt>
      <trkpt lat="59.231573515835" lon="17.870881938733">
        <ele>10.2</ele>
        <time>2020-06-08T14:38:53Z</time>
      </trkpt>
      <trkpt lat="59.231578377337" lon="17.870955364177">
        <ele>10.4</ele>
        <time>2020-06-08T14:38:54Z</time>
      </trkpt>
      <trkpt lat="59.23158650778" lon="17.871035746598">
        <ele>10.4</ele>
        <time>2020-06-08T14:38:55Z</time>
      </trkpt>
      <trkpt lat="59.231589609083" lon="17.871125516747">
        <ele>10.4</ele>
        <time>2020-06-08T14:38:56Z</time>
      </trkpt>
      <trkpt lat="59.231593129481" lon="17.871224758443">
        <ele>10.4</ele>
        <time>2020-06-08T14:38:57Z</time>
      </trkpt>
      <trkpt lat="59.231603942132" lon="17.871321820845">
        <ele>10.4</ele>
        <time>2020-06-08T14:38:58Z</time>
      </trkpt>
      <trkpt lat="59.231612072575" lon="17.871424834396">
        <ele>10.6</ele>
        <time>2020-06-08T14:38:59Z</time>
      </trkpt>
      <trkpt lat="59.231615676792" lon="17.871527428852">
        <ele>10.6</ele>
        <time>2020-06-08T14:39:00Z</time>
      </trkpt>
      <trkpt lat="59.231623304321" lon="17.871634800991">
        <ele>10.6</ele>
        <time>2020-06-08T14:39:01Z</time>
      </trkpt>
      <trkpt lat="59.231629339289" lon="17.871742927501">
        <ele>10.6</ele>
        <time>2020-06-08T14:39:02Z</time>
      </trkpt>
      <trkpt lat="59.231635877171" lon="17.871844683767">
        <ele>10.6</ele>
        <time>2020-06-08T14:39:03Z</time>
      </trkpt>
      <trkpt lat="59.231638727017" lon="17.871942081445">
        <ele>10.6</ele>
        <time>2020-06-08T14:39:04Z</time>
      </trkpt>
      <trkpt lat="59.231643169424" lon="17.872038389476">
        <ele>10.6</ele>
        <time>2020-06-08T14:39:05Z</time>
      </trkpt>
      <trkpt lat="59.231645851632" lon="17.872129752186">
        <ele>10.6</ele>
        <time>2020-06-08T14:39:06Z</time>
      </trkpt>
      <trkpt lat="59.231658173025" lon="17.872220611982">
        <ele>10.6</ele>
        <time>2020-06-08T14:39:07Z</time>
      </trkpt>
      <trkpt lat="59.231666387287" lon="17.87230543681">
        <ele>10.6</ele>
        <time>2020-06-08T14:39:08Z</time>
      </trkpt>
      <trkpt lat="59.23167367954" lon="17.872399733185">
        <ele>10.6</ele>
        <time>2020-06-08T14:39:09Z</time>
      </trkpt>
      <trkpt lat="59.231680804155" lon="17.872491934085">
        <ele>10.6</ele>
        <time>2020-06-08T14:39:10Z</time>
      </trkpt>
      <trkpt lat="59.231694215195" lon="17.872580698406">
        <ele>10.8</ele>
        <time>2020-06-08T14:39:11Z</time>
      </trkpt>
      <trkpt lat="59.231705949855" lon="17.872659236809">
        <ele>10.8</ele>
        <time>2020-06-08T14:39:12Z</time>
      </trkpt>
      <trkpt lat="59.231715086126" lon="17.872740122144">
        <ele>10.8</ele>
        <time>2020-06-08T14:39:13Z</time>
      </trkpt>
      <trkpt lat="59.231720785818" lon="17.872811284475">
        <ele>11</ele>
        <time>2020-06-08T14:39:14Z</time>
      </trkpt>
      <trkpt lat="59.231725228225" lon="17.872879010227">
        <ele>11.2</ele>
        <time>2020-06-08T14:39:15Z</time>
      </trkpt>
      <trkpt lat="59.231728580985" lon="17.872938689355">
        <ele>11.2</ele>
        <time>2020-06-08T14:39:16Z</time>
      </trkpt>
      <trkpt lat="59.231728078071" lon="17.872997027379">
        <ele>11.4</ele>
        <time>2020-06-08T14:39:17Z</time>
      </trkpt>
      <trkpt lat="59.231726820786" lon="17.873052683195">
        <ele>11.4</ele>
        <time>2020-06-08T14:39:18Z</time>
      </trkpt>
      <trkpt lat="59.231721121094" lon="17.873108674287">
        <ele>11.6</ele>
        <time>2020-06-08T14:39:19Z</time>
      </trkpt>
      <trkpt lat="59.23171726542" lon="17.873164665379">
        <ele>11.6</ele>
        <time>2020-06-08T14:39:20Z</time>
      </trkpt>
      <trkpt lat="59.231712068642" lon="17.873218560996">
        <ele>11.8</ele>
        <time>2020-06-08T14:39:21Z</time>
      </trkpt>
      <trkpt lat="59.231702848552" lon="17.87327522264">
        <ele>12</ele>
        <time>2020-06-08T14:39:22Z</time>
      </trkpt>
      <trkpt lat="59.231687258218" lon="17.873340852917">
        <ele>12</ele>
        <time>2020-06-08T14:39:23Z</time>
      </trkpt>
      <trkpt lat="59.231667057839" lon="17.873413188714">
        <ele>12</ele>
        <time>2020-06-08T14:39:24Z</time>
      </trkpt>
      <trkpt lat="59.231638307922" lon="17.873508574736">
        <ele>12</ele>
        <time>2020-06-08T14:39:25Z</time>
      </trkpt>
      <trkpt lat="59.231604193589" lon="17.873598177247">
        <ele>12</ele>
        <time>2020-06-08T14:39:26Z</time>
      </trkpt>
      <trkpt lat="59.23156555303" lon="17.873671183596">
        <ele>12</ele>
        <time>2020-06-08T14:39:27Z</time>
      </trkpt>
      <trkpt lat="59.231525152272" lon="17.873726420317">
        <ele>12</ele>
        <time>2020-06-08T14:39:28Z</time>
      </trkpt>
      <trkpt lat="59.231479890012" lon="17.873770006197">
        <ele>12</ele>
        <time>2020-06-08T14:39:29Z</time>
      </trkpt>
      <trkpt lat="59.231434543933" lon="17.873828847135">
        <ele>12</ele>
        <time>2020-06-08T14:39:30Z</time>
      </trkpt>
      <trkpt lat="59.2313836658" lon="17.873874360852">
        <ele>12</ele>
        <time>2020-06-08T14:39:31Z</time>
      </trkpt>
      <trkpt lat="59.231328009984" lon="17.873903781321">
        <ele>11.6</ele>
        <time>2020-06-08T14:39:32Z</time>
      </trkpt>
      <trkpt lat="59.231272018892" lon="17.873926747727">
        <ele>11.4</ele>
        <time>2020-06-08T14:39:33Z</time>
      </trkpt>
      <trkpt lat="59.231215273429" lon="17.873956503472">
        <ele>11.2</ele>
        <time>2020-06-08T14:39:34Z</time>
      </trkpt>
      <trkpt lat="59.231158527966" lon="17.873993970565">
        <ele>11.2</ele>
        <time>2020-06-08T14:39:35Z</time>
      </trkpt>
      <trkpt lat="59.231100273761" lon="17.874033616952">
        <ele>11</ele>
        <time>2020-06-08T14:39:36Z</time>
      </trkpt>
      <trkpt lat="59.231037660968" lon="17.874074101529">
        <ele>10.6</ele>
        <time>2020-06-08T14:39:37Z</time>
      </trkpt>
      <trkpt lat="59.230976137822" lon="17.874107126215">
        <ele>10.6</ele>
        <time>2020-06-08T14:39:38Z</time>
      </trkpt>
      <trkpt lat="59.230908160613" lon="17.874143671299">
        <ele>10.4</ele>
        <time>2020-06-08T14:39:39Z</time>
      </trkpt>
      <trkpt lat="59.230841021594" lon="17.874176444528">
        <ele>10.2</ele>
        <time>2020-06-08T14:39:40Z</time>
      </trkpt>
      <trkpt lat="59.230783689398" lon="17.874194465613">
        <ele>10.2</ele>
        <time>2020-06-08T14:39:41Z</time>
      </trkpt>
      <trkpt lat="59.23073406855" lon="17.87419806983">
        <ele>10.2</ele>
        <time>2020-06-08T14:39:42Z</time>
      </trkpt>
      <trkpt lat="59.230686543177" lon="17.874198572744">
        <ele>10.2</ele>
        <time>2020-06-08T14:39:43Z</time>
      </trkpt>
      <trkpt lat="59.230639436899" lon="17.874193711242">
        <ele>10.2</ele>
        <time>2020-06-08T14:39:44Z</time>
      </trkpt>
      <trkpt lat="59.230591911526" lon="17.874175941614">
        <ele>10.4</ele>
        <time>2020-06-08T14:39:45Z</time>
      </trkpt>
      <trkpt lat="59.23054882856" lon="17.874155908873">
        <ele>10.6</ele>
        <time>2020-06-08T14:39:46Z</time>
      </trkpt>
      <trkpt lat="59.230514378951" lon="17.874128248603">
        <ele>10.6</ele>
        <time>2020-06-08T14:39:47Z</time>
      </trkpt>
      <trkpt lat="59.230478755876" lon="17.874103019084">
        <ele>10.8</ele>
        <time>2020-06-08T14:39:48Z</time>
      </trkpt>
      <trkpt lat="59.230442713706" lon="17.874067647466">
        <ele>10.8</ele>
        <time>2020-06-08T14:39:49Z</time>
      </trkpt>
      <trkpt lat="59.230407845002" lon="17.874024983595">
        <ele>11</ele>
        <time>2020-06-08T14:39:50Z</time>
      </trkpt>
      <trkpt lat="59.230366689873" lon="17.873985504846">
        <ele>10.8</ele>
        <time>2020-06-08T14:39:51Z</time>
      </trkpt>
      <trkpt lat="59.230324948011" lon="17.873946193735">
        <ele>10.8</ele>
        <time>2020-06-08T14:39:52Z</time>
      </trkpt>
      <trkpt lat="59.230275159525" lon="17.873922640596">
        <ele>10.8</ele>
        <time>2020-06-08T14:39:53Z</time>
      </trkpt>
      <trkpt lat="59.230229645808" lon="17.873904451873">
        <ele>10.8</ele>
        <time>2020-06-08T14:39:54Z</time>
      </trkpt>
      <trkpt lat="59.230178767675" lon="17.873888610082">
        <ele>11</ele>
        <time>2020-06-08T14:39:55Z</time>
      </trkpt>
      <trkpt lat="59.230126129343" lon="17.873883497123">
        <ele>11</ele>
        <time>2020-06-08T14:39:56Z</time>
      </trkpt>
      <trkpt lat="59.230084052205" lon="17.873901266751">
        <ele>11</ele>
        <time>2020-06-08T14:39:57Z</time>
      </trkpt>
      <trkpt lat="59.230052284804" lon="17.873931273953">
        <ele>11</ele>
        <time>2020-06-08T14:39:58Z</time>
      </trkpt>
      <trkpt lat="59.230039628135" lon="17.873974608376">
        <ele>11</ele>
        <time>2020-06-08T14:39:59Z</time>
      </trkpt>
      <trkpt lat="59.230036526832" lon="17.874023810129">
        <ele>10.8</ele>
        <time>2020-06-08T14:40:00Z</time>
      </trkpt>
      <trkpt lat="59.230035353366" lon="17.874077789565">
        <ele>11</ele>
        <time>2020-06-08T14:40:01Z</time>
      </trkpt>
      <trkpt lat="59.230039460497" lon="17.874130679354">
        <ele>10.8</ele>
        <time>2020-06-08T14:40:02Z</time>
      </trkpt>
      <trkpt lat="59.230044405818" lon="17.874198153649">
        <ele>10.6</ele>
        <time>2020-06-08T14:40:03Z</time>
      </trkpt>
      <trkpt lat="59.230055553745" lon="17.874264370659">
        <ele>10.6</ele>
        <time>2020-06-08T14:40:04Z</time>
      </trkpt>
      <trkpt lat="59.230065528206" lon="17.874342657605">
        <ele>10.2</ele>
        <time>2020-06-08T14:40:05Z</time>
      </trkpt>
      <trkpt lat="59.230079274522" lon="17.874425722234">
        <ele>10</ele>
        <time>2020-06-08T14:40:06Z</time>
      </trkpt>
      <trkpt lat="59.230092266467" lon="17.874513564546">
        <ele>10</ele>
        <time>2020-06-08T14:40:07Z</time>
      </trkpt>
      <trkpt lat="59.230107605344" lon="17.874619595581">
        <ele>9.8</ele>
        <time>2020-06-08T14:40:08Z</time>
      </trkpt>
      <trkpt lat="59.230119759099" lon="17.874727219177">
        <ele>9.6</ele>
        <time>2020-06-08T14:40:09Z</time>
      </trkpt>
      <trkpt lat="59.230129230646" lon="17.874834004583">
        <ele>9.6</ele>
        <time>2020-06-08T14:40:10Z</time>
      </trkpt>
      <trkpt lat="59.230140378573" lon="17.87493483884">
        <ele>9.4</ele>
        <time>2020-06-08T14:40:11Z</time>
      </trkpt>
      <trkpt lat="59.230146664998" lon="17.875054616191">
        <ele>9.2</ele>
        <time>2020-06-08T14:40:12Z</time>
      </trkpt>
      <trkpt lat="59.23014482098" lon="17.875150505127">
        <ele>9</ele>
        <time>2020-06-08T14:40:13Z</time>
      </trkpt>
      <trkpt lat="59.230127889542" lon="17.875240442914">
        <ele>9</ele>
        <time>2020-06-08T14:40:14Z</time>
      </trkpt>
      <trkpt lat="59.230112383027" lon="17.875309006856">
        <ele>9</ele>
        <time>2020-06-08T14:40:15Z</time>
      </trkpt>
      <trkpt lat="59.230096038322" lon="17.875377235522">
        <ele>9</ele>
        <time>2020-06-08T14:40:16Z</time>
      </trkpt>
      <trkpt lat="59.230082292006" lon="17.875434064804">
        <ele>9</ele>
        <time>2020-06-08T14:40:17Z</time>
      </trkpt>
      <trkpt lat="59.230058571229" lon="17.875513525216">
        <ele>9</ele>
        <time>2020-06-08T14:40:18Z</time>
      </trkpt>
      <trkpt lat="59.23003669447" lon="17.875572533792">
        <ele>9</ele>
        <time>2020-06-08T14:40:19Z</time>
      </trkpt>
      <trkpt lat="59.230015404444" lon="17.875628524884">
        <ele>9</ele>
        <time>2020-06-08T14:40:20Z</time>
      </trkpt>
      <trkpt lat="59.229997970092" lon="17.87567915156">
        <ele>9</ele>
        <time>2020-06-08T14:40:21Z</time>
      </trkpt>
      <trkpt lat="59.22997299203" lon="17.875731873711">
        <ele>9.2</ele>
        <time>2020-06-08T14:40:22Z</time>
      </trkpt>
      <trkpt lat="59.229950863814" lon="17.87578057255">
        <ele>9.6</ele>
        <time>2020-06-08T14:40:23Z</time>
      </trkpt>
      <trkpt lat="59.229929573788" lon="17.875814603064">
        <ele>10.2</ele>
        <time>2020-06-08T14:40:24Z</time>
      </trkpt>
      <trkpt lat="59.229862099493" lon="17.875892638553">
        <ele>11</ele>
        <time>2020-06-08T14:40:26Z</time>
      </trkpt>
      <trkpt lat="59.229815663767" lon="17.875944606333">
        <ele>11.4</ele>
        <time>2020-06-08T14:40:27Z</time>
      </trkpt>
      <trkpt lat="59.229776939389" lon="17.875997160846">
        <ele>11.4</ele>
        <time>2020-06-08T14:40:28Z</time>
      </trkpt>
      <trkpt lat="59.229745674902" lon="17.876068155539">
        <ele>11.6</ele>
        <time>2020-06-08T14:40:29Z</time>
      </trkpt>
      <trkpt lat="59.229733856423" lon="17.876154489109">
        <ele>11.6</ele>
        <time>2020-06-08T14:40:30Z</time>
      </trkpt>
      <trkpt lat="59.22972740236" lon="17.876267477121">
        <ele>11.6</ele>
        <time>2020-06-08T14:40:31Z</time>
      </trkpt>
      <trkpt lat="59.229726145075" lon="17.876366634998">
        <ele>11.6</ele>
        <time>2020-06-08T14:40:32Z</time>
      </trkpt>
      <trkpt lat="59.229723965781" lon="17.87645112455">
        <ele>11.6</ele>
        <time>2020-06-08T14:40:33Z</time>
      </trkpt>
      <trkpt lat="59.229721870306" lon="17.876534775912">
        <ele>11.6</ele>
        <time>2020-06-08T14:40:34Z</time>
      </trkpt>
      <trkpt lat="59.22971650589" lon="17.876630916305">
        <ele>11.4</ele>
        <time>2020-06-08T14:40:35Z</time>
      </trkpt>
      <trkpt lat="59.229713739863" lon="17.876735606236">
        <ele>11.2</ele>
        <time>2020-06-08T14:40:36Z</time>
      </trkpt>
      <trkpt lat="59.22971482951" lon="17.876862005288">
        <ele>10.8</ele>
        <time>2020-06-08T14:40:37Z</time>
      </trkpt>
      <trkpt lat="59.229717679356" lon="17.87698588977">
        <ele>10.6</ele>
        <time>2020-06-08T14:40:38Z</time>
      </trkpt>
      <trkpt lat="59.229721702668" lon="17.877104158379">
        <ele>10.6</ele>
        <time>2020-06-08T14:40:39Z</time>
      </trkpt>
      <trkpt lat="59.229725139247" lon="17.877212620165">
        <ele>10.2</ele>
        <time>2020-06-08T14:40:40Z</time>
      </trkpt>
      <trkpt lat="59.22972907874" lon="17.877316555725">
        <ele>10</ele>
        <time>2020-06-08T14:40:41Z</time>
      </trkpt>
      <trkpt lat="59.22973159331" lon="17.877417976715">
        <ele>10</ele>
        <time>2020-06-08T14:40:42Z</time>
      </trkpt>
      <trkpt lat="59.22973159331" lon="17.877513446556">
        <ele>9.4</ele>
        <time>2020-06-08T14:40:43Z</time>
      </trkpt>
      <trkpt lat="59.229732347681" lon="17.877600031583">
        <ele>9</ele>
        <time>2020-06-08T14:40:44Z</time>
      </trkpt>
      <trkpt lat="59.229737209183" lon="17.8776790729">
        <ele>8.8</ele>
        <time>2020-06-08T14:40:45Z</time>
      </trkpt>
      <trkpt lat="59.229744417617" lon="17.877756437837">
        <ele>8.6</ele>
        <time>2020-06-08T14:40:46Z</time>
      </trkpt>
      <trkpt lat="59.2297491953" lon="17.877837909905">
        <ele>8.6</ele>
        <time>2020-06-08T14:40:47Z</time>
      </trkpt>
      <trkpt lat="59.229754392078" lon="17.877913933738">
        <ele>8.6</ele>
        <time>2020-06-08T14:40:48Z</time>
      </trkpt>
      <trkpt lat="59.229759672675" lon="17.877982581499">
        <ele>8.6</ele>
        <time>2020-06-08T14:40:49Z</time>
      </trkpt>
      <trkpt lat="59.229764953272" lon="17.878048211776">
        <ele>8.6</ele>
        <time>2020-06-08T14:40:50Z</time>
      </trkpt>
      <trkpt lat="59.229770820602" lon="17.878117362451">
        <ele>8.6</ele>
        <time>2020-06-08T14:40:51Z</time>
      </trkpt>
      <trkpt lat="59.229777274665" lon="17.878188776239">
        <ele>8.6</ele>
        <time>2020-06-08T14:40:52Z</time>
      </trkpt>
      <trkpt lat="59.22978104652" lon="17.878261531131">
        <ele>8.6</ele>
        <time>2020-06-08T14:40:53Z</time>
      </trkpt>
      <trkpt lat="59.229782387624" lon="17.878336381498">
        <ele>8.6</ele>
        <time>2020-06-08T14:40:54Z</time>
      </trkpt>
      <trkpt lat="59.229783644909" lon="17.878415087539">
        <ele>8.8</ele>
        <time>2020-06-08T14:40:55Z</time>
      </trkpt>
      <trkpt lat="59.229790182791" lon="17.878491027553">
        <ele>9</ele>
        <time>2020-06-08T14:40:56Z</time>
      </trkpt>
      <trkpt lat="59.229801582175" lon="17.87856839249">
        <ele>9.4</ele>
        <time>2020-06-08T14:40:57Z</time>
      </trkpt>
      <trkpt lat="59.229814071206" lon="17.878643242857">
        <ele>9.8</ele>
        <time>2020-06-08T14:40:58Z</time>
      </trkpt>
      <trkpt lat="59.229826895513" lon="17.878718260862">
        <ele>10</ele>
        <time>2020-06-08T14:40:59Z</time>
      </trkpt>
      <trkpt lat="59.229839300725" lon="17.87879302741">
        <ele>10.2</ele>
        <time>2020-06-08T14:41:00Z</time>
      </trkpt>
      <trkpt lat="59.229852376489" lon="17.878864525017">
        <ele>10.2</ele>
        <time>2020-06-08T14:41:01Z</time>
      </trkpt>
      <trkpt lat="59.22986486552" lon="17.87893468152">
        <ele>10.2</ele>
        <time>2020-06-08T14:41:02Z</time>
      </trkpt>
      <trkpt lat="59.229877941284" lon="17.879005257118">
        <ele>10.2</ele>
        <time>2020-06-08T14:41:03Z</time>
      </trkpt>
      <trkpt lat="59.229890430315" lon="17.879072396137">
        <ele>10.2</ele>
        <time>2020-06-08T14:41:04Z</time>
      </trkpt>
      <trkpt lat="59.229898057844" lon="17.879127213763">
        <ele>10.2</ele>
        <time>2020-06-08T14:41:05Z</time>
      </trkpt>
      <trkpt lat="59.229905350097" lon="17.87917775662">
        <ele>10.2</ele>
        <time>2020-06-08T14:41:06Z</time>
      </trkpt>
      <trkpt lat="59.229918006766" lon="17.879235507911">
        <ele>10.2</ele>
        <time>2020-06-08T14:41:07Z</time>
      </trkpt>
      <trkpt lat="59.229929741426" lon="17.879304658586">
        <ele>10.2</ele>
        <time>2020-06-08T14:41:08Z</time>
      </trkpt>
      <trkpt lat="59.229940218801" lon="17.879379257496">
        <ele>10.2</ele>
        <time>2020-06-08T14:41:09Z</time>
      </trkpt>
      <trkpt lat="59.229957820791" lon="17.879451677112">
        <ele>10.2</ele>
        <time>2020-06-08T14:41:10Z</time>
      </trkpt>
      <trkpt lat="59.229981541568" lon="17.879522839443">
        <ele>10.2</ele>
        <time>2020-06-08T14:41:11Z</time>
      </trkpt>
      <trkpt lat="59.230007693096" lon="17.879596181068">
        <ele>10.2</ele>
        <time>2020-06-08T14:41:12Z</time>
      </trkpt>
      <trkpt lat="59.230035353366" lon="17.879666253752">
        <ele>10.4</ele>
        <time>2020-06-08T14:41:13Z</time>
      </trkpt>
      <trkpt lat="59.230064857654" lon="17.879732554581">
        <ele>10.2</ele>
        <time>2020-06-08T14:41:14Z</time>
      </trkpt>
      <trkpt lat="59.230094697218" lon="17.87980053179">
        <ele>10.2</ele>
        <time>2020-06-08T14:41:15Z</time>
      </trkpt>
      <trkpt lat="59.230125291153" lon="17.87987093975">
        <ele>10.2</ele>
        <time>2020-06-08T14:41:16Z</time>
      </trkpt>
      <trkpt lat="59.230159154029" lon="17.879940006606">
        <ele>10.2</ele>
        <time>2020-06-08T14:41:17Z</time>
      </trkpt>
      <trkpt lat="59.230197962226" lon="17.880004379598">
        <ele>10.2</ele>
        <time>2020-06-08T14:41:18Z</time>
      </trkpt>
      <trkpt lat="59.230240626097" lon="17.880062633803">
        <ele>10.2</ele>
        <time>2020-06-08T14:41:19Z</time>
      </trkpt>
      <trkpt lat="59.230287480918" lon="17.880115607411">
        <ele>10.2</ele>
        <time>2020-06-08T14:41:20Z</time>
      </trkpt>
      <trkpt lat="59.230337939956" lon="17.880167239915">
        <ele>10.2</ele>
        <time>2020-06-08T14:41:21Z</time>
      </trkpt>
      <trkpt lat="59.230391667935" lon="17.880214262374">
        <ele>10.2</ele>
        <time>2020-06-08T14:41:22Z</time>
      </trkpt>
      <trkpt lat="59.230447910484" lon="17.880254160218">
        <ele>10</ele>
        <time>2020-06-08T14:41:23Z</time>
      </trkpt>
      <trkpt lat="59.230505829413" lon="17.880290453845">
        <ele>9.8</ele>
        <time>2020-06-08T14:41:24Z</time>
      </trkpt>
      <trkpt lat="59.230561149953" lon="17.880325657825">
        <ele>9.6</ele>
        <time>2020-06-08T14:41:25Z</time>
      </trkpt>
      <trkpt lat="59.230616219036" lon="17.880361448538">
        <ele>9.6</ele>
        <time>2020-06-08T14:41:26Z</time>
      </trkpt>
      <trkpt lat="59.230670282291" lon="17.880399334726">
        <ele>9.4</ele>
        <time>2020-06-08T14:41:27Z</time>
      </trkpt>
      <trkpt lat="59.230720238415" lon="17.880447698289">
        <ele>9.2</ele>
        <time>2020-06-08T14:41:28Z</time>
      </trkpt>
      <trkpt lat="59.230763908114" lon="17.88050880234">
        <ele>8.6</ele>
        <time>2020-06-08T14:41:29Z</time>
      </trkpt>
      <trkpt lat="59.230799363551" lon="17.880583233612">
        <ele>8.4</ele>
        <time>2020-06-08T14:41:30Z</time>
      </trkpt>
      <trkpt lat="59.230825095984" lon="17.880666465879">
        <ele>8.2</ele>
        <time>2020-06-08T14:41:31Z</time>
      </trkpt>
      <trkpt lat="59.230841189232" lon="17.880755481657">
        <ele>8.2</ele>
        <time>2020-06-08T14:41:32Z</time>
      </trkpt>
      <trkpt lat="59.23085141515" lon="17.880847766376">
        <ele>8.2</ele>
        <time>2020-06-08T14:41:33Z</time>
      </trkpt>
      <trkpt lat="59.230859042679" lon="17.880940973104">
        <ele>8.2</ele>
        <time>2020-06-08T14:41:34Z</time>
      </trkpt>
      <trkpt lat="59.23086482619" lon="17.881033844556">
        <ele>8.2</ele>
        <time>2020-06-08T14:41:35Z</time>
      </trkpt>
      <trkpt lat="59.230868346588" lon="17.881126464551">
        <ele>8</ele>
        <time>2020-06-08T14:41:36Z</time>
      </trkpt>
      <trkpt lat="59.230872286081" lon="17.881218916908">
        <ele>8</ele>
        <time>2020-06-08T14:41:37Z</time>
      </trkpt>
      <trkpt lat="59.230875387384" lon="17.881311536903">
        <ele>8</ele>
        <time>2020-06-08T14:41:38Z</time>
      </trkpt>
      <trkpt lat="59.230876393212" lon="17.881402983432">
        <ele>8</ele>
        <time>2020-06-08T14:41:39Z</time>
      </trkpt>
      <trkpt lat="59.230876309393" lon="17.881492418305">
        <ele>8</ele>
        <time>2020-06-08T14:41:40Z</time>
      </trkpt>
      <trkpt lat="59.230876644669" lon="17.881578751875">
        <ele>8</ele>
        <time>2020-06-08T14:41:41Z</time>
      </trkpt>
      <trkpt lat="59.230876644669" lon="17.881661229771">
        <ele>8.2</ele>
        <time>2020-06-08T14:41:42Z</time>
      </trkpt>
      <trkpt lat="59.230873627185" lon="17.881739013803">
        <ele>8.2</ele>
        <time>2020-06-08T14:41:43Z</time>
      </trkpt>
      <trkpt lat="59.230868346588" lon="17.881811098143">
        <ele>8.2</ele>
        <time>2020-06-08T14:41:44Z</time>
      </trkpt>
      <trkpt lat="59.230863317448" lon="17.881876560782">
        <ele>8.2</ele>
        <time>2020-06-08T14:41:45Z</time>
      </trkpt>
      <trkpt lat="59.230859294136" lon="17.881936407548">
        <ele>8.2</ele>
        <time>2020-06-08T14:41:46Z</time>
      </trkpt>
      <trkpt lat="59.230852840073" lon="17.881990051708">
        <ele>8.4</ele>
        <time>2020-06-08T14:41:47Z</time>
      </trkpt>
      <trkpt lat="59.230844625811" lon="17.882040343108">
        <ele>8.6</ele>
        <time>2020-06-08T14:41:48Z</time>
      </trkpt>
      <trkpt lat="59.230837668834" lon="17.882088371395">
        <ele>8.8</ele>
        <time>2020-06-08T14:41:49Z</time>
      </trkpt>
      <trkpt lat="59.230834232255" lon="17.882134471845">
        <ele>9</ele>
        <time>2020-06-08T14:41:50Z</time>
      </trkpt>
      <trkpt lat="59.230835154264" lon="17.882180739933">
        <ele>9</ele>
        <time>2020-06-08T14:41:51Z</time>
      </trkpt>
      <trkpt lat="59.230837333558" lon="17.882228516763">
        <ele>9.2</ele>
        <time>2020-06-08T14:41:52Z</time>
      </trkpt>
      <trkpt lat="59.23083968049" lon="17.88227570686">
        <ele>9.4</ele>
        <time>2020-06-08T14:41:53Z</time>
      </trkpt>
      <trkpt lat="59.230841021594" lon="17.882315604704">
        <ele>9.8</ele>
        <time>2020-06-08T14:41:54Z</time>
      </trkpt>
      <trkpt lat="59.230839429033" lon="17.882352485064">
        <ele>10</ele>
        <time>2020-06-08T14:41:55Z</time>
      </trkpt>
      <trkpt lat="59.23083716592" lon="17.882388946329">
        <ele>10.4</ele>
        <time>2020-06-08T14:41:56Z</time>
      </trkpt>
      <trkpt lat="59.230836579187" lon="17.882424401766">
        <ele>10.4</ele>
        <time>2020-06-08T14:41:57Z</time>
      </trkpt>
      <trkpt lat="59.230839931947" lon="17.882458683737">
        <ele>10.8</ele>
        <time>2020-06-08T14:41:58Z</time>
      </trkpt>
      <trkpt lat="59.230842781793" lon="17.882497324296">
        <ele>11</ele>
        <time>2020-06-08T14:41:59Z</time>
      </trkpt>
      <trkpt lat="59.230846218372" lon="17.882536970683">
        <ele>11.4</ele>
        <time>2020-06-08T14:42:00Z</time>
      </trkpt>
      <trkpt lat="59.230851918064" lon="17.882571001197">
        <ele>11.6</ele>
        <time>2020-06-08T14:42:01Z</time>
      </trkpt>
      <trkpt lat="59.230857785394" lon="17.882602098046">
        <ele>12</ele>
        <time>2020-06-08T14:42:02Z</time>
      </trkpt>
      <trkpt lat="59.230862143982" lon="17.882632691981">
        <ele>12.2</ele>
        <time>2020-06-08T14:42:03Z</time>
      </trkpt>
      <trkpt lat="59.230867843674" lon="17.882663118278">
        <ele>12.2</ele>
        <time>2020-06-08T14:42:04Z</time>
      </trkpt>
      <trkpt lat="59.230875974117" lon="17.882694047489">
        <ele>12.6</ele>
        <time>2020-06-08T14:42:05Z</time>
      </trkpt>
      <trkpt lat="59.230879578334" lon="17.882723719415">
        <ele>12.6</ele>
        <time>2020-06-08T14:42:06Z</time>
      </trkpt>
      <trkpt lat="59.230879745972" lon="17.882751128228">
        <ele>12.8</ele>
        <time>2020-06-08T14:42:07Z</time>
      </trkpt>
      <trkpt lat="59.230881338533" lon="17.882774010815">
        <ele>13.2</ele>
        <time>2020-06-08T14:42:08Z</time>
      </trkpt>
      <trkpt lat="59.230883098732" lon="17.88279706104">
        <ele>13.4</ele>
        <time>2020-06-08T14:42:09Z</time>
      </trkpt>
      <trkpt lat="59.230875638841" lon="17.882813070469">
        <ele>13.6</ele>
        <time>2020-06-08T14:42:10Z</time>
      </trkpt>
      <trkpt lat="59.23086314981" lon="17.882809885347">
        <ele>14</ele>
        <time>2020-06-08T14:42:11Z</time>
      </trkpt>
      <trkpt lat="59.230850325503" lon="17.882792115719">
        <ele>14.2</ele>
        <time>2020-06-08T14:42:12Z</time>
      </trkpt>
      <trkpt lat="59.230839512852" lon="17.882765293639">
        <ele>14.6</ele>
        <time>2020-06-08T14:42:13Z</time>
      </trkpt>
      <trkpt lat="59.230826185631" lon="17.882736459903">
        <ele>15</ele>
        <time>2020-06-08T14:42:14Z</time>
      </trkpt>
      <trkpt lat="59.230808835098" lon="17.882716762438">
        <ele>15.2</ele>
        <time>2020-06-08T14:42:15Z</time>
      </trkpt>
      <trkpt lat="59.230789305271" lon="17.882713744954">
        <ele>15.2</ele>
        <time>2020-06-08T14:42:16Z</time>
      </trkpt>
      <trkpt lat="59.230774972222" lon="17.882726317804">
        <ele>15.4</ele>
        <time>2020-06-08T14:42:17Z</time>
      </trkpt>
      <trkpt lat="59.230765249218" lon="17.882745009441">
        <ele>15.4</ele>
        <time>2020-06-08T14:42:18Z</time>
      </trkpt>
      <trkpt lat="59.230762902286" lon="17.882772585892">
        <ele>15.4</ele>
        <time>2020-06-08T14:42:19Z</time>
      </trkpt>
      <trkpt lat="59.230762483191" lon="17.882804520931">
        <ele>15.6</ele>
        <time>2020-06-08T14:42:20Z</time>
      </trkpt>
      <trkpt lat="59.230755610033" lon="17.882833270848">
        <ele>15.6</ele>
        <time>2020-06-08T14:42:21Z</time>
      </trkpt>
      <trkpt lat="59.230743959192" lon="17.88285992529">
        <ele>15.6</ele>
        <time>2020-06-08T14:42:22Z</time>
      </trkpt>
      <trkpt lat="59.230732140713" lon="17.882881802049">
        <ele>15.8</ele>
        <time>2020-06-08T14:42:23Z</time>
      </trkpt>
      <trkpt lat="59.230721076605" lon="17.882905439007">
        <ele>15.8</ele>
        <time>2020-06-08T14:42:24Z</time>
      </trkpt>
      <trkpt lat="59.230712443248" lon="17.882918933866">
        <ele>16</ele>
        <time>2020-06-08T14:42:25Z</time>
      </trkpt>
      <trkpt lat="59.230704564262" lon="17.882928153956">
        <ele>16</ele>
        <time>2020-06-08T14:42:26Z</time>
      </trkpt>
      <trkpt lat="59.230697523466" lon="17.882946007403">
        <ele>16</ele>
        <time>2020-06-08T14:42:27Z</time>
      </trkpt>
      <trkpt lat="59.23068545353" lon="17.882967465067">
        <ele>16.2</ele>
        <time>2020-06-08T14:42:28Z</time>
      </trkpt>
      <trkpt lat="59.230674305603" lon="17.882991102025">
        <ele>16.2</ele>
        <time>2020-06-08T14:42:29Z</time>
      </trkpt>
      <trkpt lat="59.230662738581" lon="17.883014403707">
        <ele>16.6</ele>
        <time>2020-06-08T14:42:30Z</time>
      </trkpt>
      <trkpt lat="59.230649746636" lon="17.883028820575">
        <ele>17.4</ele>
        <time>2020-06-08T14:42:31Z</time>
      </trkpt>
      <trkpt lat="59.230633066655" lon="17.883041980158">
        <ele>17.8</ele>
        <time>2020-06-08T14:42:32Z</time>
      </trkpt>
      <trkpt lat="59.230616973407" lon="17.883045668194">
        <ele>18.2</ele>
        <time>2020-06-08T14:42:33Z</time>
      </trkpt>
      <trkpt lat="59.230599371417" lon="17.883049859144">
        <ele>18.8</ele>
        <time>2020-06-08T14:42:34Z</time>
      </trkpt>
      <trkpt lat="59.230581350332" lon="17.883058660139">
        <ele>18.8</ele>
        <time>2020-06-08T14:42:35Z</time>
      </trkpt>
      <trkpt lat="59.230566262912" lon="17.883067125858">
        <ele>19.2</ele>
        <time>2020-06-08T14:42:36Z</time>
      </trkpt>
      <trkpt lat="59.230553187148" lon="17.883069724247">
        <ele>19.6</ele>
        <time>2020-06-08T14:42:37Z</time>
      </trkpt>
      <trkpt lat="59.230542039221" lon="17.883072574093">
        <ele>19.8</ele>
        <time>2020-06-08T14:42:38Z</time>
      </trkpt>
      <trkpt lat="59.230529214914" lon="17.883077687052">
        <ele>20.2</ele>
        <time>2020-06-08T14:42:39Z</time>
      </trkpt>
      <trkpt lat="59.230522509394" lon="17.883088332065">
        <ele>20.4</ele>
        <time>2020-06-08T14:42:40Z</time>
      </trkpt>
      <trkpt lat="59.230512534933" lon="17.883104760589">
        <ele>20.8</ele>
        <time>2020-06-08T14:42:41Z</time>
      </trkpt>
      <trkpt lat="59.230502979567" lon="17.883116579068">
        <ele>21</ele>
        <time>2020-06-08T14:42:42Z</time>
      </trkpt>
      <trkpt lat="59.230484036473" lon="17.883149352297">
        <ele>21.2</ele>
        <time>2020-06-08T14:42:43Z</time>
      </trkpt>
      <trkpt lat="59.230468949053" lon="17.883178688947">
        <ele>21.6</ele>
        <time>2020-06-08T14:42:44Z</time>
      </trkpt>
      <trkpt lat="59.230455286556" lon="17.883200733344">
        <ele>21.8</ele>
        <time>2020-06-08T14:42:45Z</time>
      </trkpt>
      <trkpt lat="59.230439277127" lon="17.88321364147">
        <ele>21.8</ele>
        <time>2020-06-08T14:42:46Z</time>
      </trkpt>
      <trkpt lat="59.230422178051" lon="17.883223951207">
        <ele>22</ele>
        <time>2020-06-08T14:42:47Z</time>
      </trkpt>
      <trkpt lat="59.230408180278" lon="17.883229231804">
        <ele>22.2</ele>
        <time>2020-06-08T14:42:48Z</time>
      </trkpt>
      <trkpt lat="59.230390159193" lon="17.883247588165">
        <ele>22.4</ele>
        <time>2020-06-08T14:42:49Z</time>
      </trkpt>
      <trkpt lat="59.230371551375" lon="17.883268459096">
        <ele>22.8</ele>
        <time>2020-06-08T14:42:50Z</time>
      </trkpt>
      <trkpt lat="59.230354536118" lon="17.883294610624">
        <ele>23</ele>
        <time>2020-06-08T14:42:51Z</time>
      </trkpt>
      <trkpt lat="59.23033928106" lon="17.883314811003">
        <ele>23.2</ele>
        <time>2020-06-08T14:42:52Z</time>
      </trkpt>
      <trkpt lat="59.230325450925" lon="17.883326545663">
        <ele>23.6</ele>
        <time>2020-06-08T14:42:53Z</time>
      </trkpt>
      <trkpt lat="59.230307262202" lon="17.883338196504">
        <ele>23.8</ele>
        <time>2020-06-08T14:42:54Z</time>
      </trkpt>
      <trkpt lat="59.230288319108" lon="17.883354625028">
        <ele>24</ele>
        <time>2020-06-08T14:42:55Z</time>
      </trkpt>
      <trkpt lat="59.230267951091" lon="17.883382369117">
        <ele>24.4</ele>
        <time>2020-06-08T14:42:56Z</time>
      </trkpt>
      <trkpt lat="59.230256132612" lon="17.883403240048">
        <ele>24.6</ele>
        <time>2020-06-08T14:42:57Z</time>
      </trkpt>
      <trkpt lat="59.230241799563" lon="17.88341480707">
        <ele>25</ele>
        <time>2020-06-08T14:42:58Z</time>
      </trkpt>
      <trkpt lat="59.230229059075" lon="17.883418327468">
        <ele>25.2</ele>
        <time>2020-06-08T14:42:59Z</time>
      </trkpt>
      <trkpt lat="59.230222269736" lon="17.883432660517">
        <ele>26</ele>
        <time>2020-06-08T14:43:00Z</time>
      </trkpt>
      <trkpt lat="59.230208188144" lon="17.883454202">
        <ele>26.4</ele>
        <time>2020-06-08T14:43:01Z</time>
      </trkpt>
      <trkpt lat="59.230200225339" lon="17.883473815646">
        <ele>26.6</ele>
        <time>2020-06-08T14:43:02Z</time>
      </trkpt>
      <trkpt lat="59.230187652489" lon="17.883491501455">
        <ele>26.8</ele>
        <time>2020-06-08T14:43:03Z</time>
      </trkpt>
      <trkpt lat="59.230177175114" lon="17.883504828676">
        <ele>27</ele>
        <time>2020-06-08T14:43:04Z</time>
      </trkpt>
      <trkpt lat="59.230164686083" lon="17.883521508657">
        <ele>27.2</ele>
        <time>2020-06-08T14:43:05Z</time>
      </trkpt>
      <trkpt lat="59.230148509016" lon="17.883546067624">
        <ele>27.6</ele>
        <time>2020-06-08T14:43:06Z</time>
      </trkpt>
      <trkpt lat="59.230130152655" lon="17.883564591623">
        <ele>27.8</ele>
        <time>2020-06-08T14:43:07Z</time>
      </trkpt>
      <trkpt lat="59.230114981416" lon="17.883586719839">
        <ele>27.8</ele>
        <time>2020-06-08T14:43:08Z</time>
      </trkpt>
      <trkpt lat="59.230102157109" lon="17.883615469756">
        <ele>28</ele>
        <time>2020-06-08T14:43:09Z</time>
      </trkpt>
      <trkpt lat="59.230085225671" lon="17.88365788217">
        <ele>28.2</ele>
        <time>2020-06-08T14:43:10Z</time>
      </trkpt>
      <trkpt lat="59.230079023065" lon="17.883687889372">
        <ele>28.4</ele>
        <time>2020-06-08T14:43:11Z</time>
      </trkpt>
      <trkpt lat="59.230082459644" lon="17.883717309841">
        <ele>28.6</ele>
        <time>2020-06-08T14:43:12Z</time>
      </trkpt>
      <trkpt lat="59.230080364169" lon="17.883760895721">
        <ele>28.8</ele>
        <time>2020-06-08T14:43:13Z</time>
      </trkpt>
      <trkpt lat="59.230069132423" lon="17.883798614271">
        <ele>29</ele>
        <time>2020-06-08T14:43:14Z</time>
      </trkpt>
      <trkpt lat="59.230055218469" lon="17.88382719655">
        <ele>29</ele>
        <time>2020-06-08T14:43:15Z</time>
      </trkpt>
      <trkpt lat="59.230045160189" lon="17.883852761345">
        <ele>29.2</ele>
        <time>2020-06-08T14:43:16Z</time>
      </trkpt>
      <trkpt lat="59.230042058886" lon="17.883892240094">
        <ele>29.4</ele>
        <time>2020-06-08T14:43:17Z</time>
      </trkpt>
      <trkpt lat="59.230036862108" lon="17.883935490698">
        <ele>29.6</ele>
        <time>2020-06-08T14:43:18Z</time>
      </trkpt>
      <trkpt lat="59.230028983122" lon="17.883986117374">
        <ele>29.6</ele>
        <time>2020-06-08T14:43:19Z</time>
      </trkpt>
      <trkpt lat="59.230025630362" lon="17.884032804557">
        <ele>29.8</ele>
        <time>2020-06-08T14:43:20Z</time>
      </trkpt>
      <trkpt lat="59.230024037801" lon="17.884076893351">
        <ele>30</ele>
        <time>2020-06-08T14:43:21Z</time>
      </trkpt>
      <trkpt lat="59.230021858507" lon="17.884124586362">
        <ele>30.2</ele>
        <time>2020-06-08T14:43:22Z</time>
      </trkpt>
      <trkpt lat="59.230022612878" lon="17.884173620477">
        <ele>30.4</ele>
        <time>2020-06-08T14:43:23Z</time>
      </trkpt>
      <trkpt lat="59.230019846851" lon="17.884218212185">
        <ele>30.6</ele>
        <time>2020-06-08T14:43:24Z</time>
      </trkpt>
      <trkpt lat="59.230016997005" lon="17.884263222988">
        <ele>30.8</ele>
        <time>2020-06-08T14:43:25Z</time>
      </trkpt>
      <trkpt lat="59.230018170471" lon="17.88430831761">
        <ele>31</ele>
        <time>2020-06-08T14:43:26Z</time>
      </trkpt>
      <trkpt lat="59.230022612878" lon="17.884353831327">
        <ele>31.2</ele>
        <time>2020-06-08T14:43:27Z</time>
      </trkpt>
      <trkpt lat="59.230026803828" lon="17.884401943433">
        <ele>31.4</ele>
        <time>2020-06-08T14:43:28Z</time>
      </trkpt>
      <trkpt lat="59.23002915076" lon="17.884453743575">
        <ele>31.6</ele>
        <time>2020-06-08T14:43:29Z</time>
      </trkpt>
      <trkpt lat="59.230033174072" lon="17.884503532061">
        <ele>32</ele>
        <time>2020-06-08T14:43:30Z</time>
      </trkpt>
      <trkpt lat="59.230039041402" lon="17.884551811805">
        <ele>32.2</ele>
        <time>2020-06-08T14:43:31Z</time>
      </trkpt>
      <trkpt lat="59.230045244008" lon="17.884598750445">
        <ele>32.6</ele>
        <time>2020-06-08T14:43:32Z</time>
      </trkpt>
      <trkpt lat="59.230050273148" lon="17.884647197827">
        <ele>32.8</ele>
        <time>2020-06-08T14:43:33Z</time>
      </trkpt>
      <trkpt lat="59.230055721383" lon="17.88469388501">
        <ele>33</ele>
        <time>2020-06-08T14:43:34Z</time>
      </trkpt>
      <trkpt lat="59.230062762179" lon="17.884740236917">
        <ele>33</ele>
        <time>2020-06-08T14:43:35Z</time>
      </trkpt>
      <trkpt lat="59.230068964785" lon="17.884784996263">
        <ele>33.2</ele>
        <time>2020-06-08T14:43:36Z</time>
      </trkpt>
      <trkpt lat="59.23007525121" lon="17.884829168876">
        <ele>33.4</ele>
        <time>2020-06-08T14:43:37Z</time>
      </trkpt>
      <trkpt lat="59.230083297834" lon="17.884872251842">
        <ele>33.6</ele>
        <time>2020-06-08T14:43:38Z</time>
      </trkpt>
      <trkpt lat="59.23009201501" lon="17.884916508274">
        <ele>33.6</ele>
        <time>2020-06-08T14:43:39Z</time>
      </trkpt>
      <trkpt lat="59.23010039691" lon="17.884959255964">
        <ele>33.8</ele>
        <time>2020-06-08T14:43:40Z</time>
      </trkpt>
      <trkpt lat="59.230110790466" lon="17.885000578731">
        <ele>34</ele>
        <time>2020-06-08T14:43:41Z</time>
      </trkpt>
      <trkpt lat="59.230123279497" lon="17.885040225118">
        <ele>34.2</ele>
        <time>2020-06-08T14:43:42Z</time>
      </trkpt>
      <trkpt lat="59.230135936166" lon="17.885079200953">
        <ele>34.4</ele>
        <time>2020-06-08T14:43:43Z</time>
      </trkpt>
      <trkpt lat="59.230145826808" lon="17.885120104625">
        <ele>34.6</ele>
        <time>2020-06-08T14:43:44Z</time>
      </trkpt>
      <trkpt lat="59.230154460165" lon="17.885162684677">
        <ele>34.8</ele>
        <time>2020-06-08T14:43:45Z</time>
      </trkpt>
      <trkpt lat="59.230164518445" lon="17.88520266634">
        <ele>34.8</ele>
        <time>2020-06-08T14:43:46Z</time>
      </trkpt>
      <trkpt lat="59.230175498734" lon="17.88524206127">
        <ele>35</ele>
        <time>2020-06-08T14:43:47Z</time>
      </trkpt>
      <trkpt lat="59.230186059928" lon="17.885283551675">
        <ele>35.2</ele>
        <time>2020-06-08T14:43:48Z</time>
      </trkpt>
      <trkpt lat="59.230195196199" lon="17.885328478659">
        <ele>35.6</ele>
        <time>2020-06-08T14:43:49Z</time>
      </trkpt>
      <trkpt lat="59.230204416289" lon="17.885374327652">
        <ele>35.8</ele>
        <time>2020-06-08T14:43:50Z</time>
      </trkpt>
      <trkpt lat="59.230212043818" lon="17.885421936844">
        <ele>35.8</ele>
        <time>2020-06-08T14:43:51Z</time>
      </trkpt>
      <trkpt lat="59.230217994967" lon="17.885470719502">
        <ele>36</ele>
        <time>2020-06-08T14:43:52Z</time>
      </trkpt>
      <trkpt lat="59.230224616668" lon="17.885518999246">
        <ele>36</ele>
        <time>2020-06-08T14:43:53Z</time>
      </trkpt>
      <trkpt lat="59.23023283093" lon="17.885568033361">
        <ele>36.2</ele>
        <time>2020-06-08T14:43:54Z</time>
      </trkpt>
      <trkpt lat="59.23024121283" lon="17.885619162951">
        <ele>36.6</ele>
        <time>2020-06-08T14:43:55Z</time>
      </trkpt>
      <trkpt lat="59.230247750712" lon="17.885673226206">
        <ele>36.8</ele>
        <time>2020-06-08T14:43:56Z</time>
      </trkpt>
      <trkpt lat="59.230254120956" lon="17.885729552574">
        <ele>37</ele>
        <time>2020-06-08T14:43:57Z</time>
      </trkpt>
      <trkpt lat="59.230258479544" lon="17.885786633313">
        <ele>37.2</ele>
        <time>2020-06-08T14:43:58Z</time>
      </trkpt>
      <trkpt lat="59.230260658838" lon="17.885842289129">
        <ele>37.4</ele>
        <time>2020-06-08T14:43:59Z</time>
      </trkpt>
      <trkpt lat="59.230264011598" lon="17.885897358212">
        <ele>37.4</ele>
        <time>2020-06-08T14:44:00Z</time>
      </trkpt>
      <trkpt lat="59.2302688731" lon="17.885951840562">
        <ele>37.6</ele>
        <time>2020-06-08T14:44:01Z</time>
      </trkpt>
      <trkpt lat="59.230270884756" lon="17.886005736179">
        <ele>37.6</ele>
        <time>2020-06-08T14:44:02Z</time>
      </trkpt>
      <trkpt lat="59.230269292195" lon="17.886060302348">
        <ele>37.6</ele>
        <time>2020-06-08T14:44:03Z</time>
      </trkpt>
      <trkpt lat="59.230264849788" lon="17.886113443594">
        <ele>37.6</ele>
        <time>2020-06-08T14:44:04Z</time>
      </trkpt>
      <trkpt lat="59.230257389897" lon="17.886166836297">
        <ele>37.8</ele>
        <time>2020-06-08T14:44:05Z</time>
      </trkpt>
      <trkpt lat="59.230249343273" lon="17.886219558448">
        <ele>37.8</ele>
        <time>2020-06-08T14:44:06Z</time>
      </trkpt>
      <trkpt lat="59.230244230314" lon="17.886270771857">
        <ele>38</ele>
        <time>2020-06-08T14:44:07Z</time>
      </trkpt>
      <trkpt lat="59.230242386296" lon="17.886323996922">
        <ele>38</ele>
        <time>2020-06-08T14:44:08Z</time>
      </trkpt>
      <trkpt lat="59.230243895038" lon="17.886379652738">
        <ele>38</ele>
        <time>2020-06-08T14:44:09Z</time>
      </trkpt>
      <trkpt lat="59.23024708016" lon="17.886434721821">
        <ele>38.2</ele>
        <time>2020-06-08T14:44:10Z</time>
      </trkpt>
      <trkpt lat="59.230248588902" lon="17.886490796732">
        <ele>38.4</ele>
        <time>2020-06-08T14:44:11Z</time>
      </trkpt>
      <trkpt lat="59.230246493427" lon="17.886547290738">
        <ele>38.4</ele>
        <time>2020-06-08T14:44:12Z</time>
      </trkpt>
      <trkpt lat="59.230243392124" lon="17.886603784744">
        <ele>38.6</ele>
        <time>2020-06-08T14:44:13Z</time>
      </trkpt>
      <trkpt lat="59.230242302477" lon="17.886661284578">
        <ele>38.6</ele>
        <time>2020-06-08T14:44:14Z</time>
      </trkpt>
      <trkpt lat="59.230243475943" lon="17.886719538783">
        <ele>39</ele>
        <time>2020-06-08T14:44:15Z</time>
      </trkpt>
      <trkpt lat="59.230246409608" lon="17.88677762535">
        <ele>39.2</ele>
        <time>2020-06-08T14:44:16Z</time>
      </trkpt>
      <trkpt lat="59.23024791835" lon="17.886834873727">
        <ele>39.2</ele>
        <time>2020-06-08T14:44:17Z</time>
      </trkpt>
      <trkpt lat="59.230248169807" lon="17.886890613362">
        <ele>39.4</ele>
        <time>2020-06-08T14:44:18Z</time>
      </trkpt>
      <trkpt lat="59.230248924178" lon="17.886946185359">
        <ele>39.4</ele>
        <time>2020-06-08T14:44:19Z</time>
      </trkpt>
      <trkpt lat="59.230250768196" lon="17.887002344089">
        <ele>39.6</ele>
        <time>2020-06-08T14:44:20Z</time>
      </trkpt>
      <trkpt lat="59.23025462387" lon="17.887058335181">
        <ele>39.6</ele>
        <time>2020-06-08T14:44:21Z</time>
      </trkpt>
      <trkpt lat="59.230259736829" lon="17.887113320445">
        <ele>39.6</ele>
        <time>2020-06-08T14:44:22Z</time>
      </trkpt>
      <trkpt lat="59.230263508684" lon="17.887165958777">
        <ele>39.6</ele>
        <time>2020-06-08T14:44:23Z</time>
      </trkpt>
      <trkpt lat="59.230266861444" lon="17.887216417815">
        <ele>39.8</ele>
        <time>2020-06-08T14:44:24Z</time>
      </trkpt>
      <trkpt lat="59.230268370186" lon="17.88726629012">
        <ele>39.8</ele>
        <time>2020-06-08T14:44:25Z</time>
      </trkpt>
      <trkpt lat="59.230267029082" lon="17.887316749158">
        <ele>39.8</ele>
        <time>2020-06-08T14:44:26Z</time>
      </trkpt>
      <trkpt lat="59.230263927779" lon="17.887364190712">
        <ele>40</ele>
        <time>2020-06-08T14:44:27Z</time>
      </trkpt>
      <trkpt lat="59.230264263055" lon="17.887411380809">
        <ele>40.2</ele>
        <time>2020-06-08T14:44:28Z</time>
      </trkpt>
      <trkpt lat="59.230269292195" lon="17.887457565078">
        <ele>40.4</ele>
        <time>2020-06-08T14:44:29Z</time>
      </trkpt>
      <trkpt lat="59.230273315507" lon="17.887504252261">
        <ele>40.4</ele>
        <time>2020-06-08T14:44:30Z</time>
      </trkpt>
      <trkpt lat="59.230277841733" lon="17.887551777634">
        <ele>40.6</ele>
        <time>2020-06-08T14:44:31Z</time>
      </trkpt>
      <trkpt lat="59.230282619416" lon="17.887599386826">
        <ele>40.6</ele>
        <time>2020-06-08T14:44:32Z</time>
      </trkpt>
      <trkpt lat="59.230286391271" lon="17.887644900543">
        <ele>40.8</ele>
        <time>2020-06-08T14:44:33Z</time>
      </trkpt>
      <trkpt lat="59.230289073479" lon="17.887689492251">
        <ele>41</ele>
        <time>2020-06-08T14:44:34Z</time>
      </trkpt>
      <trkpt lat="59.230295527542" lon="17.887734419235">
        <ele>41.4</ele>
        <time>2020-06-08T14:44:35Z</time>
      </trkpt>
      <trkpt lat="59.230303657985" lon="17.887780016771">
        <ele>41.4</ele>
        <time>2020-06-08T14:44:36Z</time>
      </trkpt>
      <trkpt lat="59.230311536971" lon="17.887824273203">
        <ele>41.6</ele>
        <time>2020-06-08T14:44:37Z</time>
      </trkpt>
      <trkpt lat="59.230317823396" lon="17.887870373653">
        <ele>41.8</ele>
        <time>2020-06-08T14:44:38Z</time>
      </trkpt>
      <trkpt lat="59.230321427613" lon="17.887917144655">
        <ele>42</ele>
        <time>2020-06-08T14:44:39Z</time>
      </trkpt>
      <trkpt lat="59.230324528916" lon="17.887959808526">
        <ele>42</ele>
        <time>2020-06-08T14:44:40Z</time>
      </trkpt>
      <trkpt lat="59.230331234436" lon="17.887994761049">
        <ele>42.2</ele>
        <time>2020-06-08T14:44:41Z</time>
      </trkpt>
      <trkpt lat="59.230338945784" lon="17.88802736664">
        <ele>42.4</ele>
        <time>2020-06-08T14:44:42Z</time>
      </trkpt>
      <trkpt lat="59.230348082055" lon="17.888062402982">
        <ele>42.6</ele>
        <time>2020-06-08T14:44:43Z</time>
      </trkpt>
      <trkpt lat="59.230358978525" lon="17.888104144844">
        <ele>42.8</ele>
        <time>2020-06-08T14:44:44Z</time>
      </trkpt>
      <trkpt lat="59.230368450072" lon="17.888144377964">
        <ele>43</ele>
        <time>2020-06-08T14:44:45Z</time>
      </trkpt>
      <trkpt lat="59.230375909963" lon="17.888177989383">
        <ele>43.2</ele>
        <time>2020-06-08T14:44:46Z</time>
      </trkpt>
      <trkpt lat="59.230385130053" lon="17.888214366829">
        <ele>43.4</ele>
        <time>2020-06-08T14:44:47Z</time>
      </trkpt>
      <trkpt lat="59.230394433962" lon="17.888250744275">
        <ele>43.6</ele>
        <time>2020-06-08T14:44:48Z</time>
      </trkpt>
      <trkpt lat="59.230401390939" lon="17.8882821764">
        <ele>44</ele>
        <time>2020-06-08T14:44:49Z</time>
      </trkpt>
      <trkpt lat="59.230403570233" lon="17.888316290733">
        <ele>44.2</ele>
        <time>2020-06-08T14:44:50Z</time>
      </trkpt>
      <trkpt lat="59.230406084803" lon="17.88835006979">
        <ele>44.4</ele>
        <time>2020-06-08T14:44:51Z</time>
      </trkpt>
      <trkpt lat="59.230412538866" lon="17.888382591562">
        <ele>44.6</ele>
        <time>2020-06-08T14:44:52Z</time>
      </trkpt>
      <trkpt lat="59.230421591318" lon="17.88841544861">
        <ele>45</ele>
        <time>2020-06-08T14:44:53Z</time>
      </trkpt>
      <trkpt lat="59.23042393825" lon="17.888450820228">
        <ele>45.2</ele>
        <time>2020-06-08T14:44:54Z</time>
      </trkpt>
      <trkpt lat="59.23042477644" lon="17.888486946217">
        <ele>45.6</ele>
        <time>2020-06-08T14:44:55Z</time>
      </trkpt>
      <trkpt lat="59.230430811408" lon="17.888524580948">
        <ele>46</ele>
        <time>2020-06-08T14:44:56Z</time>
      </trkpt>
      <trkpt lat="59.230436259643" lon="17.888566741905">
        <ele>46.2</ele>
        <time>2020-06-08T14:44:57Z</time>
      </trkpt>
      <trkpt lat="59.230444138629" lon="17.888612339441">
        <ele>46.6</ele>
        <time>2020-06-08T14:44:58Z</time>
      </trkpt>
      <trkpt lat="59.230447575208" lon="17.888658356072">
        <ele>46.8</ele>
        <time>2020-06-08T14:44:59Z</time>
      </trkpt>
      <trkpt lat="59.230447994303" lon="17.888703953608">
        <ele>47</ele>
        <time>2020-06-08T14:45:00Z</time>
      </trkpt>
      <trkpt lat="59.230453945452" lon="17.888746366022">
        <ele>47.4</ele>
        <time>2020-06-08T14:45:01Z</time>
      </trkpt>
      <trkpt lat="59.230463668456" lon="17.888788275522">
        <ele>47.6</ele>
        <time>2020-06-08T14:45:02Z</time>
      </trkpt>
      <trkpt lat="59.230469871062" lon="17.888829430651">
        <ele>47.6</ele>
        <time>2020-06-08T14:45:03Z</time>
      </trkpt>
      <trkpt lat="59.230467691768" lon="17.888867819753">
        <ele>47.8</ele>
        <time>2020-06-08T14:45:04Z</time>
      </trkpt>
      <trkpt lat="59.23045998042" lon="17.88889740786">
        <ele>48</ele>
        <time>2020-06-08T14:45:05Z</time>
      </trkpt>
      <trkpt lat="59.23045159852" lon="17.888917608239">
        <ele>48.4</ele>
        <time>2020-06-08T14:45:06Z</time>
      </trkpt>
      <trkpt lat="59.230443048982" lon="17.888938227713">
        <ele>48.4</ele>
        <time>2020-06-08T14:45:07Z</time>
      </trkpt>
      <trkpt lat="59.230438103661" lon="17.888968821648">
        <ele>48.6</ele>
        <time>2020-06-08T14:45:08Z</time>
      </trkpt>
      <trkpt lat="59.230437852204" lon="17.889005450551">
        <ele>48.6</ele>
        <time>2020-06-08T14:45:09Z</time>
      </trkpt>
      <trkpt lat="59.230432152512" lon="17.889041995635">
        <ele>48.8</ele>
        <time>2020-06-08T14:45:10Z</time>
      </trkpt>
      <trkpt lat="59.230423519155" lon="17.889071499923">
        <ele>49</ele>
        <time>2020-06-08T14:45:11Z</time>
      </trkpt>
      <trkpt lat="59.230412790323" lon="17.889098992555">
        <ele>49</ele>
        <time>2020-06-08T14:45:12Z</time>
      </trkpt>
      <trkpt lat="59.23040214531" lon="17.889132603974">
        <ele>49.2</ele>
        <time>2020-06-08T14:45:13Z</time>
      </trkpt>
      <trkpt lat="59.230395691247" lon="17.889173256189">
        <ele>49.2</ele>
        <time>2020-06-08T14:45:14Z</time>
      </trkpt>
      <trkpt lat="59.230386806433" lon="17.889213154033">
        <ele>49.2</ele>
        <time>2020-06-08T14:45:15Z</time>
      </trkpt>
      <trkpt lat="59.230368533891" lon="17.889255147352">
        <ele>49.4</ele>
        <time>2020-06-08T14:45:16Z</time>
      </trkpt>
      <trkpt lat="59.230350261349" lon="17.889292530626">
        <ele>49.4</ele>
        <time>2020-06-08T14:45:17Z</time>
      </trkpt>
      <trkpt lat="59.230326959667" lon="17.889333601936">
        <ele>49.4</ele>
        <time>2020-06-08T14:45:18Z</time>
      </trkpt>
      <trkpt lat="59.23030659165" lon="17.889371320486">
        <ele>49.6</ele>
        <time>2020-06-08T14:45:19Z</time>
      </trkpt>
      <trkpt lat="59.230289492574" lon="17.889400489498">
        <ele>49.6</ele>
        <time>2020-06-08T14:45:20Z</time>
      </trkpt>
      <trkpt lat="59.23027306405" lon="17.889419013497">
        <ele>49.8</ele>
        <time>2020-06-08T14:45:21Z</time>
      </trkpt>
      <trkpt lat="59.230255881155" lon="17.889442734274">
        <ele>49.8</ele>
        <time>2020-06-08T14:45:22Z</time>
      </trkpt>
      <trkpt lat="59.230240961373" lon="17.88946318611">
        <ele>50</ele>
        <time>2020-06-08T14:45:23Z</time>
      </trkpt>
      <trkpt lat="59.23022277265" lon="17.889486571611">
        <ele>50.2</ele>
        <time>2020-06-08T14:45:24Z</time>
      </trkpt>
      <trkpt lat="59.230200057701" lon="17.889514483338">
        <ele>50.4</ele>
        <time>2020-06-08T14:45:25Z</time>
      </trkpt>
      <trkpt lat="59.230181868978" lon="17.889545580187">
        <ele>50.8</ele>
        <time>2020-06-08T14:45:26Z</time>
      </trkpt>
      <trkpt lat="59.230171391603" lon="17.88955957796">
        <ele>51</ele>
        <time>2020-06-08T14:45:27Z</time>
      </trkpt>
      <trkpt lat="59.230157896744" lon="17.889586148583">
        <ele>51.2</ele>
        <time>2020-06-08T14:45:28Z</time>
      </trkpt>
      <trkpt lat="59.230140127116" lon="17.88960903117">
        <ele>51.4</ele>
        <time>2020-06-08T14:45:29Z</time>
      </trkpt>
      <trkpt lat="59.230123111859" lon="17.889632835766">
        <ele>51.4</ele>
        <time>2020-06-08T14:45:30Z</time>
      </trkpt>
      <trkpt lat="59.230104084946" lon="17.889660496036">
        <ele>51.6</ele>
        <time>2020-06-08T14:45:31Z</time>
      </trkpt>
      <trkpt lat="59.230085728585" lon="17.889694358912">
        <ele>51.6</ele>
        <time>2020-06-08T14:45:32Z</time>
      </trkpt>
      <trkpt lat="59.23006686931" lon="17.889732328919">
        <ele>51.8</ele>
        <time>2020-06-08T14:45:33Z</time>
      </trkpt>
      <trkpt lat="59.230051278976" lon="17.889772813496">
        <ele>51.8</ele>
        <time>2020-06-08T14:45:34Z</time>
      </trkpt>
      <trkpt lat="59.230039879592" lon="17.889805586725">
        <ele>52</ele>
        <time>2020-06-08T14:45:35Z</time>
      </trkpt>
      <trkpt lat="59.230020601222" lon="17.889855542849">
        <ele>52</ele>
        <time>2020-06-08T14:45:36Z</time>
      </trkpt>
      <trkpt lat="59.230000568481" lon="17.889894267227">
        <ele>52</ele>
        <time>2020-06-08T14:45:37Z</time>
      </trkpt>
      <trkpt lat="59.229983553224" lon="17.889945815912">
        <ele>52.2</ele>
        <time>2020-06-08T14:45:38Z</time>
      </trkpt>
      <trkpt lat="59.229965615958" lon="17.889996107312">
        <ele>52.2</ele>
        <time>2020-06-08T14:45:39Z</time>
      </trkpt>
      <trkpt lat="59.229940889353" lon="17.890053690965">
        <ele>52.2</ele>
        <time>2020-06-08T14:45:40Z</time>
      </trkpt>
      <trkpt lat="59.229921694802" lon="17.89011194517">
        <ele>52.2</ele>
        <time>2020-06-08T14:45:41Z</time>
      </trkpt>
      <trkpt lat="59.229909624866" lon="17.890166762796">
        <ele>52.2</ele>
        <time>2020-06-08T14:45:42Z</time>
      </trkpt>
      <trkpt lat="59.229891939057" lon="17.890229459408">
        <ele>52.2</ele>
        <time>2020-06-08T14:45:43Z</time>
      </trkpt>
      <trkpt lat="59.229866458081" lon="17.890304309775">
        <ele>52.2</ele>
        <time>2020-06-08T14:45:44Z</time>
      </trkpt>
      <trkpt lat="59.22984391077" lon="17.890380836522">
        <ele>52.4</ele>
        <time>2020-06-08T14:45:45Z</time>
      </trkpt>
      <trkpt lat="59.229830583549" lon="17.890436995252">
        <ele>52.2</ele>
        <time>2020-06-08T14:45:46Z</time>
      </trkpt>
      <trkpt lat="59.229813819749" lon="17.890529950523">
        <ele>52.2</ele>
        <time>2020-06-08T14:45:47Z</time>
      </trkpt>
      <trkpt lat="59.229807533324" lon="17.890612176962">
        <ele>52.2</ele>
        <time>2020-06-08T14:45:48Z</time>
      </trkpt>
      <trkpt lat="59.229798061777" lon="17.89070119274">
        <ele>52.2</ele>
        <time>2020-06-08T14:45:49Z</time>
      </trkpt>
      <trkpt lat="59.229792110628" lon="17.890797165495">
        <ele>52.2</ele>
        <time>2020-06-08T14:45:50Z</time>
      </trkpt>
      <trkpt lat="59.229789344601" lon="17.890881571228">
        <ele>52.2</ele>
        <time>2020-06-08T14:45:51Z</time>
      </trkpt>
      <trkpt lat="59.229783728728" lon="17.890983914227">
        <ele>52.6</ele>
        <time>2020-06-08T14:45:52Z</time>
      </trkpt>
      <trkpt lat="59.229785740384" lon="17.891085586674">
        <ele>52.6</ele>
        <time>2020-06-08T14:45:53Z</time>
      </trkpt>
      <trkpt lat="59.229790601886" lon="17.891184409275">
        <ele>52.8</ele>
        <time>2020-06-08T14:45:54Z</time>
      </trkpt>
      <trkpt lat="59.229793535551" lon="17.891270491388">
        <ele>53</ele>
        <time>2020-06-08T14:45:55Z</time>
      </trkpt>
      <trkpt lat="59.229793200275" lon="17.891351209085">
        <ele>53.2</ele>
        <time>2020-06-08T14:45:56Z</time>
      </trkpt>
      <trkpt lat="59.229795966302" lon="17.891425556538">
        <ele>53.4</ele>
        <time>2020-06-08T14:45:57Z</time>
      </trkpt>
      <trkpt lat="59.229792362085" lon="17.891499736353">
        <ele>53.4</ele>
        <time>2020-06-08T14:45:58Z</time>
      </trkpt>
      <trkpt lat="59.229786746212" lon="17.891578945308">
        <ele>53.6</ele>
        <time>2020-06-08T14:45:59Z</time>
      </trkpt>
      <trkpt lat="59.229775765923" lon="17.891656477883">
        <ele>53.8</ele>
        <time>2020-06-08T14:46:00Z</time>
      </trkpt>
      <trkpt lat="59.22976763548" lon="17.891736441209">
        <ele>53.8</ele>
        <time>2020-06-08T14:46:01Z</time>
      </trkpt>
      <trkpt lat="59.229755565544" lon="17.891822523322">
        <ele>53.8</ele>
        <time>2020-06-08T14:46:02Z</time>
      </trkpt>
      <trkpt lat="59.22973746064" lon="17.891886812495">
        <ele>53.8</ele>
        <time>2020-06-08T14:46:03Z</time>
      </trkpt>
      <trkpt lat="59.22971399132" lon="17.891942384492">
        <ele>54</ele>
        <time>2020-06-08T14:46:04Z</time>
      </trkpt>
      <trkpt lat="59.229690857276" lon="17.891993430263">
        <ele>54</ele>
        <time>2020-06-08T14:46:05Z</time>
      </trkpt>
      <trkpt lat="59.22966956725" lon="17.892047577337">
        <ele>54</ele>
        <time>2020-06-08T14:46:06Z</time>
      </trkpt>
      <trkpt lat="59.229652300536" lon="17.892094013063">
        <ele>54.2</ele>
        <time>2020-06-08T14:46:07Z</time>
      </trkpt>
      <trkpt lat="59.229632100157" lon="17.892142460445">
        <ele>54.2</ele>
        <time>2020-06-08T14:46:08Z</time>
      </trkpt>
      <trkpt lat="59.229610474855" lon="17.892201385202">
        <ele>54.2</ele>
        <time>2020-06-08T14:46:09Z</time>
      </trkpt>
      <trkpt lat="59.229589184829" lon="17.892253855896">
        <ele>54.2</ele>
        <time>2020-06-08T14:46:10Z</time>
      </trkpt>
      <trkpt lat="59.229569655002" lon="17.892299788708">
        <ele>54.2</ele>
        <time>2020-06-08T14:46:11Z</time>
      </trkpt>
      <trkpt lat="59.229547610605" lon="17.892344967149">
        <ele>54.2</ele>
        <time>2020-06-08T14:46:12Z</time>
      </trkpt>
      <trkpt lat="59.22953210409" lon="17.892381260776">
        <ele>54.2</ele>
        <time>2020-06-08T14:46:13Z</time>
      </trkpt>
      <trkpt lat="59.229502348345" lon="17.892420152792">
        <ele>54.2</ele>
        <time>2020-06-08T14:46:14Z</time>
      </trkpt>
      <trkpt lat="59.229463037234" lon="17.892480837748">
        <ele>54.2</ele>
        <time>2020-06-08T14:46:15Z</time>
      </trkpt>
      <trkpt lat="59.229430012548" lon="17.892537834668">
        <ele>54.2</ele>
        <time>2020-06-08T14:46:16Z</time>
      </trkpt>
      <trkpt lat="59.229402687554" lon="17.892586114412">
        <ele>54.2</ele>
        <time>2020-06-08T14:46:17Z</time>
      </trkpt>
      <trkpt lat="59.229380894614" lon="17.89264411716">
        <ele>54.2</ele>
        <time>2020-06-08T14:46:18Z</time>
      </trkpt>
      <trkpt lat="59.229351138869" lon="17.892709579799">
        <ele>54.2</ele>
        <time>2020-06-08T14:46:19Z</time>
      </trkpt>
      <trkpt lat="59.229319539106" lon="17.892779820121">
        <ele>54.4</ele>
        <time>2020-06-08T14:46:20Z</time>
      </trkpt>
      <trkpt lat="59.229289531904" lon="17.892844612208">
        <ele>54.4</ele>
        <time>2020-06-08T14:46:21Z</time>
      </trkpt>
      <trkpt lat="59.229267068412" lon="17.892907895553">
        <ele>54.4</ele>
        <time>2020-06-08T14:46:22Z</time>
      </trkpt>
      <trkpt lat="59.229254327924" lon="17.892956342935">
        <ele>54.4</ele>
        <time>2020-06-08T14:46:23Z</time>
      </trkpt>
      <trkpt lat="59.229242677083" lon="17.893003197756">
        <ele>54.6</ele>
        <time>2020-06-08T14:46:24Z</time>
      </trkpt>
      <trkpt lat="59.229220884143" lon="17.893082993444">
        <ele>54.6</ele>
        <time>2020-06-08T14:46:25Z</time>
      </trkpt>
      <trkpt lat="59.229201773411" lon="17.893171841584">
        <ele>54.6</ele>
        <time>2020-06-08T14:46:26Z</time>
      </trkpt>
      <trkpt lat="59.22918593162" lon="17.893262869018">
        <ele>54.8</ele>
        <time>2020-06-08T14:46:27Z</time>
      </trkpt>
      <trkpt lat="59.229163635766" lon="17.893366804578">
        <ele>54.8</ele>
        <time>2020-06-08T14:46:28Z</time>
      </trkpt>
      <trkpt lat="59.229145027948" lon="17.893465375722">
        <ele>55</ele>
        <time>2020-06-08T14:46:29Z</time>
      </trkpt>
      <trkpt lat="59.229134466754" lon="17.893555900242">
        <ele>55</ele>
        <time>2020-06-08T14:46:30Z</time>
      </trkpt>
      <trkpt lat="59.229127761234" lon="17.893640473613">
        <ele>55</ele>
        <time>2020-06-08T14:46:31Z</time>
      </trkpt>
      <trkpt lat="59.229121558628" lon="17.893726723364">
        <ele>55</ele>
        <time>2020-06-08T14:46:32Z</time>
      </trkpt>
      <trkpt lat="59.229116864764" lon="17.893811464373">
        <ele>55.2</ele>
        <time>2020-06-08T14:46:33Z</time>
      </trkpt>
      <trkpt lat="59.229114517832" lon="17.893895115735">
        <ele>55.2</ele>
        <time>2020-06-08T14:46:34Z</time>
      </trkpt>
      <trkpt lat="59.229101442068" lon="17.893982119857">
        <ele>55.2</ele>
        <time>2020-06-08T14:46:35Z</time>
      </trkpt>
      <trkpt lat="59.229080822594" lon="17.894064681572">
        <ele>55.2</ele>
        <time>2020-06-08T14:46:36Z</time>
      </trkpt>
      <trkpt lat="59.229058442921" lon="17.894134335161">
        <ele>55.4</ele>
        <time>2020-06-08T14:46:37Z</time>
      </trkpt>
      <trkpt lat="59.229039164551" lon="17.894188398416">
        <ele>55.8</ele>
        <time>2020-06-08T14:46:38Z</time>
      </trkpt>
      <trkpt lat="59.229022149294" lon="17.894241958757">
        <ele>56</ele>
        <time>2020-06-08T14:46:39Z</time>
      </trkpt>
      <trkpt lat="59.229002535648" lon="17.894305158283">
        <ele>56.2</ele>
        <time>2020-06-08T14:46:40Z</time>
      </trkpt>
      <trkpt lat="59.228983173459" lon="17.894370872379">
        <ele>56.4</ele>
        <time>2020-06-08T14:46:41Z</time>
      </trkpt>
      <trkpt lat="59.228967583125" lon="17.894440190692">
        <ele>56.4</ele>
        <time>2020-06-08T14:46:42Z</time>
      </trkpt>
      <trkpt lat="59.228951992791" lon="17.894509006091">
        <ele>56.6</ele>
        <time>2020-06-08T14:46:43Z</time>
      </trkpt>
      <trkpt lat="59.228932882059" lon="17.894580084603">
        <ele>56.8</ele>
        <time>2020-06-08T14:46:44Z</time>
      </trkpt>
      <trkpt lat="59.228910334748" lon="17.894660634662">
        <ele>56.8</ele>
        <time>2020-06-08T14:46:45Z</time>
      </trkpt>
      <trkpt lat="59.228884350858" lon="17.894742442006">
        <ele>56.8</ele>
        <time>2020-06-08T14:46:46Z</time>
      </trkpt>
      <trkpt lat="59.228865407764" lon="17.894819304029">
        <ele>57</ele>
        <time>2020-06-08T14:46:47Z</time>
      </trkpt>
      <trkpt lat="59.22884478829" lon="17.894885101944">
        <ele>57</ele>
        <time>2020-06-08T14:46:48Z</time>
      </trkpt>
      <trkpt lat="59.228828695042" lon="17.894948804384">
        <ele>57</ele>
        <time>2020-06-08T14:46:49Z</time>
      </trkpt>
      <trkpt lat="59.228810506319" lon="17.895008734969">
        <ele>57</ele>
        <time>2020-06-08T14:46:50Z</time>
      </trkpt>
      <trkpt lat="59.228793323424" lon="17.89507067721">
        <ele>57</ele>
        <time>2020-06-08T14:46:51Z</time>
      </trkpt>
      <trkpt lat="59.228772620131" lon="17.895146449586">
        <ele>57</ele>
        <time>2020-06-08T14:46:52Z</time>
      </trkpt>
      <trkpt lat="59.228751833019" lon="17.895216354632">
        <ele>57.2</ele>
        <time>2020-06-08T14:46:53Z</time>
      </trkpt>
      <trkpt lat="59.228729369527" lon="17.895296317958">
        <ele>57</ele>
        <time>2020-06-08T14:46:54Z</time>
      </trkpt>
      <trkpt lat="59.228706570759" lon="17.895371503601">
        <ele>57</ele>
        <time>2020-06-08T14:46:55Z</time>
      </trkpt>
      <trkpt lat="59.228682514706" lon="17.895461609026">
        <ele>57</ele>
        <time>2020-06-08T14:46:56Z</time>
      </trkpt>
      <trkpt lat="59.228655022074" lon="17.895556575953">
        <ele>57</ele>
        <time>2020-06-08T14:46:57Z</time>
      </trkpt>
      <trkpt lat="59.22862937346" lon="17.895655985287">
        <ele>57</ele>
        <time>2020-06-08T14:46:58Z</time>
      </trkpt>
      <trkpt lat="59.228602383742" lon="17.895755813716">
        <ele>57</ele>
        <time>2020-06-08T14:46:59Z</time>
      </trkpt>
      <trkpt lat="59.228573885282" lon="17.895845583865">
        <ele>57</ele>
        <time>2020-06-08T14:47:00Z</time>
      </trkpt>
      <trkpt lat="59.228542453157" lon="17.895938455317">
        <ele>57</ele>
        <time>2020-06-08T14:47:01Z</time>
      </trkpt>
      <trkpt lat="59.228511607765" lon="17.896027806371">
        <ele>57</ele>
        <time>2020-06-08T14:47:02Z</time>
      </trkpt>
      <trkpt lat="59.228483109305" lon="17.896109110801">
        <ele>57</ele>
        <time>2020-06-08T14:47:03Z</time>
      </trkpt>
      <trkpt lat="59.228449330248" lon="17.896187816842">
        <ele>56.8</ele>
        <time>2020-06-08T14:47:04Z</time>
      </trkpt>
      <trkpt lat="59.228412114612" lon="17.896269791824">
        <ele>56.6</ele>
        <time>2020-06-08T14:47:05Z</time>
      </trkpt>
      <trkpt lat="59.228378084098" lon="17.896338607223">
        <ele>56.4</ele>
        <time>2020-06-08T14:47:06Z</time>
      </trkpt>
      <trkpt lat="59.228349250362" lon="17.896393005754">
        <ele>56.4</ele>
        <time>2020-06-08T14:47:07Z</time>
      </trkpt>
      <trkpt lat="59.228318153513" lon="17.896456372918">
        <ele>56.2</ele>
        <time>2020-06-08T14:47:08Z</time>
      </trkpt>
      <trkpt lat="59.228293929822" lon="17.896576485545">
        <ele>56.2</ele>
        <time>2020-06-08T14:47:09Z</time>
      </trkpt>
      <trkpt lat="59.228263252068" lon="17.896673715585">
        <ele>56.2</ele>
        <time>2020-06-08T14:47:10Z</time>
      </trkpt>
      <trkpt lat="59.228238106368" lon="17.896754265644">
        <ele>56.2</ele>
        <time>2020-06-08T14:47:11Z</time>
      </trkpt>
      <trkpt lat="59.228210781374" lon="17.896803299759">
        <ele>56.2</ele>
        <time>2020-06-08T14:47:12Z</time>
      </trkpt>
      <trkpt lat="59.228175325937" lon="17.896857782109">
        <ele>56.2</ele>
        <time>2020-06-08T14:47:13Z</time>
      </trkpt>
      <trkpt lat="59.228153365359" lon="17.896914276115">
        <ele>56.2</ele>
        <time>2020-06-08T14:47:14Z</time>
      </trkpt>
      <trkpt lat="59.228119334845" lon="17.896974625795">
        <ele>56.2</ele>
        <time>2020-06-08T14:47:15Z</time>
      </trkpt>
      <trkpt lat="59.228090752566" lon="17.897039334063">
        <ele>56.2</ele>
        <time>2020-06-08T14:47:16Z</time>
      </trkpt>
      <trkpt lat="59.228063846667" lon="17.897097001535">
        <ele>56.2</ele>
        <time>2020-06-08T14:47:17Z</time>
      </trkpt>
      <trkpt lat="59.228030319067" lon="17.897153663179">
        <ele>56.2</ele>
        <time>2020-06-08T14:47:18Z</time>
      </trkpt>
      <trkpt lat="59.228005676281" lon="17.897196075593">
        <ele>56.8</ele>
        <time>2020-06-08T14:47:19Z</time>
      </trkpt>
      <trkpt lat="59.227971226672" lon="17.897251396133">
        <ele>57</ele>
        <time>2020-06-08T14:47:20Z</time>
      </trkpt>
      <trkpt lat="59.227943985497" lon="17.89731870279">
        <ele>57</ele>
        <time>2020-06-08T14:47:21Z</time>
      </trkpt>
      <trkpt lat="59.227904003834" lon="17.89738324342">
        <ele>57.2</ele>
        <time>2020-06-08T14:47:22Z</time>
      </trkpt>
      <trkpt lat="59.227864273628" lon="17.89746119509">
        <ele>57.2</ele>
        <time>2020-06-08T14:47:23Z</time>
      </trkpt>
      <trkpt lat="59.227824543422" lon="17.897529172299">
        <ele>57.2</ele>
        <time>2020-06-08T14:47:24Z</time>
      </trkpt>
      <trkpt lat="59.227788501252" lon="17.897592036549">
        <ele>57.2</ele>
        <time>2020-06-08T14:47:25Z</time>
      </trkpt>
      <trkpt lat="59.227753632548" lon="17.897669736762">
        <ele>57.4</ele>
        <time>2020-06-08T14:47:26Z</time>
      </trkpt>
      <trkpt lat="59.227722032785" lon="17.897744670948">
        <ele>57.4</ele>
        <time>2020-06-08T14:47:27Z</time>
      </trkpt>
      <trkpt lat="59.227692612316" lon="17.897824718093">
        <ele>57.2</ele>
        <time>2020-06-08T14:47:28Z</time>
      </trkpt>
      <trkpt lat="59.227667382797" lon="17.897904094686">
        <ele>57.2</ele>
        <time>2020-06-08T14:47:29Z</time>
      </trkpt>
      <trkpt lat="59.227649696988" lon="17.897984644745">
        <ele>57</ele>
        <time>2020-06-08T14:47:30Z</time>
      </trkpt>
      <trkpt lat="59.227634609568" lon="17.898087825934">
        <ele>56.8</ele>
        <time>2020-06-08T14:47:31Z</time>
      </trkpt>
      <trkpt lat="59.227597896846" lon="17.898249009871">
        <ele>56.6</ele>
        <time>2020-06-08T14:47:32Z</time>
      </trkpt>
      <trkpt lat="59.227570404214" lon="17.898365434462">
        <ele>56.4</ele>
        <time>2020-06-08T14:47:33Z</time>
      </trkpt>
      <trkpt lat="59.227538469175" lon="17.898467693642">
        <ele>56.4</ele>
        <time>2020-06-08T14:47:34Z</time>
      </trkpt>
      <trkpt lat="59.227504606299" lon="17.898579508188">
        <ele>56</ele>
        <time>2020-06-08T14:47:35Z</time>
      </trkpt>
      <trkpt lat="59.227467977396" lon="17.898700291367">
        <ele>56</ele>
        <time>2020-06-08T14:47:36Z</time>
      </trkpt>
      <trkpt lat="59.227423720964" lon="17.898823170021">
        <ele>55.6</ele>
        <time>2020-06-08T14:47:37Z</time>
      </trkpt>
      <trkpt lat="59.227381560007" lon="17.898937163861">
        <ele>55.4</ele>
        <time>2020-06-08T14:47:38Z</time>
      </trkpt>
      <trkpt lat="59.227341745982" lon="17.899052163529">
        <ele>55.2</ele>
        <time>2020-06-08T14:47:39Z</time>
      </trkpt>
      <trkpt lat="59.227303189242" lon="17.89916020622">
        <ele>55</ele>
        <time>2020-06-08T14:47:40Z</time>
      </trkpt>
      <trkpt lat="59.227267230891" lon="17.899254754052">
        <ele>54.6</ele>
        <time>2020-06-08T14:47:41Z</time>
      </trkpt>
      <trkpt lat="59.227231021083" lon="17.899349804798">
        <ele>54.6</ele>
        <time>2020-06-08T14:47:42Z</time>
      </trkpt>
      <trkpt lat="59.227195565646" lon="17.899446699562">
        <ele>54.6</ele>
        <time>2020-06-08T14:47:43Z</time>
      </trkpt>
      <trkpt lat="59.227162205684" lon="17.899529764191">
        <ele>54.4</ele>
        <time>2020-06-08T14:47:44Z</time>
      </trkpt>
      <trkpt lat="59.227127001704" lon="17.899616349218">
        <ele>54.2</ele>
        <time>2020-06-08T14:47:45Z</time>
      </trkpt>
      <trkpt lat="59.227091546267" lon="17.899708633937">
        <ele>54</ele>
        <time>2020-06-08T14:47:46Z</time>
      </trkpt>
      <trkpt lat="59.227059527409" lon="17.899796727706">
        <ele>53.8</ele>
        <time>2020-06-08T14:47:47Z</time>
      </trkpt>
      <trkpt lat="59.227031196587" lon="17.899871326616">
        <ele>53.8</ele>
        <time>2020-06-08T14:47:48Z</time>
      </trkpt>
      <trkpt lat="59.227001357023" lon="17.899942824223">
        <ele>53.6</ele>
        <time>2020-06-08T14:47:49Z</time>
      </trkpt>
      <trkpt lat="59.226969673441" lon="17.900014657106">
        <ele>53.6</ele>
        <time>2020-06-08T14:47:50Z</time>
      </trkpt>
      <trkpt lat="59.22693790604" lon="17.900099230477">
        <ele>53.2</ele>
        <time>2020-06-08T14:47:51Z</time>
      </trkpt>
      <trkpt lat="59.226907563562" lon="17.900166201858">
        <ele>53.2</ele>
        <time>2020-06-08T14:47:52Z</time>
      </trkpt>
      <trkpt lat="59.22687504179" lon="17.900219762199">
        <ele>53.2</ele>
        <time>2020-06-08T14:47:53Z</time>
      </trkpt>
      <trkpt lat="59.22684570514" lon="17.900273993092">
        <ele>53</ele>
        <time>2020-06-08T14:47:54Z</time>
      </trkpt>
      <trkpt lat="59.226816619947" lon="17.900339623369">
        <ele>53</ele>
        <time>2020-06-08T14:47:55Z</time>
      </trkpt>
      <trkpt lat="59.2267820027" lon="17.900411037157">
        <ele>52.8</ele>
        <time>2020-06-08T14:47:56Z</time>
      </trkpt>
      <trkpt lat="59.226755264439" lon="17.900474823416">
        <ele>52.8</ele>
        <time>2020-06-08T14:47:57Z</time>
      </trkpt>
      <trkpt lat="59.226725508694" lon="17.90053399963">
        <ele>52.8</ele>
        <time>2020-06-08T14:47:58Z</time>
      </trkpt>
      <trkpt lat="59.226697932243" lon="17.900604491409">
        <ele>52.8</ele>
        <time>2020-06-08T14:47:59Z</time>
      </trkpt>
      <trkpt lat="59.22667052343" lon="17.90067816831">
        <ele>52.6</ele>
        <time>2020-06-08T14:48:00Z</time>
      </trkpt>
      <trkpt lat="59.226646132101" lon="17.900755617066">
        <ele>52.6</ele>
        <time>2020-06-08T14:48:01Z</time>
      </trkpt>
      <trkpt lat="59.226619812935" lon="17.900824767741">
        <ele>52.8</ele>
        <time>2020-06-08T14:48:02Z</time>
      </trkpt>
      <trkpt lat="59.226593493769" lon="17.900900121022">
        <ele>52.8</ele>
        <time>2020-06-08T14:48:03Z</time>
      </trkpt>
      <trkpt lat="59.22656491149" lon="17.900973797923">
        <ele>52.8</ele>
        <time>2020-06-08T14:48:04Z</time>
      </trkpt>
      <trkpt lat="59.226536915944" lon="17.901042613322">
        <ele>52.8</ele>
        <time>2020-06-08T14:48:05Z</time>
      </trkpt>
      <trkpt lat="59.226509255674" lon="17.90111570349">
        <ele>52.8</ele>
        <time>2020-06-08T14:48:06Z</time>
      </trkpt>
      <trkpt lat="59.226480338119" lon="17.90118611145">
        <ele>52.8</ele>
        <time>2020-06-08T14:48:07Z</time>
      </trkpt>
      <trkpt lat="59.226455611514" lon="17.90125316665">
        <ele>53</ele>
        <time>2020-06-08T14:48:08Z</time>
      </trkpt>
      <trkpt lat="59.226428957072" lon="17.90131770728">
        <ele>53</ele>
        <time>2020-06-08T14:48:09Z</time>
      </trkpt>
      <trkpt lat="59.22639894987" lon="17.901392054733">
        <ele>53</ele>
        <time>2020-06-08T14:48:10Z</time>
      </trkpt>
      <trkpt lat="59.226372211609" lon="17.901459109933">
        <ele>53</ele>
        <time>2020-06-08T14:48:11Z</time>
      </trkpt>
      <trkpt lat="59.226340025113" lon="17.901518286147">
        <ele>53.4</ele>
        <time>2020-06-08T14:48:12Z</time>
      </trkpt>
      <trkpt lat="59.226302474201" lon="17.901561201475">
        <ele>53.4</ele>
        <time>2020-06-08T14:48:13Z</time>
      </trkpt>
      <trkpt lat="59.226266264393" lon="17.901615600006">
        <ele>53.4</ele>
        <time>2020-06-08T14:48:14Z</time>
      </trkpt>
      <trkpt lat="59.226237682114" lon="17.901634878376">
        <ele>53.6</ele>
        <time>2020-06-08T14:48:15Z</time>
      </trkpt>
      <trkpt lat="59.226205579437" lon="17.901647870321">
        <ele>53.6</ele>
        <time>2020-06-08T14:48:16Z</time>
      </trkpt>
      <trkpt lat="59.226170207819" lon="17.901650217253">
        <ele>53.6</ele>
        <time>2020-06-08T14:48:17Z</time>
      </trkpt>
      <trkpt lat="59.226128801233" lon="17.901665891406">
        <ele>53.6</ele>
        <time>2020-06-08T14:48:18Z</time>
      </trkpt>
      <trkpt lat="59.22609217233" lon="17.901667064872">
        <ele>53.8</ele>
        <time>2020-06-08T14:48:19Z</time>
      </trkpt>
      <trkpt lat="59.226058477092" lon="17.901657509506">
        <ele>54</ele>
        <time>2020-06-08T14:48:20Z</time>
      </trkpt>
      <trkpt lat="59.226024614216" lon="17.90165549785">
        <ele>54</ele>
        <time>2020-06-08T14:48:21Z</time>
      </trkpt>
      <trkpt lat="59.225990248426" lon="17.901652564185">
        <ele>54.2</ele>
        <time>2020-06-08T14:48:22Z</time>
      </trkpt>
      <trkpt lat="59.225954373894" lon="17.901652815642">
        <ele>54.2</ele>
        <time>2020-06-08T14:48:23Z</time>
      </trkpt>
      <trkpt lat="59.225924366692" lon="17.901670166175">
        <ele>54.4</ele>
        <time>2020-06-08T14:48:24Z</time>
      </trkpt>
      <trkpt lat="59.225887318694" lon="17.901701263024">
        <ele>54.4</ele>
        <time>2020-06-08T14:48:25Z</time>
      </trkpt>
      <trkpt lat="59.225848678135" lon="17.901724397068">
        <ele>54.4</ele>
        <time>2020-06-08T14:48:26Z</time>
      </trkpt>
      <trkpt lat="59.225810791947" lon="17.901738227203">
        <ele>54.4</ele>
        <time>2020-06-08T14:48:27Z</time>
      </trkpt>
      <trkpt lat="59.225771229379" lon="17.90175021332">
        <ele>54.6</ele>
        <time>2020-06-08T14:48:28Z</time>
      </trkpt>
      <trkpt lat="59.22573175063" lon="17.901768318224">
        <ele>54.6</ele>
        <time>2020-06-08T14:48:29Z</time>
      </trkpt>
      <trkpt lat="59.225683554705" lon="17.901796816684">
        <ele>54.6</ele>
        <time>2020-06-08T14:48:30Z</time>
      </trkpt>
      <trkpt lat="59.225635694056" lon="17.901820202185">
        <ele>54.6</ele>
        <time>2020-06-08T14:48:31Z</time>
      </trkpt>
      <trkpt lat="59.225579702964" lon="17.901848533007">
        <ele>54.6</ele>
        <time>2020-06-08T14:48:32Z</time>
      </trkpt>
      <trkpt lat="59.225519604741" lon="17.901861944047">
        <ele>54.6</ele>
        <time>2020-06-08T14:48:33Z</time>
      </trkpt>
      <trkpt lat="59.22547526449" lon="17.90185498707">
        <ele>54.6</ele>
        <time>2020-06-08T14:48:34Z</time>
      </trkpt>
      <trkpt lat="59.225429750773" lon="17.901847359541">
        <ele>54.6</ele>
        <time>2020-06-08T14:48:35Z</time>
      </trkpt>
      <trkpt lat="59.225374597871" lon="17.901839815831">
        <ele>54.6</ele>
        <time>2020-06-08T14:48:36Z</time>
      </trkpt>
      <trkpt lat="59.225324725566" lon="17.901814921588">
        <ele>54.8</ele>
        <time>2020-06-08T14:48:37Z</time>
      </trkpt>
      <trkpt lat="59.225269656483" lon="17.901791368449">
        <ele>54.8</ele>
        <time>2020-06-08T14:48:38Z</time>
      </trkpt>
      <trkpt lat="59.225222214929" lon="17.901756248288">
        <ele>54.8</ele>
        <time>2020-06-08T14:48:39Z</time>
      </trkpt>
      <trkpt lat="59.225176785031" lon="17.901731102588">
        <ele>54.8</ele>
        <time>2020-06-08T14:48:40Z</time>
      </trkpt>
      <trkpt lat="59.225129762572" lon="17.901700676291">
        <ele>55</ele>
        <time>2020-06-08T14:48:41Z</time>
      </trkpt>
      <trkpt lat="59.225083578303" lon="17.901672345469">
        <ele>55.2</ele>
        <time>2020-06-08T14:48:42Z</time>
      </trkpt>
      <trkpt lat="59.225032448713" lon="17.901639069326">
        <ele>55.4</ele>
        <time>2020-06-08T14:48:43Z</time>
      </trkpt>
      <trkpt lat="59.224979978019" lon="17.90160688283">
        <ele>55.6</ele>
        <time>2020-06-08T14:48:44Z</time>
      </trkpt>
      <trkpt lat="59.224930273352" lon="17.901571511212">
        <ele>55.6</ele>
        <time>2020-06-08T14:48:45Z</time>
      </trkpt>
      <trkpt lat="59.224872689699" lon="17.901537480698">
        <ele>55.6</ele>
        <time>2020-06-08T14:48:46Z</time>
      </trkpt>
      <trkpt lat="59.224822649756" lon="17.901495571198">
        <ele>55.6</ele>
        <time>2020-06-08T14:48:47Z</time>
      </trkpt>
      <trkpt lat="59.224772525994" lon="17.901454583707">
        <ele>55.6</ele>
        <time>2020-06-08T14:48:48Z</time>
      </trkpt>
      <trkpt lat="59.224721480223" lon="17.901413344759">
        <ele>55.6</ele>
        <time>2020-06-08T14:48:49Z</time>
      </trkpt>
      <trkpt lat="59.224671188823" lon="17.901371686716">
        <ele>55.6</ele>
        <time>2020-06-08T14:48:50Z</time>
      </trkpt>
      <trkpt lat="59.224624082545" lon="17.901328268474">
        <ele>55.6</ele>
        <time>2020-06-08T14:48:51Z</time>
      </trkpt>
      <trkpt lat="59.224580245208" lon="17.901283090033">
        <ele>55.6</ele>
        <time>2020-06-08T14:48:52Z</time>
      </trkpt>
      <trkpt lat="59.224533893301" lon="17.901243611284">
        <ele>55.4</ele>
        <time>2020-06-08T14:48:53Z</time>
      </trkpt>
      <trkpt lat="59.224488128127" lon="17.901200779775">
        <ele>55.4</ele>
        <time>2020-06-08T14:48:54Z</time>
      </trkpt>
      <trkpt lat="59.224446218627" lon="17.901162809768">
        <ele>55.2</ele>
        <time>2020-06-08T14:48:55Z</time>
      </trkpt>
      <trkpt lat="59.224407661887" lon="17.901125091218">
        <ele>55.2</ele>
        <time>2020-06-08T14:48:56Z</time>
      </trkpt>
      <trkpt lat="59.224364243645" lon="17.901083097899">
        <ele>55.2</ele>
        <time>2020-06-08T14:48:57Z</time>
      </trkpt>
      <trkpt lat="59.224319819575" lon="17.901039763476">
        <ele>55.2</ele>
        <time>2020-06-08T14:48:58Z</time>
      </trkpt>
      <trkpt lat="59.224277407161" lon="17.900997015786">
        <ele>55.2</ele>
        <time>2020-06-08T14:48:59Z</time>
      </trkpt>
      <trkpt lat="59.224233402186" lon="17.900957034123">
        <ele>55</ele>
        <time>2020-06-08T14:49:00Z</time>
      </trkpt>
      <trkpt lat="59.224183110786" lon="17.900917303917">
        <ele>55</ele>
        <time>2020-06-08T14:49:01Z</time>
      </trkpt>
      <trkpt lat="59.224128125522" lon="17.900873634218">
        <ele>55</ele>
        <time>2020-06-08T14:49:02Z</time>
      </trkpt>
      <trkpt lat="59.224073559353" lon="17.900834574564">
        <ele>54.8</ele>
        <time>2020-06-08T14:49:03Z</time>
      </trkpt>
      <trkpt lat="59.22401932846" lon="17.900798448575">
        <ele>54.8</ele>
        <time>2020-06-08T14:49:04Z</time>
      </trkpt>
      <trkpt lat="59.223969372336" lon="17.900754862695">
        <ele>55</ele>
        <time>2020-06-08T14:49:05Z</time>
      </trkpt>
      <trkpt lat="59.223913297425" lon="17.900706499132">
        <ele>55</ele>
        <time>2020-06-08T14:49:06Z</time>
      </trkpt>
      <trkpt lat="59.223854624125" lon="17.900678587405">
        <ele>54.8</ele>
        <time>2020-06-08T14:49:07Z</time>
      </trkpt>
      <trkpt lat="59.223799471223" lon="17.900687136943">
        <ele>54.8</ele>
        <time>2020-06-08T14:49:08Z</time>
      </trkpt>
      <trkpt lat="59.22374943128" lon="17.900720999819">
        <ele>54.8</ele>
        <time>2020-06-08T14:49:09Z</time>
      </trkpt>
      <trkpt lat="59.223704923391" lon="17.900770704486">
        <ele>54.6</ele>
        <time>2020-06-08T14:49:10Z</time>
      </trkpt>
      <trkpt lat="59.223667791574" lon="17.900833065822">
        <ele>54.6</ele>
        <time>2020-06-08T14:49:11Z</time>
      </trkpt>
      <trkpt lat="59.223639712209" lon="17.90089358314">
        <ele>54.6</ele>
        <time>2020-06-08T14:49:12Z</time>
      </trkpt>
      <trkpt lat="59.22361699726" lon="17.900961811806">
        <ele>54.2</ele>
        <time>2020-06-08T14:49:13Z</time>
      </trkpt>
      <trkpt lat="59.223598305623" lon="17.901033728508">
        <ele>54.2</ele>
        <time>2020-06-08T14:49:14Z</time>
      </trkpt>
      <trkpt lat="59.22358095509" lon="17.901106734857">
        <ele>54</ele>
        <time>2020-06-08T14:49:15Z</time>
      </trkpt>
      <trkpt lat="59.223568298421" lon="17.901180998491">
        <ele>54</ele>
        <time>2020-06-08T14:49:16Z</time>
      </trkpt>
      <trkpt lat="59.223554216829" lon="17.901260207446">
        <ele>54</ele>
        <time>2020-06-08T14:49:17Z</time>
      </trkpt>
      <trkpt lat="59.223540135237" lon="17.901338913487">
        <ele>54</ele>
        <time>2020-06-08T14:49:18Z</time>
      </trkpt>
      <trkpt lat="59.223522952342" lon="17.901416110786">
        <ele>54</ele>
        <time>2020-06-08T14:49:19Z</time>
      </trkpt>
      <trkpt lat="59.223506020904" lon="17.901489452411">
        <ele>54</ele>
        <time>2020-06-08T14:49:20Z</time>
      </trkpt>
      <trkpt lat="59.223488418914" lon="17.901572265583">
        <ele>54</ele>
        <time>2020-06-08T14:49:21Z</time>
      </trkpt>
      <trkpt lat="59.223472996218" lon="17.901649043787">
        <ele>54</ele>
        <time>2020-06-08T14:49:22Z</time>
      </trkpt>
      <trkpt lat="59.223453801667" lon="17.901727414552">
        <ele>54</ele>
        <time>2020-06-08T14:49:23Z</time>
      </trkpt>
      <trkpt lat="59.22343511003" lon="17.901805785317">
        <ele>54.2</ele>
        <time>2020-06-08T14:49:24Z</time>
      </trkpt>
      <trkpt lat="59.223417675678" lon="17.90188432372">
        <ele>54.4</ele>
        <time>2020-06-08T14:49:25Z</time>
      </trkpt>
      <trkpt lat="59.223400995697" lon="17.901960934286">
        <ele>54.6</ele>
        <time>2020-06-08T14:49:26Z</time>
      </trkpt>
      <trkpt lat="59.223384231897" lon="17.90203771249">
        <ele>54.8</ele>
        <time>2020-06-08T14:49:27Z</time>
      </trkpt>
      <trkpt lat="59.223366043174" lon="17.90211398778">
        <ele>54.8</ele>
        <time>2020-06-08T14:49:28Z</time>
      </trkpt>
      <trkpt lat="59.223344334053" lon="17.90218439574">
        <ele>55</ele>
        <time>2020-06-08T14:49:29Z</time>
      </trkpt>
      <trkpt lat="59.223325893873" lon="17.902255977166">
        <ele>55</ele>
        <time>2020-06-08T14:49:30Z</time>
      </trkpt>
      <trkpt lat="59.2233118961" lon="17.90233107899">
        <ele>55.2</ele>
        <time>2020-06-08T14:49:31Z</time>
      </trkpt>
      <trkpt lat="59.223300245259" lon="17.90240735428">
        <ele>55.2</ele>
        <time>2020-06-08T14:49:32Z</time>
      </trkpt>
      <trkpt lat="59.223289767884" lon="17.902483713389">
        <ele>55.2</ele>
        <time>2020-06-08T14:49:33Z</time>
      </trkpt>
      <trkpt lat="59.223276105387" lon="17.902559485765">
        <ele>55.4</ele>
        <time>2020-06-08T14:49:34Z</time>
      </trkpt>
      <trkpt lat="59.22325909013" lon="17.902636766883">
        <ele>55.4</ele>
        <time>2020-06-08T14:49:35Z</time>
      </trkpt>
      <trkpt lat="59.223238554475" lon="17.902717903675">
        <ele>55.6</ele>
        <time>2020-06-08T14:49:36Z</time>
      </trkpt>
      <trkpt lat="59.223221287761" lon="17.902798034639">
        <ele>55.6</ele>
        <time>2020-06-08T14:49:37Z</time>
      </trkpt>
      <trkpt lat="59.223204523961" lon="17.902881350725">
        <ele>55.8</ele>
        <time>2020-06-08T14:49:38Z</time>
      </trkpt>
      <trkpt lat="59.223189185084" lon="17.902966762286">
        <ele>55.8</ele>
        <time>2020-06-08T14:49:39Z</time>
      </trkpt>
      <trkpt lat="59.223173510931" lon="17.90305276058">
        <ele>56</ele>
        <time>2020-06-08T14:49:40Z</time>
      </trkpt>
      <trkpt lat="59.223153981104" lon="17.903134316467">
        <ele>56</ele>
        <time>2020-06-08T14:49:41Z</time>
      </trkpt>
      <trkpt lat="59.223135289467" lon="17.903211681404">
        <ele>56.2</ele>
        <time>2020-06-08T14:49:42Z</time>
      </trkpt>
      <trkpt lat="59.223122381341" lon="17.903287118504">
        <ele>56.4</ele>
        <time>2020-06-08T14:49:43Z</time>
      </trkpt>
      <trkpt lat="59.22310821593" lon="17.903359789577">
        <ele>56.6</ele>
        <time>2020-06-08T14:49:44Z</time>
      </trkpt>
      <trkpt lat="59.223090949216" lon="17.903431119546">
        <ele>56.6</ele>
        <time>2020-06-08T14:49:45Z</time>
      </trkpt>
      <trkpt lat="59.223077035262" lon="17.903504880266">
        <ele>56.6</ele>
        <time>2020-06-08T14:49:46Z</time>
      </trkpt>
      <trkpt lat="59.223066222611" lon="17.903580568823">
        <ele>56.6</ele>
        <time>2020-06-08T14:49:47Z</time>
      </trkpt>
      <trkpt lat="59.223055829055" lon="17.903654581">
        <ele>56.8</ele>
        <time>2020-06-08T14:49:48Z</time>
      </trkpt>
      <trkpt lat="59.223043256205" lon="17.903727419711">
        <ele>56.8</ele>
        <time>2020-06-08T14:49:49Z</time>
      </trkpt>
      <trkpt lat="59.223028839337" lon="17.903797324757">
        <ele>56.8</ele>
        <time>2020-06-08T14:49:50Z</time>
      </trkpt>
      <trkpt lat="59.223014506288" lon="17.90386580488">
        <ele>56.8</ele>
        <time>2020-06-08T14:49:51Z</time>
      </trkpt>
      <trkpt lat="59.222999837963" lon="17.903934201184">
        <ele>57</ele>
        <time>2020-06-08T14:49:52Z</time>
      </trkpt>
      <trkpt lat="59.222985504914" lon="17.904000418194">
        <ele>57.2</ele>
        <time>2020-06-08T14:49:53Z</time>
      </trkpt>
      <trkpt lat="59.22296907639" lon="17.904065797014">
        <ele>57.2</ele>
        <time>2020-06-08T14:49:54Z</time>
      </trkpt>
      <trkpt lat="59.222954910979" lon="17.904130170006">
        <ele>57.4</ele>
        <time>2020-06-08T14:49:55Z</time>
      </trkpt>
      <trkpt lat="59.222942505767" lon="17.904194123903">
        <ele>57.4</ele>
        <time>2020-06-08T14:49:56Z</time>
      </trkpt>
      <trkpt lat="59.222930938745" lon="17.904252378108">
        <ele>57.4</ele>
        <time>2020-06-08T14:49:57Z</time>
      </trkpt>
      <trkpt lat="59.222923059759" lon="17.904308285381">
        <ele>57.6</ele>
        <time>2020-06-08T14:49:58Z</time>
      </trkpt>
      <trkpt lat="59.222913923488" lon="17.90436117517">
        <ele>57.8</ele>
        <time>2020-06-08T14:49:59Z</time>
      </trkpt>
      <trkpt lat="59.222903278475" lon="17.904418255909">
        <ele>58</ele>
        <time>2020-06-08T14:50:00Z</time>
      </trkpt>
      <trkpt lat="59.222893387833" lon="17.904478773227">
        <ele>58</ele>
        <time>2020-06-08T14:50:01Z</time>
      </trkpt>
      <trkpt lat="59.222885508847" lon="17.904535267233">
        <ele>58.2</ele>
        <time>2020-06-08T14:50:02Z</time>
      </trkpt>
      <trkpt lat="59.222877462223" lon="17.904594778723">
        <ele>58.4</ele>
        <time>2020-06-08T14:50:03Z</time>
      </trkpt>
      <trkpt lat="59.222869583237" lon="17.904658062068">
        <ele>58.6</ele>
        <time>2020-06-08T14:50:04Z</time>
      </trkpt>
      <trkpt lat="59.222860279328" lon="17.904719417576">
        <ele>58.6</ele>
        <time>2020-06-08T14:50:05Z</time>
      </trkpt>
      <trkpt lat="59.2228508916" lon="17.904779934894">
        <ele>58.8</ele>
        <time>2020-06-08T14:50:06Z</time>
      </trkpt>
      <trkpt lat="59.222840246587" lon="17.904838524375">
        <ele>59</ele>
        <time>2020-06-08T14:50:07Z</time>
      </trkpt>
      <trkpt lat="59.222831529411" lon="17.904889318689">
        <ele>59.2</ele>
        <time>2020-06-08T14:50:08Z</time>
      </trkpt>
      <trkpt lat="59.222815184706" lon="17.904956122432">
        <ele>59.2</ele>
        <time>2020-06-08T14:50:09Z</time>
      </trkpt>
      <trkpt lat="59.222803869141" lon="17.905020327786">
        <ele>59.4</ele>
        <time>2020-06-08T14:50:10Z</time>
      </trkpt>
      <trkpt lat="59.222793224128" lon="17.905079923095">
        <ele>59.4</ele>
        <time>2020-06-08T14:50:11Z</time>
      </trkpt>
      <trkpt lat="59.222781740925" lon="17.905139686042">
        <ele>59.4</ele>
        <time>2020-06-08T14:50:12Z</time>
      </trkpt>
      <trkpt lat="59.22276539622" lon="17.905203472301">
        <ele>59.6</ele>
        <time>2020-06-08T14:50:13Z</time>
      </trkpt>
      <trkpt lat="59.222748716239" lon="17.905266085094">
        <ele>59.8</ele>
        <time>2020-06-08T14:50:14Z</time>
      </trkpt>
      <trkpt lat="59.222733461181" lon="17.9053225791">
        <ele>60</ele>
        <time>2020-06-08T14:50:15Z</time>
      </trkpt>
      <trkpt lat="59.222722145616" lon="17.905375971803">
        <ele>60</ele>
        <time>2020-06-08T14:50:16Z</time>
      </trkpt>
      <trkpt lat="59.222712925526" lon="17.905430621791">
        <ele>60.2</ele>
        <time>2020-06-08T14:50:17Z</time>
      </trkpt>
      <trkpt lat="59.222700185038" lon="17.905492228756">
        <ele>60.2</ele>
        <time>2020-06-08T14:50:18Z</time>
      </trkpt>
      <trkpt lat="59.222692641328" lon="17.905542268699">
        <ele>60.2</ele>
        <time>2020-06-08T14:50:19Z</time>
      </trkpt>
      <trkpt lat="59.222684259428" lon="17.90559247628">
        <ele>60.4</ele>
        <time>2020-06-08T14:50:20Z</time>
      </trkpt>
      <trkpt lat="59.222671770397" lon="17.905644527879">
        <ele>60.4</ele>
        <time>2020-06-08T14:50:21Z</time>
      </trkpt>
      <trkpt lat="59.222661963574" lon="17.905691717976">
        <ele>60.6</ele>
        <time>2020-06-08T14:50:22Z</time>
      </trkpt>
      <trkpt lat="59.222649642181" lon="17.905750726552">
        <ele>61</ele>
        <time>2020-06-08T14:50:23Z</time>
      </trkpt>
      <trkpt lat="59.222636231141" lon="17.905819122856">
        <ele>61.2</ele>
        <time>2020-06-08T14:50:24Z</time>
      </trkpt>
      <trkpt lat="59.222625837585" lon="17.905887100065">
        <ele>61.4</ele>
        <time>2020-06-08T14:50:25Z</time>
      </trkpt>
      <trkpt lat="59.222615192572" lon="17.905960525509">
        <ele>61.6</ele>
        <time>2020-06-08T14:50:26Z</time>
      </trkpt>
      <trkpt lat="59.222598764048" lon="17.906033531858">
        <ele>61.6</ele>
        <time>2020-06-08T14:50:27Z</time>
      </trkpt>
      <trkpt lat="59.222575881461" lon="17.906109388053">
        <ele>61.6</ele>
        <time>2020-06-08T14:50:28Z</time>
      </trkpt>
      <trkpt lat="59.222549227019" lon="17.906183735506">
        <ele>61.8</ele>
        <time>2020-06-08T14:50:29Z</time>
      </trkpt>
      <trkpt lat="59.222519638912" lon="17.906249701059">
        <ele>61.8</ele>
        <time>2020-06-08T14:50:30Z</time>
      </trkpt>
      <trkpt lat="59.222486446588" lon="17.906315582793">
        <ele>61.8</ele>
        <time>2020-06-08T14:50:31Z</time>
      </trkpt>
      <trkpt lat="59.222448476581" lon="17.906380458699">
        <ele>61.8</ele>
        <time>2020-06-08T14:50:32Z</time>
      </trkpt>
      <trkpt lat="59.222407992004" lon="17.906454722333">
        <ele>61.8</ele>
        <time>2020-06-08T14:50:33Z</time>
      </trkpt>
      <trkpt lat="59.222362813563" lon="17.906536362039">
        <ele>61.8</ele>
        <time>2020-06-08T14:50:34Z</time>
      </trkpt>
      <trkpt lat="59.222315958742" lon="17.906621019229">
        <ele>61.8</ele>
        <time>2020-06-08T14:50:35Z</time>
      </trkpt>
      <trkpt lat="59.222272037586" lon="17.906704083858">
        <ele>61.8</ele>
        <time>2020-06-08T14:50:36Z</time>
      </trkpt>
      <trkpt lat="59.222224428394" lon="17.90678773522">
        <ele>61.6</ele>
        <time>2020-06-08T14:50:37Z</time>
      </trkpt>
      <trkpt lat="59.222180255781" lon="17.906874655523">
        <ele>61.6</ele>
        <time>2020-06-08T14:50:38Z</time>
      </trkpt>
      <trkpt lat="59.222135244978" lon="17.906962833111">
        <ele>61.4</ele>
        <time>2020-06-08T14:50:39Z</time>
      </trkpt>
      <trkpt lat="59.222092497288" lon="17.907039359858">
        <ele>60.8</ele>
        <time>2020-06-08T14:50:40Z</time>
      </trkpt>
      <trkpt lat="59.222044636639" lon="17.907143463056">
        <ele>60.2</ele>
        <time>2020-06-08T14:50:41Z</time>
      </trkpt>
      <trkpt lat="59.221990489565" lon="17.907248236806">
        <ele>59.6</ele>
        <time>2020-06-08T14:50:42Z</time>
      </trkpt>
      <trkpt lat="59.221931145713" lon="17.907341527353">
        <ele>59</ele>
        <time>2020-06-08T14:50:43Z</time>
      </trkpt>
      <trkpt lat="59.221877250096" lon="17.907436745737">
        <ele>58.4</ele>
        <time>2020-06-08T14:50:44Z</time>
      </trkpt>
      <trkpt lat="59.221826288144" lon="17.907521067651">
        <ele>57.8</ele>
        <time>2020-06-08T14:50:45Z</time>
      </trkpt>
      <trkpt lat="59.221779936237" lon="17.907586781747">
        <ele>56</ele>
        <time>2020-06-08T14:50:46Z</time>
      </trkpt>
      <trkpt lat="59.221736853271" lon="17.907628272152">
        <ele>55</ele>
        <time>2020-06-08T14:50:47Z</time>
      </trkpt>
      <trkpt lat="59.221701649291" lon="17.907662470304">
        <ele>54.2</ele>
        <time>2020-06-08T14:50:48Z</time>
      </trkpt>
      <trkpt lat="59.22167491103" lon="17.907708486935">
        <ele>53.2</ele>
        <time>2020-06-08T14:50:49Z</time>
      </trkpt>
      <trkpt lat="59.221659320696" lon="17.907762466371">
        <ele>52.2</ele>
        <time>2020-06-08T14:50:50Z</time>
      </trkpt>
      <trkpt lat="59.221645322923" lon="17.907823235146">
        <ele>51.4</ele>
        <time>2020-06-08T14:50:51Z</time>
      </trkpt>
      <trkpt lat="59.221625122544" lon="17.907869503234">
        <ele>50.4</ele>
        <time>2020-06-08T14:50:52Z</time>
      </trkpt>
      <trkpt lat="59.221597294636" lon="17.907896912047">
        <ele>49.6</ele>
        <time>2020-06-08T14:50:53Z</time>
      </trkpt>
      <trkpt lat="59.221566365425" lon="17.90791174801">
        <ele>49</ele>
        <time>2020-06-08T14:50:54Z</time>
      </trkpt>
      <trkpt lat="59.221537531689" lon="17.90790588068">
        <ele>48.6</ele>
        <time>2020-06-08T14:50:55Z</time>
      </trkpt>
      <trkpt lat="59.221505931926" lon="17.907896241495">
        <ele>48.4</ele>
        <time>2020-06-08T14:50:56Z</time>
      </trkpt>
      <trkpt lat="59.221464357702" lon="17.907903449929">
        <ele>48.2</ele>
        <time>2020-06-08T14:50:57Z</time>
      </trkpt>
      <trkpt lat="59.221418760166" lon="17.90793354095">
        <ele>47.8</ele>
        <time>2020-06-08T14:50:58Z</time>
      </trkpt>
      <trkpt lat="59.221368468766" lon="17.907969834577">
        <ele>47.4</ele>
        <time>2020-06-08T14:50:59Z</time>
      </trkpt>
      <trkpt lat="59.221313567321" lon="17.908008475136">
        <ele>47.2</ele>
        <time>2020-06-08T14:51:00Z</time>
      </trkpt>
      <trkpt lat="59.221255648392" lon="17.908045439315">
        <ele>47.2</ele>
        <time>2020-06-08T14:51:01Z</time>
      </trkpt>
      <trkpt lat="59.221195298712" lon="17.908086594444">
        <ele>47</ele>
        <time>2020-06-08T14:51:02Z</time>
      </trkpt>
      <trkpt lat="59.221137128326" lon="17.908120792596">
        <ele>47</ele>
        <time>2020-06-08T14:51:03Z</time>
      </trkpt>
      <trkpt lat="59.221081723967" lon="17.908151386531">
        <ele>46.8</ele>
        <time>2020-06-08T14:51:04Z</time>
      </trkpt>
      <trkpt lat="59.221027995988" lon="17.908171083996">
        <ele>46.6</ele>
        <time>2020-06-08T14:51:05Z</time>
      </trkpt>
      <trkpt lat="59.220972256353" lon="17.908191619651">
        <ele>46</ele>
        <time>2020-06-08T14:51:06Z</time>
      </trkpt>
      <trkpt lat="59.220914337424" lon="17.908220285749">
        <ele>45.4</ele>
        <time>2020-06-08T14:51:07Z</time>
      </trkpt>
      <trkpt lat="59.220855412667" lon="17.908257752842">
        <ele>44.8</ele>
        <time>2020-06-08T14:51:08Z</time>
      </trkpt>
      <trkpt lat="59.220792129322" lon="17.908291280442">
        <ele>44.2</ele>
        <time>2020-06-08T14:51:09Z</time>
      </trkpt>
      <trkpt lat="59.220730103262" lon="17.908331848838">
        <ele>43.6</ele>
        <time>2020-06-08T14:51:10Z</time>
      </trkpt>
      <trkpt lat="59.220673022523" lon="17.908382391695">
        <ele>43</ele>
        <time>2020-06-08T14:51:11Z</time>
      </trkpt>
      <trkpt lat="59.220620384191" lon="17.908430419982">
        <ele>42.6</ele>
        <time>2020-06-08T14:51:12Z</time>
      </trkpt>
      <trkpt lat="59.220565901841" lon="17.908468054713">
        <ele>42</ele>
        <time>2020-06-08T14:51:13Z</time>
      </trkpt>
      <trkpt lat="59.220509575473" lon="17.908495714983">
        <ele>41.8</ele>
        <time>2020-06-08T14:51:14Z</time>
      </trkpt>
      <trkpt lat="59.220454338752" lon="17.908495547345">
        <ele>41.2</ele>
        <time>2020-06-08T14:51:15Z</time>
      </trkpt>
      <trkpt lat="59.220406561922" lon="17.908459756632">
        <ele>40.4</ele>
        <time>2020-06-08T14:51:16Z</time>
      </trkpt>
      <trkpt lat="59.220365825888" lon="17.908406783024">
        <ele>40</ele>
        <time>2020-06-08T14:51:17Z</time>
      </trkpt>
      <trkpt lat="59.220332465926" lon="17.908346349525">
        <ele>39.8</ele>
        <time>2020-06-08T14:51:18Z</time>
      </trkpt>
      <trkpt lat="59.220301536715" lon="17.90828306618">
        <ele>39.8</ele>
        <time>2020-06-08T14:51:19Z</time>
      </trkpt>
      <trkpt lat="59.220272283884" lon="17.908216932989">
        <ele>39.8</ele>
        <time>2020-06-08T14:51:20Z</time>
      </trkpt>
      <trkpt lat="59.220240181207" lon="17.908150799798">
        <ele>39.6</ele>
        <time>2020-06-08T14:51:21Z</time>
      </trkpt>
      <trkpt lat="59.22020640215" lon="17.908082403494">
        <ele>39.6</ele>
        <time>2020-06-08T14:51:22Z</time>
      </trkpt>
      <trkpt lat="59.220171449627" lon="17.908019203968">
        <ele>39.6</ele>
        <time>2020-06-08T14:51:23Z</time>
      </trkpt>
      <trkpt lat="59.220136916199" lon="17.90795868665">
        <ele>39.6</ele>
        <time>2020-06-08T14:51:24Z</time>
      </trkpt>
      <trkpt lat="59.220104478246" lon="17.907895487124">
        <ele>39.6</ele>
        <time>2020-06-08T14:51:25Z</time>
      </trkpt>
      <trkpt lat="59.220072040293" lon="17.907831197951">
        <ele>39.4</ele>
        <time>2020-06-08T14:51:26Z</time>
      </trkpt>
      <trkpt lat="59.220040691987" lon="17.907769842443">
        <ele>39.4</ele>
        <time>2020-06-08T14:51:27Z</time>
      </trkpt>
      <trkpt lat="59.220014540459" lon="17.907704295985">
        <ele>39.4</ele>
        <time>2020-06-08T14:51:28Z</time>
      </trkpt>
      <trkpt lat="59.219989227121" lon="17.907638330432">
        <ele>39.4</ele>
        <time>2020-06-08T14:51:29Z</time>
      </trkpt>
      <trkpt lat="59.219962656498" lon="17.907578064571">
        <ele>39.4</ele>
        <time>2020-06-08T14:51:30Z</time>
      </trkpt>
      <trkpt lat="59.219939941549" lon="17.907517463434">
        <ele>39.4</ele>
        <time>2020-06-08T14:51:31Z</time>
      </trkpt>
      <trkpt lat="59.219919573532" lon="17.907457951944">
        <ele>39.4</ele>
        <time>2020-06-08T14:51:32Z</time>
      </trkpt>
      <trkpt lat="59.219899289334" lon="17.907402547585">
        <ele>39.4</ele>
        <time>2020-06-08T14:51:33Z</time>
      </trkpt>
      <trkpt lat="59.21987699348" lon="17.907354519298">
        <ele>39.4</ele>
        <time>2020-06-08T14:51:34Z</time>
      </trkpt>
      <trkpt lat="59.219854613807" lon="17.907311017237">
        <ele>39.4</ele>
        <time>2020-06-08T14:51:35Z</time>
      </trkpt>
      <trkpt lat="59.219835838351" lon="17.907267347538">
        <ele>39.4</ele>
        <time>2020-06-08T14:51:36Z</time>
      </trkpt>
      <trkpt lat="59.219819577465" lon="17.907223342563">
        <ele>39.4</ele>
        <time>2020-06-08T14:51:37Z</time>
      </trkpt>
      <trkpt lat="59.219801053466" lon="17.907184115271">
        <ele>39.4</ele>
        <time>2020-06-08T14:51:38Z</time>
      </trkpt>
      <trkpt lat="59.219782194191" lon="17.907147234911">
        <ele>39.4</ele>
        <time>2020-06-08T14:51:39Z</time>
      </trkpt>
      <trkpt lat="59.219771800635" lon="17.907105660687">
        <ele>39.4</ele>
        <time>2020-06-08T14:51:40Z</time>
      </trkpt>
      <trkpt lat="59.219775404852" lon="17.907066601033">
        <ele>39.6</ele>
        <time>2020-06-08T14:51:41Z</time>
      </trkpt>
      <trkpt lat="59.219784457304" lon="17.907038605487">
        <ele>39.8</ele>
        <time>2020-06-08T14:51:42Z</time>
      </trkpt>
      <trkpt lat="59.219794180308" lon="17.907016309633">
        <ele>40</ele>
        <time>2020-06-08T14:51:43Z</time>
      </trkpt>
      <trkpt lat="59.219800466733" lon="17.907000300204">
        <ele>40</ele>
        <time>2020-06-08T14:51:44Z</time>
      </trkpt>
      <trkpt lat="59.219798538896" lon="17.90699225358">
        <ele>40.2</ele>
        <time>2020-06-08T14:51:45Z</time>
      </trkpt>
    </trkseg>
  </trk>
</gpx>